GFSCGP_sfc_thetae_000.txt.gz
Theta_e
292 289 288 288 289 289 286 283 283 285 287 286 286 287 291 291 285 285 283 282 283 283 282 282 282 282 281 282 282 282 283 283 283 282 280 280 280 281 280 281 283 283 283 283
289 288 290 291 289 287 284 283 283 285 286 286 285 285 289 291 287 287 287 283 283 283 280 282 281 281 281 281 282 282 282 282 283 282 281 281 280 280 280 281 280 281 282 281
288 290 291 290 286 285 283 282 282 283 284 283 281 281 282 287 288 288 287 287 285 283 281 281 280 280 280 280 281 282 282 282 282 281 281 280 280 278 277 277 278 279 281 281
289 290 289 285 286 286 282 285 283 282 280 277 282 278 280 285 286 285 287 284 284 283 282 282 281 279 279 280 281 281 281 281 282 281 279 277 276 275 276 277 277 278 279 279
289 286 285 285 286 286 285 284 282 281 279 276 277 274 278 279 283 287 287 286 285 283 282 281 281 281 280 281 280 280 280 280 280 279 278 276 276 276 276 276 276 276 277 279
288 287 287 287 285 285 286 282 280 277 276 272 278 277 277 278 282 284 284 283 283 281 281 281 281 281 280 280 280 279 279 278 279 278 277 275 274 274 274 274 274 275 276 277
286 285 284 287 284 285 283 282 277 274 271 276 275 273 282 284 284 285 285 282 282 280 280 280 280 280 279 279 279 279 278 277 277 276 275 274 273 273 272 273 273 273 274 275
283 283 285 286 286 284 281 282 278 270 270 277 273 275 282 284 284 280 279 279 281 279 280 280 281 280 279 279 278 278 277 275 275 274 274 273 273 273 273 273 273 272 273 274
283 283 284 285 284 284 281 279 282 276 264 269 278 279 282 284 282 281 279 280 280 278 279 280 280 280 278 278 278 277 275 275 274 273 273 272 271 271 271 271 272 272 273 274
288 284 282 281 282 280 281 283 277 277 271 265 276 277 281 286 284 285 279 279 279 277 278 279 280 279 278 278 277 275 274 273 273 273 271 271 270 270 270 270 270 271 272 272
288 287 282 281 280 280 277 278 277 279 276 272 268 280 283 285 286 286 282 281 279 278 278 279 279 279 278 277 275 274 273 272 272 271 271 270 270 270 270 269 270 270 271 271
287 285 282 283 278 278 280 281 281 278 275 273 273 281 283 286 286 284 282 281 278 278 278 279 279 277 276 275 274 273 272 271 271 270 270 269 269 269 268 268 269 270 270 270
287 283 281 281 279 279 277 280 281 280 277 275 274 280 282 282 282 280 280 280 278 277 276 277 277 277 276 274 273 271 270 270 270 269 268 268 267 267 267 268 268 269 269 269
293 285 282 281 282 281 277 279 280 282 278 280 280 283 288 289 290 292 285 278 278 277 277 277 277 276 275 274 272 270 269 269 268 267 266 266 267 267 267 267 267 267 267 266
289 285 286 286 288 280 280 281 281 278 281 279 283 283 287 289 291 292 293 287 278 276 276 277 277 275 273 272 270 269 267 267 267 266 266 266 266 266 266 266 266 266 265 265
283 283 285 284 286 282 281 285 285 280 281 281 283 283 291 293 294 292 292 286 279 276 277 277 277 276 274 273 269 270 267 267 267 265 266 266 265 265 264 264 264 263 263 263
280 281 275 280 281 279 277 282 286 287 287 284 279 285 290 290 290 290 289 282 280 278 277 277 276 276 274 272 271 266 266 266 265 266 264 263 264 262 262 262 262 261 261 262
280 280 282 280 274 273 285 289 285 285 287 288 288 289 291 291 292 282 284 283 279 278 277 277 276 272 270 268 267 266 266 265 265 264 262 262 262 261 261 260 259 260 261 262
288 283 280 278 278 282 284 283 281 280 284 289 286 289 290 290 280 286 281 282 281 278 278 277 273 270 268 266 266 265 265 264 263 262 261 261 260 258 258 256 258 259 261 260
288 287 284 281 276 274 283 286 281 282 280 291 290 289 288 281 280 287 281 278 277 277 275 271 270 268 266 265 265 265 264 262 261 261 260 260 259 256 256 257 257 260 259 261
279 281 279 281 279 282 288 277 281 277 283 287 291 290 289 282 287 281 277 275 274 273 270 269 268 266 266 265 264 263 262 261 260 260 259 258 258 256 256 257 258 258 259 260
282 279 279 279 278 277 287 279 282 289 293 289 284 284 284 284 277 275 275 272 270 269 269 267 266 265 265 264 264 262 261 260 259 258 257 255 254 254 258 256 256 258 258 259
283 286 285 285 283 288 287 292 293 293 293 290 283 282 284 280 277 275 273 271 270 269 268 268 265 263 263 263 262 262 260 259 257 253 252 250 254 256 257 255 257 257 259 260
288 292 287 287 289 289 287 290 294 295 291 292 283 281 281 279 276 275 272 271 269 269 267 266 264 262 260 261 260 259 258 257 251 251 254 256 256 255 257 258 259 258 259 260
290 290 288 288 290 292 293 294 293 288 285 283 281 281 281 280 277 275 273 270 270 268 266 266 265 263 260 259 257 257 255 253 253 254 256 255 254 253 256 258 257 260 262 265
292 290 287 286 292 292 292 295 296 291 286 284 282 279 281 280 277 275 273 271 269 267 266 265 264 262 260 259 257 254 252 251 250 254 254 254 254 254 256 256 256 262 265 266

GFSCGP_sfc_thetae_003.txt.gz
Theta_e
292 290 287 289 289 288 287 286 286 287 288 287 287 288 291 294 288 288 287 285 285 285 287 284 284 284 284 285 285 285 285 286 286 285 284 284 284 284 285 285 285 284 284 284
289 288 291 291 289 288 286 284 284 286 286 286 285 286 290 292 292 294 290 286 286 285 282 283 283 283 284 284 284 284 285 285 285 284 284 284 283 283 284 284 284 283 283 283
286 288 290 290 286 286 284 284 283 285 284 284 282 282 283 287 289 289 289 289 287 286 284 282 282 282 283 283 284 284 284 284 284 284 283 282 282 282 281 282 281 282 282 282
288 289 289 286 286 287 284 286 284 283 282 279 283 280 282 286 288 288 288 287 288 286 286 283 283 282 282 283 284 284 284 283 283 283 282 280 279 278 279 280 280 280 281 281
287 286 285 286 287 287 286 284 283 282 280 278 279 276 282 281 284 289 290 288 288 287 286 283 283 283 283 283 283 283 283 282 282 282 281 280 278 278 279 278 278 278 279 280
287 287 288 288 285 285 286 283 281 278 277 273 281 280 280 281 284 287 288 288 288 285 284 284 284 284 283 283 283 282 281 281 281 281 280 278 276 276 276 276 276 276 277 278
284 285 285 287 285 285 284 283 278 275 273 276 276 275 284 285 285 288 289 288 286 285 282 282 282 282 283 281 282 282 280 279 279 279 277 277 275 275 274 274 274 274 275 275
283 283 284 286 288 286 282 284 279 272 272 279 273 275 283 285 289 286 284 284 282 283 282 282 282 282 283 282 281 281 280 278 277 276 276 275 274 274 274 274 273 273 273 274
283 283 283 285 284 285 281 280 283 276 265 272 280 282 284 286 285 283 282 281 282 283 281 281 282 282 282 282 281 280 278 277 276 275 274 273 273 272 272 272 272 272 273 274
288 284 283 282 282 280 282 283 279 278 273 268 277 281 283 284 286 286 285 283 284 283 280 280 281 282 282 282 281 279 277 276 275 274 273 272 271 271 271 271 271 271 272 272
289 288 282 282 281 280 279 279 279 280 278 273 272 281 284 286 287 287 288 285 285 284 281 280 281 281 282 281 279 277 275 274 273 273 272 271 270 270 270 270 270 271 271 271
288 286 283 279 279 280 280 282 283 279 277 275 275 281 286 287 288 287 287 285 285 283 281 280 280 281 280 279 277 275 274 273 272 271 270 270 269 269 269 269 270 270 270 270
288 285 279 282 279 279 279 280 282 280 278 280 275 281 288 287 286 285 285 284 284 283 280 278 279 279 279 278 276 273 272 272 271 270 269 268 268 268 268 268 268 269 268 268
294 286 285 281 283 281 278 278 281 282 280 281 281 283 288 290 289 288 286 282 284 282 280 278 278 279 279 277 274 272 271 271 269 268 267 267 267 267 267 267 267 267 267 266
289 285 287 288 288 282 281 281 282 280 282 280 283 283 287 290 291 292 293 293 288 281 278 278 278 278 277 275 273 271 270 268 268 267 266 266 267 267 267 266 267 266 266 265
286 284 285 285 287 283 282 283 285 284 283 282 283 283 291 293 293 292 292 292 291 289 281 278 278 278 276 276 272 271 268 267 267 266 266 266 266 266 265 265 265 264 264 264
284 284 282 280 285 280 277 283 286 287 288 286 282 286 290 289 290 290 291 291 291 290 282 278 278 277 276 275 273 268 267 267 266 267 265 264 264 263 263 263 263 262 262 262
287 284 284 280 281 273 284 289 288 286 286 287 288 290 291 291 293 293 289 291 290 287 281 278 278 277 276 272 269 267 267 267 267 265 263 263 263 261 262 261 261 261 262 262
290 287 281 278 278 282 284 285 282 283 284 289 288 289 291 291 286 288 287 288 290 290 282 279 278 276 271 269 268 267 267 266 265 263 263 262 261 259 259 257 259 260 261 261
289 289 283 281 276 274 283 289 287 283 280 290 290 290 290 286 282 288 291 287 284 281 279 277 274 271 269 267 268 267 266 265 263 263 262 261 260 257 257 258 258 260 259 260
279 283 280 280 279 282 288 285 285 278 283 292 291 291 290 286 290 292 279 277 278 277 274 273 271 270 268 267 267 266 265 264 263 261 260 260 259 257 256 257 258 258 258 260
283 279 279 281 279 276 290 285 283 290 293 293 292 290 288 289 291 283 278 275 273 271 272 271 270 267 267 267 267 265 264 262 261 260 259 257 256 256 258 254 256 257 258 258
283 286 285 284 283 287 290 291 293 294 293 293 293 290 290 289 287 280 277 273 272 272 270 270 268 266 265 267 267 265 262 261 259 257 256 256 256 257 256 254 256 257 258 259
289 292 287 287 290 287 287 291 294 294 292 294 294 290 286 288 285 279 275 273 272 270 269 268 266 265 263 264 265 263 261 260 255 255 258 259 258 256 257 258 259 257 259 261
289 288 288 287 290 292 293 293 293 292 291 286 288 290 287 287 283 280 275 273 272 270 269 268 267 265 263 262 260 260 259 257 256 257 258 257 257 255 257 258 257 260 262 265
289 287 285 285 292 292 293 294 295 293 294 294 292 290 284 287 288 280 276 273 272 270 268 268 266 264 262 260 258 257 256 257 259 258 257 256 256 255 256 256 256 261 265 267

GFSCGP_sfc_thetae_006.txt.gz
Theta_e
300 298 296 299 300 299 296 295 295 299 295 294 295 295 297 300 300 300 300 302 299 296 298 297 295 293 292 292 292 292 292 292 292 292 291 291 291 291 291 291 290 289 288 288
297 294 301 298 297 295 295 295 295 297 293 292 293 292 296 297 298 300 300 302 301 297 296 295 292 291 291 291 291 291 291 292 291 291 290 290 289 290 290 290 289 289 288 287
295 298 295 296 294 293 294 294 296 293 292 291 289 291 292 295 295 297 298 300 300 298 295 293 291 291 290 290 291 291 291 291 291 290 289 288 288 287 287 288 288 288 287 287
296 297 295 294 294 295 293 296 293 291 290 289 290 286 293 294 294 296 299 299 297 296 295 293 291 290 289 290 291 291 290 289 289 289 288 287 286 286 287 287 287 286 286 285
295 292 292 293 295 295 294 291 291 289 289 286 290 285 291 288 290 295 299 301 299 298 296 293 291 290 290 291 291 290 290 289 288 288 288 287 286 286 286 285 284 285 285 285
295 293 294 296 290 291 290 290 288 286 286 283 289 287 290 291 292 295 299 298 298 297 296 295 292 290 290 290 290 290 289 287 287 287 287 286 285 284 283 283 283 283 283 283
292 292 292 292 291 291 290 291 287 287 284 284 286 284 289 294 295 296 299 300 297 297 295 293 290 288 288 289 289 289 288 286 287 286 285 284 284 283 282 282 281 281 281 281
289 288 289 292 295 294 289 292 288 283 284 286 282 282 290 294 297 298 294 295 293 294 294 292 290 289 289 288 289 288 288 286 285 285 284 283 282 281 281 280 280 279 279 280
288 290 289 289 290 293 287 286 292 288 279 282 288 292 293 292 292 292 293 294 294 293 292 291 291 290 288 288 288 288 287 286 284 283 283 281 281 279 279 279 278 278 279 278
293 287 289 286 289 287 288 290 285 287 282 281 285 287 288 291 292 292 291 293 296 295 293 291 290 289 289 289 289 288 288 286 284 282 281 280 279 278 278 277 277 277 278 277
294 291 287 287 286 288 285 286 285 286 285 283 281 286 291 292 294 293 295 297 298 296 294 292 290 290 289 289 288 288 287 284 282 281 280 278 277 277 276 276 276 276 276 276
294 291 288 289 286 287 290 289 289 284 283 284 285 286 293 294 295 294 296 295 296 296 296 294 291 289 288 287 287 286 285 282 281 280 278 277 276 275 275 275 275 275 274 275
291 287 285 287 284 284 285 286 288 289 288 284 282 284 295 296 294 294 295 296 295 295 295 293 290 288 287 287 285 285 283 281 279 277 276 275 275 274 274 274 274 273 273 273
295 289 288 284 287 286 285 286 286 287 284 285 285 288 292 294 294 296 295 293 294 295 294 295 290 288 287 286 285 283 281 280 277 276 275 274 274 273 273 273 272 272 272 271
292 286 288 290 291 291 289 288 287 284 286 284 287 288 292 294 295 296 297 297 296 296 293 293 290 288 286 285 283 282 280 277 276 274 274 274 273 272 272 271 271 271 270 270
289 286 288 285 289 288 286 288 289 289 288 288 287 286 293 295 296 295 295 295 294 295 296 293 288 286 284 283 281 279 278 275 274 274 273 272 271 271 270 270 269 269 269 269
287 286 284 281 287 286 282 285 287 288 291 290 286 290 295 294 294 294 296 295 294 294 295 295 287 285 283 281 280 278 276 274 273 273 272 270 270 269 268 268 267 267 267 267
288 286 286 282 284 275 287 293 291 289 290 292 292 293 294 295 296 296 298 296 295 295 295 293 289 286 283 282 279 277 274 273 272 272 269 269 268 267 266 266 266 266 267 267
292 288 283 280 280 285 285 289 288 286 287 292 291 292 294 295 294 294 297 297 296 297 298 298 290 286 282 280 277 273 272 272 271 269 268 268 267 265 265 263 264 265 266 266
290 291 284 282 278 277 287 292 294 290 282 293 292 292 292 291 287 292 298 297 296 296 294 285 283 281 279 276 273 272 271 271 269 269 268 267 266 263 263 264 264 265 264 265
284 284 281 281 280 284 291 290 290 280 285 294 294 293 292 290 293 296 296 291 287 285 282 281 279 276 275 273 273 272 270 269 270 268 266 265 264 263 263 262 264 263 263 264
285 282 281 282 279 277 294 293 286 292 296 296 296 295 292 293 294 293 294 284 281 278 277 276 275 273 271 273 273 270 269 268 266 265 265 263 262 263 263 260 262 262 263 263
284 289 286 287 286 294 296 294 296 297 296 297 296 296 294 293 292 292 290 282 279 278 276 275 273 270 271 272 273 270 267 265 264 263 261 261 261 262 261 261 262 264 264 264
288 293 286 288 292 293 293 296 297 298 296 296 297 296 295 293 293 290 288 282 277 276 274 273 271 269 269 270 271 267 265 264 261 261 261 262 262 262 261 263 264 263 265 265
285 285 284 283 287 289 294 295 296 295 295 292 293 293 294 294 291 292 290 285 279 276 274 272 271 269 268 268 265 264 263 261 261 262 262 262 262 262 262 263 263 264 266 267
283 282 281 282 290 289 290 293 293 291 293 295 295 295 295 295 292 292 289 287 279 275 272 271 271 268 266 265 263 262 261 262 262 262 262 262 262 262 261 262 262 263 265 266

GFSCGP_sfc_thetae_009.txt.gz
Theta_e
303 299 296 300 302 301 299 297 296 299 302 298 297 298 300 303 303 303 303 304 305 305 308 304 304 303 300 298 296 296 295 295 295 294 293 293 292 294 293 293 293 292 291 290
299 295 301 302 300 299 299 296 295 300 301 295 296 296 300 302 302 303 302 303 304 306 305 302 302 300 298 296 296 296 295 294 295 295 295 294 293 293 293 293 292 291 290 290
296 299 300 298 298 296 296 295 296 296 300 297 294 293 296 300 301 301 301 302 303 304 304 301 299 297 297 295 296 295 295 294 294 294 293 291 290 290 289 290 291 291 290 289
298 301 299 297 295 297 293 299 298 296 294 290 295 287 295 298 299 299 299 301 303 302 303 301 298 296 296 296 297 295 295 294 294 293 291 290 288 288 290 291 291 290 289 288
296 297 294 294 296 299 295 295 295 295 293 293 292 289 293 292 293 295 299 302 305 304 301 300 297 296 296 296 295 295 294 293 293 292 291 290 290 290 290 289 288 288 289 288
296 297 297 298 294 295 295 293 292 292 291 286 291 291 291 294 294 297 300 302 304 302 301 300 298 297 296 296 295 294 293 292 292 291 290 290 289 289 288 287 286 287 287 287
296 295 297 296 293 293 293 292 288 287 286 285 294 289 293 298 298 298 299 301 303 301 300 299 296 295 295 294 293 293 292 291 291 290 289 289 289 289 287 287 286 285 285 285
291 289 294 295 295 296 291 293 289 284 284 287 288 286 292 299 300 300 300 300 300 300 300 299 297 295 294 293 293 292 291 291 290 289 289 289 288 287 287 286 285 284 283 283
290 290 292 294 294 297 292 287 295 290 288 285 289 293 298 298 297 297 297 298 298 298 298 298 297 295 294 293 292 292 291 291 289 288 288 287 286 286 284 284 283 283 282 281
295 288 295 288 291 292 291 294 287 289 283 281 286 289 290 293 294 296 295 297 299 299 299 298 297 295 294 294 292 292 292 290 289 288 287 285 285 284 284 283 281 281 281 281
295 293 290 289 287 290 287 287 288 288 289 284 282 287 294 295 296 297 298 299 300 301 300 298 297 295 294 293 292 291 291 290 289 287 286 284 283 282 282 280 280 280 280 279
295 291 287 290 295 293 293 291 291 285 284 287 286 286 297 297 297 297 297 299 301 302 302 301 298 296 293 292 292 291 290 289 288 286 285 283 282 280 279 279 279 279 278 278
293 288 284 286 289 287 287 291 291 292 289 285 283 286 297 298 298 299 297 299 299 298 300 301 299 296 294 292 292 291 290 289 288 285 283 281 280 278 278 278 278 277 276 276
295 290 287 283 288 291 287 288 289 289 285 285 286 288 293 295 296 298 299 300 300 299 299 300 299 297 295 293 291 290 289 288 286 283 280 279 278 277 278 277 276 276 275 274
291 284 288 290 291 292 289 289 289 287 287 284 287 288 292 295 296 298 299 299 298 298 299 298 297 298 295 292 290 289 287 286 283 280 279 278 278 277 277 275 275 274 274 273
292 284 287 284 288 288 286 288 289 289 290 290 290 289 296 297 298 297 297 298 297 297 297 297 297 295 292 289 289 286 286 284 281 278 277 277 276 275 275 274 273 272 272 272
286 285 284 281 287 286 281 286 288 289 292 291 287 292 297 296 297 297 298 298 297 297 297 294 295 295 291 289 287 285 284 281 278 277 277 275 274 273 273 272 271 270 270 271
288 285 285 283 285 276 287 293 292 290 292 294 293 294 296 297 298 298 299 298 297 297 296 296 296 295 290 289 286 284 281 278 277 276 275 273 273 271 271 270 269 269 269 269
293 289 284 280 281 285 288 292 290 289 289 294 293 294 296 297 296 295 299 299 298 298 298 298 298 297 290 286 284 281 278 276 275 275 273 272 271 270 269 268 268 269 269 269
291 290 285 283 279 277 287 293 296 295 284 295 295 294 294 295 288 292 298 295 294 295 295 295 291 287 285 283 281 277 274 274 274 273 272 271 270 269 268 268 268 269 268 268
284 284 281 282 280 284 292 294 294 283 287 296 295 294 294 292 294 297 297 294 294 293 289 287 285 283 283 280 277 275 274 273 274 273 271 269 268 267 267 267 267 266 266 267
286 284 282 282 280 278 295 294 288 293 297 297 297 296 295 295 296 295 296 296 291 288 283 283 280 279 278 277 276 274 273 274 272 270 268 267 266 266 266 264 264 265 265 265
283 285 281 284 285 294 294 292 293 295 295 295 294 293 295 294 295 294 293 293 287 287 282 280 278 276 274 275 276 274 273 270 269 267 266 265 265 266 265 263 264 264 265 266
284 287 282 282 286 287 289 292 293 294 290 290 291 292 293 293 294 292 292 291 286 282 280 278 275 273 272 274 275 274 269 269 267 265 264 264 263 264 263 265 265 266 266 267
279 281 279 278 281 285 286 287 289 289 290 289 290 290 290 290 290 292 293 293 291 285 279 277 274 273 272 273 274 269 268 267 266 265 264 264 264 264 264 266 265 266 267 268
280 277 275 274 282 282 283 285 284 283 284 285 285 284 286 288 289 291 292 294 294 286 279 275 274 273 272 272 268 268 267 267 266 265 265 264 264 264 264 264 263 266 267 267

GFSCGP_sfc_thetae_012.txt.gz
Theta_e
300 294 291 294 297 297 295 293 292 296 298 294 293 294 296 298 298 297 299 300 300 299 300 301 301 298 297 295 293 293 291 291 292 290 289 288 289 289 288 289 290 289 289 288
295 291 297 298 297 295 293 291 291 295 297 293 292 293 296 297 298 299 299 300 300 297 298 298 298 297 296 294 293 292 292 291 292 291 290 288 288 288 288 289 289 289 288 288
293 295 299 297 294 293 292 290 291 291 294 291 288 288 291 295 298 299 299 300 298 297 297 295 296 296 294 292 292 292 292 291 291 290 290 287 286 286 285 286 286 287 288 287
294 298 297 295 293 294 289 294 294 292 288 284 289 283 289 292 293 295 296 298 295 296 297 296 294 294 293 292 292 292 292 291 291 290 289 285 284 282 284 285 286 286 287 286
292 292 292 292 293 295 291 292 290 290 288 286 286 283 287 292 291 293 295 298 297 297 297 295 295 294 293 292 292 292 291 291 291 290 289 286 284 284 284 284 284 284 284 285
293 295 293 293 292 292 292 290 289 286 285 280 286 285 284 288 291 292 294 296 295 296 295 294 294 294 293 291 291 291 290 290 290 289 288 286 285 284 283 282 282 282 283 283
290 291 292 293 290 290 289 287 280 278 277 280 287 284 289 291 292 293 294 295 295 296 293 293 292 291 291 291 291 291 290 289 289 288 287 286 286 285 283 283 282 282 281 280
285 285 291 292 292 290 287 288 281 275 277 282 282 281 286 294 296 295 295 294 295 294 294 293 292 291 291 291 290 290 289 288 288 287 286 286 286 286 284 283 282 281 280 280
286 286 290 291 291 292 288 284 289 282 277 277 285 287 291 292 293 293 292 292 292 293 294 293 292 291 290 290 290 290 289 289 288 287 286 286 285 283 283 281 280 280 279 280
290 286 290 287 288 288 287 289 282 283 273 272 282 284 286 288 290 290 290 290 291 292 293 293 293 292 291 291 290 290 290 288 288 287 286 285 284 282 281 280 279 278 278 277
293 289 287 286 284 285 283 283 285 286 283 278 278 283 287 289 290 290 290 292 293 293 292 293 294 293 291 290 290 289 288 287 287 285 285 283 282 281 279 279 278 277 277 277
293 289 284 286 290 288 289 288 288 283 281 280 283 284 294 290 291 292 292 293 293 294 295 293 293 292 290 290 289 288 288 287 286 285 283 282 280 279 278 277 276 277 276 276
291 285 281 283 288 287 284 287 289 289 286 283 280 283 292 295 293 291 292 293 293 294 293 294 293 291 290 289 289 288 287 287 286 284 283 280 279 278 277 276 276 276 275 275
294 287 284 281 284 289 285 287 287 287 282 283 283 285 290 293 293 295 296 297 294 294 293 294 292 292 291 290 289 288 287 287 285 283 282 280 278 277 276 276 275 275 274 274
290 283 285 287 288 288 287 286 287 286 286 282 285 285 289 292 293 294 296 296 296 294 294 292 292 292 291 290 288 288 287 286 285 283 281 279 277 276 276 275 275 274 273 273
291 283 285 283 286 286 284 286 287 287 287 287 288 287 293 294 295 295 296 296 296 296 296 295 291 289 288 288 288 286 286 285 284 281 279 278 276 275 275 274 274 273 273 272
286 285 283 280 285 284 280 285 286 287 289 289 285 289 294 293 294 295 296 297 297 295 296 292 290 289 288 288 287 285 285 284 281 279 278 276 275 274 274 273 272 272 271 272
289 286 285 282 284 275 285 292 290 289 290 291 291 293 295 295 296 297 298 295 296 297 296 294 289 290 289 287 284 283 282 282 280 278 277 275 274 273 273 272 271 271 271 271
294 289 284 280 280 284 286 290 289 287 287 293 292 294 295 296 296 296 299 299 298 297 298 297 291 290 289 285 283 282 280 279 277 276 275 274 273 273 272 271 270 270 270 270
291 292 286 284 279 277 286 292 294 293 283 293 294 293 293 294 288 292 298 297 293 293 292 291 290 288 284 280 281 280 277 276 275 276 275 274 273 272 271 270 270 270 270 270
283 284 282 283 281 283 289 293 292 281 284 292 292 290 289 287 289 292 292 291 290 290 290 287 285 284 281 279 278 277 275 275 276 275 273 272 271 270 271 269 269 269 268 269
282 282 282 283 279 277 287 287 283 286 289 286 285 285 284 287 289 291 291 291 289 288 287 283 279 278 277 278 278 276 274 275 274 273 271 270 269 269 269 268 267 266 267 266
276 278 275 278 278 286 286 283 286 291 285 285 285 286 287 287 287 289 289 289 288 287 285 279 277 275 274 275 277 275 274 273 272 270 268 267 267 267 267 266 265 265 265 266
277 281 276 275 282 279 280 283 286 287 282 283 282 282 284 284 285 285 285 286 287 285 284 279 277 275 273 274 276 276 273 272 269 267 266 266 265 264 265 266 266 266 265 266
274 275 273 273 277 278 280 282 282 282 281 281 282 282 281 282 282 282 282 283 286 287 288 280 280 278 278 274 274 273 271 270 268 267 266 265 265 265 264 266 266 267 268 268
276 274 272 270 277 277 277 280 280 279 278 277 277 279 281 283 282 284 284 284 284 284 285 280 278 278 277 274 274 270 270 269 267 266 265 265 264 265 265 265 266 271 270 272

GFSCGP_sfc_thetae_015.txt.gz
Theta_e
295 289 288 292 293 291 289 287 286 293 295 293 293 293 295 297 294 293 296 297 298 298 301 297 299 299 298 294 292 292 291 292 292 291 289 288 289 288 287 287 288 288 287 287
292 288 294 294 294 292 290 288 288 292 293 291 291 291 295 294 296 297 296 297 299 299 296 296 296 296 295 292 292 291 291 291 292 292 291 288 288 286 287 287 287 288 287 287
290 292 297 295 292 291 291 288 289 288 291 290 288 286 290 294 296 298 299 299 300 299 295 294 293 295 294 292 291 291 291 291 292 291 289 286 286 285 285 285 286 286 287 286
291 295 293 291 290 292 288 292 291 290 285 284 286 282 287 291 292 294 297 297 297 293 294 293 293 291 293 292 292 292 291 290 291 290 290 287 287 286 288 288 286 285 286 285
290 289 289 289 292 292 290 291 289 287 285 284 285 282 285 290 289 292 296 297 297 295 294 293 294 295 294 292 291 291 290 290 290 290 290 288 287 287 282 283 285 284 284 284
289 291 291 291 290 291 291 288 287 285 283 280 283 284 284 285 290 291 295 296 296 295 294 294 294 293 291 290 290 290 290 289 290 289 289 288 287 283 282 283 284 284 283 283
286 289 290 292 288 288 288 285 278 276 275 279 285 282 288 289 291 293 294 295 296 293 292 290 291 291 290 288 289 290 289 288 289 289 288 287 287 285 283 283 284 283 282 281
282 283 288 291 291 287 285 287 279 272 277 282 281 278 285 292 294 294 294 295 292 293 292 291 291 291 290 290 288 289 288 289 288 288 288 287 286 286 285 284 284 284 283 282
283 283 288 288 289 291 285 283 288 281 270 275 284 285 290 289 291 291 292 288 291 292 291 291 289 290 290 289 289 289 289 289 288 288 288 286 286 286 285 283 283 283 282 281
289 284 289 287 288 286 287 288 281 281 272 270 282 279 285 289 293 294 288 289 290 291 291 291 290 290 289 290 290 289 290 289 288 287 287 286 286 286 285 282 282 280 280 279
289 288 287 285 283 285 283 284 285 284 281 279 278 283 286 288 288 288 289 289 290 291 291 292 292 291 291 289 289 289 288 288 287 286 286 285 284 284 283 282 281 280 279 278
291 287 282 285 287 287 287 287 287 282 281 280 282 283 295 291 290 289 291 291 290 292 293 291 291 292 289 289 288 288 288 288 287 287 285 284 282 281 281 280 279 278 278 277
293 285 281 282 287 285 285 286 287 287 284 282 279 281 295 295 294 290 289 290 291 292 293 292 291 291 291 289 289 289 288 288 287 286 283 283 281 280 280 279 277 277 276 276
296 286 284 282 286 288 285 286 286 287 282 283 282 284 289 292 293 294 295 297 297 298 292 293 294 292 290 290 289 289 288 288 287 285 283 282 281 280 279 278 277 277 276 275
293 283 285 287 289 289 288 288 288 286 286 282 285 286 288 291 293 294 295 296 296 296 292 293 293 291 291 290 289 288 288 286 286 284 283 282 281 280 278 276 276 276 275 274
292 285 287 284 287 287 285 287 287 287 287 287 287 287 295 296 297 296 297 297 296 296 296 294 292 292 289 289 289 288 288 286 285 284 283 282 279 278 276 276 276 275 274 273
289 286 285 281 286 285 280 285 287 287 289 289 284 289 294 293 294 296 297 297 296 297 297 293 292 291 289 288 288 287 286 284 284 284 282 279 277 276 276 276 275 274 273 273
288 285 285 282 284 276 285 290 290 288 290 291 291 292 294 294 296 297 298 296 296 297 294 292 291 291 289 288 286 287 282 282 283 282 280 278 277 276 275 275 274 273 273 272
292 288 283 280 280 284 285 287 287 286 286 291 290 292 290 289 293 294 292 292 291 291 292 292 291 291 290 288 286 282 281 281 281 280 278 277 276 276 274 273 273 272 272 271
290 291 285 283 279 277 286 288 291 291 282 284 284 283 283 284 280 284 288 291 290 291 290 288 287 287 286 282 280 280 279 279 279 279 278 277 277 275 274 273 272 272 271 271
280 283 280 281 280 282 282 283 287 279 275 281 284 283 282 280 283 287 288 287 288 287 288 289 285 282 281 278 278 278 276 278 277 276 276 275 275 274 274 272 272 271 271 271
276 273 273 275 275 275 282 280 273 278 282 284 281 281 280 281 282 283 284 284 285 284 286 286 284 285 278 278 278 277 276 275 274 274 273 273 274 273 272 270 269 270 270 269
274 273 272 274 271 276 283 279 282 284 282 281 280 279 280 280 280 281 281 282 284 284 284 285 283 285 278 278 279 279 277 275 274 273 272 272 272 271 270 269 268 268 268 268
274 277 273 272 275 276 278 280 281 281 279 280 280 278 279 279 280 280 281 283 283 283 283 285 285 284 282 278 278 279 276 275 273 271 271 270 270 269 269 269 268 268 267 267
273 275 271 271 275 276 277 279 278 278 279 277 276 276 276 277 277 278 278 279 281 282 283 284 284 284 283 281 278 279 275 275 273 272 269 268 269 268 268 269 268 268 269 270
276 274 271 269 276 273 275 276 277 273 273 273 273 273 274 273 273 273 274 276 277 277 279 281 282 283 283 284 281 279 277 274 273 270 269 269 268 267 267 267 267 272 272 274

GFSCGP_sfc_thetae_018.txt.gz
Theta_e
293 288 286 291 291 289 286 285 285 289 292 290 290 291 294 298 294 292 295 297 296 294 299 299 297 297 297 297 295 294 293 292 293 291 290 290 290 289 288 288 289 288 287 287
289 286 292 292 291 291 289 287 287 291 293 289 290 290 293 295 296 297 297 296 297 299 300 296 294 294 296 295 294 293 293 292 293 293 293 291 291 287 289 288 288 288 287 286
289 291 294 292 289 289 288 287 288 288 289 288 286 287 288 292 295 297 297 298 299 299 300 297 293 293 295 294 292 292 293 292 293 293 291 286 286 285 285 286 286 287 287 286
289 294 292 290 289 291 287 291 290 288 284 283 286 282 285 289 291 293 295 297 298 299 299 298 292 291 292 293 292 292 292 292 292 291 290 289 289 288 289 288 286 285 286 285
288 288 288 288 291 291 290 289 288 285 283 282 282 281 284 289 288 291 295 296 298 299 294 295 292 294 294 292 291 291 291 291 291 290 290 289 288 289 284 284 284 285 284 285
289 290 290 290 290 290 289 287 286 283 282 279 284 283 283 285 289 290 294 296 297 298 299 293 293 292 290 288 290 290 289 290 290 289 289 289 289 285 283 284 285 284 284 284
284 286 288 291 287 287 287 285 278 276 275 278 284 281 288 288 291 292 293 294 295 297 292 291 290 290 288 288 288 289 289 288 289 288 289 289 288 286 285 284 285 284 283 282
281 282 287 289 289 286 285 287 279 274 278 282 281 279 286 291 293 293 293 295 293 292 291 292 290 290 289 289 288 289 288 288 288 288 289 289 288 287 286 285 285 285 284 284
281 283 287 288 288 290 283 282 289 280 269 273 283 285 289 288 290 291 291 290 290 290 291 291 289 289 289 288 288 289 288 289 288 288 288 287 288 286 286 284 284 284 284 283
288 283 288 286 286 285 286 287 280 280 272 270 281 279 285 287 291 289 289 289 288 289 290 290 289 288 288 288 289 288 289 289 288 288 288 287 287 286 286 282 282 282 282 281
290 287 286 284 283 286 283 283 283 283 282 280 278 282 288 286 287 287 288 289 289 289 290 291 291 290 289 288 288 288 288 287 287 286 287 286 285 285 285 282 282 281 281 280
292 288 283 286 288 286 286 286 287 282 280 280 283 283 295 294 294 292 293 291 289 290 291 291 292 291 289 289 287 288 288 288 288 288 286 286 285 284 284 282 282 280 280 280
292 287 283 283 286 288 286 288 288 287 285 282 280 282 295 295 294 295 291 290 292 292 291 292 292 292 293 290 289 288 288 288 288 288 285 285 283 283 283 283 281 280 280 279
297 290 286 282 285 288 284 285 286 286 282 282 283 284 289 292 293 295 296 296 296 296 296 297 295 293 292 291 290 290 289 288 287 286 285 284 283 283 283 282 280 280 280 278
293 285 287 288 290 290 289 288 289 287 287 283 285 286 290 293 294 296 297 296 296 295 294 294 294 296 295 292 290 290 290 288 287 285 285 285 284 283 283 281 280 280 278 277
289 284 286 285 288 287 285 287 288 288 289 288 289 288 295 296 297 296 297 297 297 297 296 294 292 292 291 291 291 288 289 287 285 286 285 285 283 282 281 280 279 278 277 276
284 283 282 279 285 284 281 285 286 288 289 289 284 290 291 290 291 292 290 289 289 289 289 289 289 290 290 291 287 287 287 286 283 285 285 283 282 280 279 278 277 276 276 275
281 281 282 278 280 272 284 291 291 288 289 288 281 282 282 281 283 287 285 283 285 287 288 288 288 288 289 290 289 287 285 282 283 284 284 282 280 279 277 276 276 276 275 275
285 282 278 276 277 281 284 280 276 281 281 279 280 279 280 280 280 285 283 284 285 286 286 286 287 287 287 287 285 282 281 280 280 281 282 280 279 278 276 275 276 276 275 275
280 283 280 277 273 272 274 278 279 280 275 279 280 278 279 278 271 275 281 284 284 285 285 285 286 286 286 286 283 280 279 277 278 278 278 277 278 278 276 277 276 276 275 275
266 268 271 274 272 275 277 279 278 270 270 280 281 279 278 275 277 280 282 282 283 283 284 285 285 283 284 284 280 280 278 277 277 275 275 275 277 278 277 277 276 275 274 273
269 269 269 264 264 268 278 276 270 274 282 281 279 279 278 279 279 280 280 281 281 282 283 284 283 284 285 285 280 281 279 279 275 275 273 274 276 276 275 275 274 273 273 271
267 272 270 271 269 277 279 278 280 283 279 278 277 278 277 275 276 277 277 278 279 280 280 282 282 282 283 285 280 281 282 276 275 275 274 273 274 274 273 272 270 271 271 271
273 276 269 271 274 275 277 279 280 279 276 277 276 274 274 273 275 275 275 275 275 275 276 278 278 279 280 283 284 282 283 277 275 275 275 274 273 272 272 272 272 272 271 271
272 273 271 270 275 276 276 277 276 277 276 275 275 274 273 273 272 272 272 272 273 274 274 274 274 275 275 277 280 284 285 277 275 276 274 273 272 272 272 272 272 272 272 273
276 274 271 270 276 275 276 277 276 273 272 272 272 272 272 271 270 271 270 271 271 270 270 269 269 270 270 272 274 276 282 278 277 274 272 271 271 271 271 271 270 276 275 276

GFSCGP_sfc_thetae_021.txt.gz
Theta_e
291 287 285 290 290 288 285 284 283 288 291 288 289 290 293 296 296 292 293 296 297 298 301 300 297 296 296 295 295 294 293 293 294 292 290 291 291 290 290 291 290 288 288 287
288 285 291 290 289 288 288 286 285 290 292 287 288 288 292 293 295 297 297 296 297 298 298 299 294 293 294 295 295 295 293 293 293 294 294 292 293 289 291 290 289 288 287 286
289 289 293 290 287 287 286 284 287 286 288 287 285 287 288 291 293 296 297 298 298 298 298 299 294 292 293 294 294 294 293 293 294 294 292 286 286 285 285 286 287 287 287 286
288 292 291 287 286 289 286 289 289 287 283 282 285 280 285 289 291 291 294 296 296 297 297 297 296 291 291 294 294 294 293 292 293 293 291 290 290 289 288 290 288 287 286 285
286 287 286 286 289 289 288 288 287 284 281 281 281 279 283 286 286 290 293 295 296 297 296 297 296 293 293 292 292 292 292 291 292 292 292 291 290 291 287 286 285 286 285 285
288 288 289 289 289 289 288 285 284 282 281 278 282 282 283 283 287 288 291 293 295 297 295 294 292 292 291 289 289 290 290 290 291 291 291 290 290 286 284 284 285 285 285 284
283 285 287 290 286 286 287 283 277 275 274 277 282 280 287 289 289 291 293 293 293 292 292 292 291 291 289 287 287 288 289 289 290 289 290 290 289 287 287 285 286 285 284 283
280 282 285 288 288 285 284 284 278 271 274 281 280 280 288 290 292 291 289 290 291 291 291 290 291 290 288 287 286 288 288 288 288 288 289 289 289 288 288 286 287 286 286 285
280 281 285 287 287 289 282 281 285 280 271 272 282 285 292 288 289 288 289 287 288 289 289 289 290 289 288 287 286 286 286 288 288 287 289 288 288 288 287 285 285 286 285 285
286 282 286 284 286 285 285 286 280 279 275 270 280 280 284 288 292 294 289 288 288 289 289 290 290 289 288 287 286 286 286 288 287 287 288 288 288 287 286 283 284 285 284 284
291 288 286 288 284 285 282 282 282 283 282 279 277 282 293 291 288 287 287 288 289 291 292 291 291 291 289 288 286 286 286 286 287 287 287 287 286 287 286 284 284 284 283 283
290 289 284 285 288 286 285 285 285 281 279 281 283 283 295 295 295 294 295 295 291 290 291 291 291 292 291 288 287 287 286 286 287 287 286 286 286 286 285 285 284 284 283 282
291 285 282 284 284 285 285 288 288 288 286 281 278 281 294 295 294 296 295 292 292 292 293 293 291 291 292 291 289 287 288 288 287 286 285 286 285 284 285 285 284 283 282 282
296 290 286 281 284 288 283 285 287 287 283 282 283 285 290 292 293 295 296 297 296 293 291 289 290 290 290 290 289 289 288 287 286 285 285 285 285 284 285 285 284 282 282 281
290 284 286 286 287 286 285 284 287 286 287 283 285 286 290 293 292 290 288 289 288 288 288 288 288 288 287 287 288 289 289 287 286 285 285 285 285 285 285 284 283 282 282 281
286 279 282 280 283 283 282 286 286 285 285 286 286 286 284 282 281 280 281 281 281 282 284 285 285 287 287 287 287 287 288 288 285 284 285 286 285 284 283 283 282 281 280 280
280 279 276 274 279 278 274 279 281 283 284 281 279 277 280 278 277 278 280 280 281 282 283 284 283 284 285 286 286 286 287 286 286 284 285 283 283 283 283 282 281 280 279 279
278 276 274 271 272 263 275 280 278 278 277 278 277 276 279 278 279 280 283 280 281 282 283 284 283 284 284 285 285 285 285 285 284 283 284 280 281 282 280 279 279 279 278 277
280 277 265 264 263 273 277 275 272 271 273 277 275 276 277 279 278 278 281 282 281 282 283 283 284 284 285 285 284 284 283 283 283 282 282 279 279 280 278 278 277 277 277 276
278 279 275 271 266 263 272 275 279 277 270 278 278 277 276 277 270 274 280 281 281 282 283 282 283 284 284 284 285 283 283 282 282 282 281 278 277 276 277 278 276 277 277 276
262 260 261 261 267 269 274 276 276 266 266 277 277 278 278 275 276 279 280 280 280 280 281 281 281 281 282 283 283 282 283 283 283 280 276 275 275 276 276 274 274 275 275 275
265 260 258 257 255 260 276 274 270 273 278 279 278 276 275 276 277 276 277 277 277 277 277 278 278 278 279 280 280 281 281 284 282 277 275 276 277 273 274 274 274 274 274 273
265 269 265 267 266 276 277 276 279 279 278 277 276 276 276 274 274 274 274 274 274 274 275 276 276 276 276 277 278 278 279 280 282 281 277 276 277 276 276 276 274 274 274 273
273 276 271 269 275 275 277 278 278 280 277 277 276 274 274 273 274 274 273 273 273 273 273 274 273 271 272 274 274 274 274 276 279 280 279 277 275 275 275 275 275 274 273 273
273 273 270 271 275 276 277 278 278 277 277 275 275 274 273 273 272 272 271 271 271 272 272 271 270 269 269 270 270 271 272 272 272 274 277 278 275 274 273 274 274 274 275 275
276 273 271 270 276 275 276 278 276 275 274 273 272 271 273 272 270 270 269 270 270 269 269 268 267 267 266 266 266 266 267 268 268 269 271 276 276 274 273 273 272 278 278 278

GFSCGP_sfc_thetae_024.txt.gz
Theta_e
290 286 285 290 288 287 283 283 282 286 289 286 288 289 291 294 295 295 296 296 295 297 300 301 296 295 294 294 294 294 293 294 294 293 291 291 291 291 291 292 291 290 290 288
286 283 290 289 287 287 286 285 284 288 290 286 286 287 291 292 293 296 296 296 297 298 297 298 294 293 293 294 294 294 293 293 294 294 294 293 294 292 293 292 290 290 288 287
287 288 291 289 286 286 284 283 285 285 286 285 284 285 286 290 292 294 296 296 296 296 297 298 295 290 291 292 293 294 294 293 294 294 293 286 286 285 286 287 289 289 288 287
287 290 289 286 285 287 285 288 287 286 282 279 284 279 286 292 292 290 293 293 292 293 294 294 294 292 291 293 293 294 294 293 293 293 292 291 291 289 290 291 291 289 288 287
286 286 285 285 287 287 286 287 285 283 281 279 279 278 282 285 286 289 290 292 292 292 292 293 294 293 293 292 291 292 292 292 292 293 293 292 292 293 289 289 288 287 287 286
286 287 288 288 288 289 288 285 284 281 280 276 281 281 281 283 286 288 290 292 292 292 292 291 291 291 291 290 289 289 289 290 291 292 292 291 292 289 286 286 287 286 286 285
282 285 287 288 285 285 285 283 277 275 274 277 280 279 286 287 289 290 292 292 291 290 290 290 292 292 290 289 287 287 287 287 289 289 291 291 291 287 287 286 287 285 285 285
280 283 285 287 287 285 283 284 278 273 272 281 278 278 285 289 291 290 288 290 289 289 289 290 291 290 289 289 286 286 286 286 287 287 288 288 289 288 288 286 287 287 287 287
281 281 284 286 286 287 281 281 285 281 273 273 282 286 289 288 286 286 288 288 287 289 289 291 291 290 289 288 286 285 285 286 286 286 287 287 288 287 287 285 285 286 286 286
287 283 286 284 286 285 285 286 280 280 275 272 280 279 284 288 291 291 288 286 288 289 290 291 290 290 290 288 286 285 285 286 286 286 287 288 288 288 286 284 284 285 285 284
292 287 285 287 283 284 282 282 282 283 282 278 277 281 292 288 286 286 286 290 290 293 293 291 291 290 290 290 288 285 285 285 285 285 285 286 286 285 284 284 285 285 285 284
292 290 284 286 290 288 287 286 286 282 279 280 282 282 294 293 293 291 290 289 288 288 287 288 288 288 288 287 288 289 288 286 286 286 285 284 284 283 284 285 284 285 284 284
291 287 282 281 283 285 284 286 287 287 286 281 278 281 294 294 293 283 284 285 285 285 285 286 286 286 287 287 287 287 288 288 289 285 284 284 284 283 285 285 285 284 284 283
295 289 285 281 284 286 283 286 287 285 279 281 281 284 289 285 282 280 281 281 282 283 283 284 284 284 285 286 287 286 286 287 287 287 284 284 283 284 285 286 284 283 284 283
289 283 286 285 284 283 283 282 282 281 282 278 281 283 286 279 278 279 282 281 281 281 282 282 283 283 284 284 285 286 286 286 286 285 285 285 285 285 285 284 283 283 283 283
284 276 280 277 280 280 278 280 280 280 280 281 283 281 279 279 280 279 281 280 279 280 282 283 283 283 283 283 284 284 285 285 285 284 284 285 285 284 283 283 283 282 281 282
278 274 269 270 277 273 269 274 276 277 278 277 275 274 277 276 277 278 279 281 280 279 280 281 282 282 282 283 284 283 284 285 284 284 284 284 284 283 283 282 281 282 281 281
276 274 268 268 264 257 273 277 276 276 275 276 275 275 276 277 278 278 280 279 278 279 280 281 281 282 282 283 283 284 284 283 283 283 284 284 283 282 282 280 281 281 281 281
278 275 263 261 257 270 274 273 271 270 271 274 275 278 278 278 277 275 279 280 279 279 280 280 281 281 281 281 281 281 281 281 281 282 283 282 281 281 281 280 279 280 280 279
277 277 272 259 265 259 270 272 276 275 262 272 273 273 272 276 267 272 277 279 279 280 280 279 280 279 279 279 280 279 278 278 279 281 282 283 281 279 278 279 278 279 279 279
259 258 264 264 261 264 273 275 276 262 265 272 274 275 276 274 273 277 278 277 278 278 278 278 277 276 278 279 279 277 276 276 278 280 278 278 280 281 279 277 274 274 277 277
266 259 256 253 255 257 273 273 268 272 277 275 277 277 276 276 277 277 276 276 275 275 275 275 274 275 276 277 276 274 274 276 277 275 275 276 280 282 280 276 275 276 276 274
264 268 262 265 264 274 274 276 279 279 277 277 277 278 276 276 274 275 274 274 275 274 274 274 272 272 273 274 273 271 273 273 272 272 272 273 273 275 280 277 276 275 275 273
273 275 271 271 274 275 277 279 278 278 277 279 278 275 275 273 274 274 274 274 273 273 272 272 271 270 270 271 271 270 270 270 268 268 268 270 270 273 277 277 277 276 275 274
273 273 270 272 275 276 277 278 278 279 278 276 275 275 273 272 272 273 272 271 271 271 271 271 269 269 268 269 268 267 267 266 265 265 265 266 268 269 272 277 276 276 276 277
276 274 271 270 276 275 276 279 277 276 275 273 272 271 272 272 270 270 269 269 269 268 269 267 267 266 265 265 264 264 264 263 262 262 263 264 266 266 269 272 275 279 280 280

GFSCGP_sfc_thetae_027.txt.gz
Theta_e
291 287 285 289 289 286 284 283 282 285 289 287 289 289 291 293 293 294 295 296 296 297 300 301 299 299 298 297 297 297 295 298 300 300 297 296 296 297 297 298 297 296 296 294
287 284 289 289 287 287 286 285 284 288 290 286 286 288 292 293 294 295 296 296 296 296 297 297 297 297 297 297 296 297 296 296 297 299 299 299 299 298 297 297 296 296 295 294
286 288 290 288 286 286 284 283 285 284 286 286 284 285 287 290 291 294 295 296 296 295 295 296 296 295 296 295 295 296 296 295 296 298 297 291 293 292 293 293 293 293 294 293
286 289 289 285 285 287 284 287 287 285 283 280 285 279 286 292 293 293 293 293 292 293 294 295 294 294 294 296 296 295 295 295 295 296 295 294 295 293 294 295 294 293 293 292
286 286 285 285 287 287 286 286 285 284 282 281 281 279 283 286 287 290 293 293 293 294 294 293 294 294 294 294 294 294 294 294 294 295 296 294 295 295 292 294 293 292 291 292
286 288 288 288 287 288 287 285 284 281 281 276 281 281 281 285 287 288 292 292 292 292 292 293 294 294 293 293 292 292 292 292 293 293 294 293 294 293 290 290 291 290 290 289
283 284 287 288 285 287 287 283 278 276 275 278 281 279 284 288 289 290 291 292 291 291 291 292 293 293 293 292 291 290 290 290 291 292 292 292 293 293 291 290 291 289 289 289
279 283 284 287 287 286 284 285 280 275 273 282 279 279 284 289 291 289 290 290 290 291 291 291 291 290 290 290 290 289 288 288 289 290 290 291 292 292 291 290 291 290 290 290
285 284 284 286 286 287 283 282 287 281 276 274 281 285 289 288 289 289 288 290 288 288 288 288 288 288 288 288 288 288 287 288 288 288 288 289 289 290 290 289 290 290 290 290
288 283 287 286 285 285 286 287 281 281 275 274 280 280 283 288 290 287 285 286 287 287 287 287 287 287 288 288 288 289 289 288 288 288 288 288 288 289 289 287 287 288 289 289
290 288 286 288 283 284 283 282 283 283 284 278 277 281 289 286 282 282 284 285 284 284 284 285 285 286 287 288 288 287 287 288 288 288 288 287 287 287 287 286 287 287 287 287
293 290 284 287 291 288 287 285 285 282 280 281 282 282 294 285 284 282 281 282 283 283 283 284 284 285 285 286 287 287 287 287 287 287 287 287 286 286 286 286 286 286 286 286
292 286 281 281 283 285 284 286 287 288 286 282 279 281 291 290 283 281 280 281 281 282 282 283 284 284 284 284 285 286 286 286 286 286 286 286 287 286 285 286 286 286 286 285
294 287 284 280 283 285 283 286 286 285 279 280 280 281 285 287 282 279 281 281 281 281 282 282 283 283 284 284 284 285 285 285 285 285 285 285 285 286 286 286 286 285 285 285
288 282 284 285 286 282 281 280 281 279 280 277 279 279 283 281 278 279 280 281 282 282 280 282 282 283 283 283 283 284 285 284 285 284 284 284 285 285 285 285 286 285 284 285
284 277 278 272 279 280 277 278 278 279 279 279 280 279 279 279 279 278 278 279 279 280 279 281 282 282 281 281 282 283 283 282 283 283 283 284 284 284 284 284 284 284 284 283
278 276 272 272 277 272 270 273 276 276 276 276 274 274 273 274 277 277 276 278 279 278 279 280 280 280 280 280 280 280 281 281 281 281 282 283 283 282 282 282 283 282 283 283
277 274 266 266 262 256 273 275 276 276 277 274 271 271 274 276 277 278 279 278 278 279 279 280 280 279 280 280 279 280 280 279 279 279 280 281 282 281 280 280 281 282 282 282
278 274 261 259 256 267 272 273 271 271 270 273 271 274 276 278 277 275 279 279 278 279 280 280 281 280 279 279 279 278 278 278 277 277 278 279 279 276 277 278 280 280 281 281
276 276 269 253 257 255 269 271 275 273 263 267 269 271 272 276 267 272 276 278 278 279 278 278 278 278 277 277 277 276 276 276 275 276 276 278 276 275 275 278 281 281 280 280
259 260 267 267 264 265 273 275 275 261 265 272 271 274 274 273 275 278 278 277 277 277 277 277 276 275 275 276 275 274 275 273 274 275 275 273 274 274 275 277 276 278 279 279
265 258 255 253 254 258 271 273 268 272 276 275 275 276 276 277 278 279 278 277 276 275 276 276 274 274 275 275 274 272 272 274 273 272 271 270 270 271 272 271 273 276 278 277
265 268 264 265 264 273 274 275 278 279 277 278 277 277 277 277 277 277 274 274 275 274 275 275 273 273 273 273 273 270 271 272 271 269 267 267 268 268 269 269 270 273 277 276
272 274 270 271 274 274 277 278 279 279 278 279 278 277 276 275 275 274 274 274 274 273 272 272 271 270 270 271 271 270 270 269 266 265 265 265 265 265 266 268 269 270 273 276
274 272 270 271 275 276 277 278 279 279 279 276 275 275 274 273 272 273 271 271 271 270 270 270 269 268 268 268 267 267 266 265 263 263 263 262 263 263 264 266 267 269 272 276
276 274 271 270 276 276 276 278 276 276 274 272 271 271 272 271 270 269 268 268 268 267 267 265 265 264 264 263 263 263 263 262 260 260 260 260 261 262 263 263 264 270 273 276

GFSCGP_sfc_thetae_030.txt.gz
Theta_e
299 295 292 296 297 297 294 292 291 295 298 294 294 295 297 299 299 300 301 302 304 304 306 306 306 307 307 307 307 307 306 306 308 309 310 311 310 311 311 312 311 309 307 304
294 291 297 297 295 293 293 291 291 295 297 293 294 293 296 298 299 300 300 302 303 303 304 305 305 306 306 305 305 305 305 305 305 307 309 309 308 309 309 310 309 308 306 304
294 297 296 294 293 291 293 291 292 292 294 294 292 293 294 299 298 300 301 301 301 300 302 303 303 303 303 303 303 302 303 304 304 305 306 306 304 305 304 305 305 304 304 303
294 296 293 291 291 293 290 296 292 290 289 286 292 286 294 298 299 300 300 299 300 301 301 301 301 300 300 300 301 301 302 302 301 302 303 303 301 300 302 302 303 303 302 302
294 291 290 291 292 293 291 292 291 290 289 287 289 286 294 295 293 297 297 298 299 299 298 297 297 297 297 298 298 299 300 300 300 300 301 301 301 302 303 302 302 301 300 300
293 294 293 294 293 293 293 292 291 289 288 284 291 288 290 293 294 296 296 296 296 295 295 295 295 295 294 295 296 297 297 296 298 299 299 300 299 299 300 298 298 299 298 298
295 296 293 293 291 291 291 289 284 285 284 285 287 287 290 296 296 294 293 293 293 293 293 292 292 292 292 292 293 294 294 293 295 296 297 298 298 298 298 298 297 297 297 296
288 287 290 292 292 292 289 290 284 280 282 286 291 286 292 297 293 294 294 293 293 292 292 291 291 291 292 291 292 292 292 292 292 293 294 295 296 297 298 298 297 297 297 297
288 288 292 290 292 292 288 286 292 285 286 281 287 292 294 293 291 292 291 292 290 290 290 290 290 290 290 291 291 291 291 291 291 292 292 293 294 294 295 296 297 297 297 297
291 286 294 292 291 291 291 293 285 286 278 277 284 287 288 289 288 290 289 288 288 289 289 289 289 289 290 290 291 291 291 290 290 290 291 291 292 292 293 293 293 294 295 295
292 290 290 292 289 289 287 285 286 286 284 280 279 284 293 290 288 288 287 287 287 287 287 288 289 289 289 289 289 289 289 288 288 289 289 290 291 291 292 291 292 292 293 293
293 291 285 288 295 294 291 289 289 283 281 284 283 284 295 289 287 286 284 284 286 286 287 287 287 287 287 287 288 288 288 288 287 288 288 288 289 290 289 290 291 291 291 291
293 288 283 285 289 290 288 290 289 290 288 283 281 284 290 288 284 284 283 283 284 284 284 285 286 286 286 286 286 286 287 286 286 287 287 286 287 288 287 287 288 290 290 290
294 287 284 280 283 287 285 286 286 284 280 282 282 283 287 289 288 284 283 282 283 283 282 283 284 284 285 285 284 284 285 285 285 285 285 285 285 286 286 286 286 287 288 288
289 283 285 285 287 286 284 283 283 281 282 277 281 281 284 286 281 280 280 281 283 283 281 281 282 283 283 283 283 284 284 284 284 283 283 283 285 286 286 285 285 285 286 286
284 280 281 278 282 282 279 280 280 280 280 279 280 280 286 281 282 281 280 280 280 281 281 282 282 282 282 282 282 282 283 283 283 282 282 282 283 284 284 283 282 283 284 285
280 279 278 274 280 277 273 277 280 281 282 281 276 279 279 278 280 280 280 280 280 281 281 281 282 283 283 283 283 282 282 283 282 281 281 281 282 282 282 280 280 281 282 284
278 278 277 273 271 266 277 280 280 278 280 279 278 278 280 280 280 282 283 282 281 282 282 282 283 283 283 284 283 283 282 281 281 281 280 280 280 280 280 278 278 279 282 283
281 277 273 269 270 273 275 277 276 275 276 280 279 279 279 280 281 280 283 283 283 283 283 284 283 283 282 282 282 281 280 280 279 279 279 279 279 278 277 275 276 278 281 281
278 279 274 264 266 265 274 277 278 277 271 276 277 278 278 279 273 277 283 284 283 283 284 282 282 281 281 280 279 278 278 278 277 278 278 278 278 276 274 275 275 276 278 277
271 271 270 271 268 272 278 278 279 269 272 279 279 279 279 277 280 283 284 283 284 283 282 281 281 279 279 279 278 276 276 276 277 277 277 276 276 274 274 273 274 273 273 274
271 269 268 266 265 265 277 276 273 279 280 281 281 281 280 281 281 282 282 282 283 280 279 279 278 277 278 277 276 274 274 276 276 275 274 273 272 272 272 270 270 270 271 271
269 274 272 270 272 278 279 280 282 283 281 281 281 282 281 280 280 281 281 279 278 277 277 277 275 274 275 275 274 272 273 273 271 269 268 268 269 269 268 268 268 268 269 270
276 278 273 274 277 278 280 282 283 283 282 283 283 282 280 279 279 276 276 276 275 274 273 273 272 270 270 271 270 269 269 268 266 265 265 265 265 265 266 266 267 267 267 268
277 277 274 274 277 279 280 281 282 282 283 281 277 277 276 275 274 274 273 271 271 271 270 269 268 267 266 267 266 265 264 263 262 262 262 262 263 262 263 264 265 265 267 268
278 276 273 272 278 278 279 282 283 280 280 276 274 273 273 271 271 270 269 269 268 267 267 265 265 264 263 262 262 262 262 261 260 260 260 261 261 261 262 262 262 266 268 270

GFSCGP_sfc_thetae_033.txt.gz
Theta_e
301 296 294 298 300 299 297 295 294 297 300 298 297 297 299 302 302 303 304 305 305 305 307 307 307 308 308 308 308 308 309 310 310 312 314 315 316 318 318 319 319 318 315 313
296 293 299 301 300 296 295 293 293 297 300 298 296 295 298 300 302 303 304 304 304 304 304 304 303 304 303 303 304 305 306 307 307 310 312 313 313 315 315 316 316 315 314 311
295 299 302 297 296 294 295 294 294 293 296 297 295 293 297 302 305 303 302 303 303 301 300 300 299 299 300 300 301 302 303 305 305 306 308 309 310 308 308 310 312 312 312 310
297 298 295 295 293 295 291 297 295 293 291 287 294 285 295 300 301 298 299 299 299 299 298 298 297 296 297 299 301 301 301 302 302 304 304 304 304 302 304 306 308 309 309 308
294 294 293 292 294 296 292 295 293 292 290 290 291 288 294 300 296 296 297 297 297 296 296 295 295 295 296 297 298 299 299 299 300 302 302 302 301 303 304 305 306 306 306 306
295 298 296 296 296 296 296 293 293 294 291 286 292 292 292 294 294 294 295 295 295 295 295 295 295 295 295 296 297 297 296 296 298 298 299 300 300 300 300 301 302 302 303 302
296 296 302 297 294 296 292 290 287 286 286 286 291 291 293 297 295 296 294 294 294 295 294 293 293 294 294 294 294 294 294 293 295 296 296 297 297 298 298 299 300 300 300 300
290 288 296 295 294 293 292 292 287 280 282 286 292 286 293 296 295 296 295 294 294 293 293 292 292 292 292 293 293 293 293 291 292 293 293 295 295 296 297 297 298 298 298 299
290 289 295 293 294 294 292 288 294 287 286 283 287 292 298 294 293 294 294 293 292 291 291 291 291 291 291 291 291 291 291 291 291 291 292 292 293 293 293 294 296 296 297 297
293 287 296 295 293 293 290 292 286 286 278 278 284 287 289 291 291 292 291 290 290 290 290 290 290 290 290 290 291 291 290 289 289 290 290 291 291 292 292 293 293 293 294 295
296 290 291 294 291 290 289 286 287 287 286 280 279 284 295 291 293 291 289 288 288 289 289 289 289 289 289 289 289 289 289 288 287 288 289 289 289 290 290 290 290 291 292 292
295 291 285 288 294 296 294 290 290 283 282 284 283 284 298 291 291 289 287 287 287 287 286 287 287 287 287 287 286 286 287 286 286 287 287 287 287 288 288 288 288 288 288 289
294 288 282 283 287 291 289 290 289 289 286 282 281 284 294 292 288 286 286 285 285 285 284 285 286 285 285 285 285 285 285 285 286 285 285 285 285 286 286 286 286 286 286 287
294 288 284 280 282 288 285 287 288 286 281 282 282 284 288 290 290 291 287 285 285 285 283 283 283 284 285 285 284 284 284 285 285 285 284 284 284 284 285 286 285 284 285 285
291 282 285 285 286 286 284 283 284 283 284 280 282 283 286 288 287 284 283 282 283 284 284 282 283 283 284 284 284 284 284 285 285 283 283 283 283 284 284 284 283 282 282 283
286 280 282 278 283 282 280 283 283 283 283 282 282 282 289 286 285 284 284 282 281 282 283 283 283 284 284 284 284 284 284 284 284 283 282 283 282 282 282 282 282 281 281 281
282 280 278 274 279 279 274 278 280 281 283 282 278 281 282 281 281 281 281 282 281 282 283 283 283 284 284 284 285 284 284 284 283 282 282 282 281 281 281 280 280 279 279 280
280 279 278 274 275 267 278 283 281 279 280 282 281 280 280 280 281 282 283 282 282 283 283 284 284 284 285 285 284 284 284 283 282 281 281 281 281 280 280 279 278 278 278 278
282 279 275 271 271 275 276 279 278 277 277 282 281 280 279 280 281 280 284 285 284 284 284 285 286 285 284 283 283 281 280 280 280 279 279 279 280 279 278 276 276 277 276 276
279 280 276 272 267 265 275 279 280 279 272 281 281 280 279 279 274 278 283 285 284 285 286 285 285 283 282 281 281 279 278 278 277 278 278 278 278 277 276 276 275 276 275 275
273 273 271 272 270 273 279 280 280 270 273 281 281 280 280 278 280 283 284 284 285 285 285 284 282 280 280 279 278 276 276 275 276 276 276 275 275 274 274 274 274 273 272 272
272 271 270 271 268 266 280 278 274 279 282 282 282 282 281 282 283 283 283 283 283 282 281 280 278 277 277 276 275 273 272 274 273 271 270 269 269 269 270 269 269 269 269 268
270 275 273 273 273 280 281 281 283 283 282 282 282 283 283 282 281 282 282 282 280 279 277 277 274 273 274 273 272 269 270 270 268 265 264 264 265 265 265 265 265 265 266 265
277 280 275 275 277 279 281 283 283 283 283 284 284 283 283 281 281 279 278 277 276 275 274 273 271 270 269 269 269 267 267 266 263 261 262 262 262 262 263 263 263 263 263 263
278 279 276 276 278 280 281 282 282 283 283 283 283 281 280 279 277 276 275 274 273 272 271 270 268 267 267 267 266 265 264 263 261 261 261 261 261 261 262 263 262 262 264 264
279 277 275 273 279 279 280 283 283 282 282 282 281 277 276 274 274 273 271 271 270 269 268 266 266 265 264 263 263 263 262 262 260 260 260 261 261 261 262 261 261 266 267 269

GFSCGP_sfc_thetae_036.txt.gz
Theta_e
298 292 289 293 295 295 292 291 290 293 297 294 294 294 295 298 298 298 298 297 298 298 299 299 299 299 299 299 300 301 301 303 304 306 306 308 309 311 312 313 313 313 312 310
294 290 296 298 297 294 293 290 289 293 297 293 292 291 295 297 297 297 296 297 297 296 296 296 296 296 296 297 297 299 300 300 301 302 305 305 306 307 309 310 311 311 310 308
292 296 300 297 294 293 292 290 290 289 292 293 290 288 291 296 297 297 297 296 295 294 293 293 293 293 294 294 295 296 297 298 299 300 301 301 302 301 299 302 305 307 308 306
295 296 295 293 292 293 288 294 291 290 286 282 289 279 288 294 292 294 293 292 292 292 292 292 292 291 292 293 294 294 295 296 298 298 298 297 297 296 297 299 302 304 305 304
292 292 291 291 292 294 291 292 290 289 286 284 286 282 287 293 289 290 291 291 291 291 291 291 291 292 292 292 292 292 293 293 294 295 295 295 295 296 296 296 297 298 300 301
293 294 293 294 295 293 294 289 289 288 286 279 287 286 286 287 290 289 291 291 291 291 291 291 292 292 291 291 290 290 290 291 292 293 293 293 292 292 293 294 294 294 296 297
292 292 294 296 291 292 289 286 281 279 278 279 288 285 288 290 291 291 290 290 290 291 289 290 289 289 290 290 290 290 289 289 290 290 291 291 291 291 291 291 291 292 293 293
287 284 291 292 291 288 288 288 282 275 276 279 286 281 289 291 292 292 292 290 290 289 289 288 288 288 288 289 288 289 288 288 288 288 288 289 290 290 290 290 290 291 292 292
287 287 291 291 290 290 287 285 289 284 284 281 283 287 289 291 290 290 290 288 287 287 288 288 287 287 287 287 288 288 287 287 287 288 288 287 288 288 288 288 289 289 289 291
292 286 293 291 290 289 287 289 284 284 276 270 279 280 284 287 288 289 288 286 287 287 287 287 286 286 286 286 286 286 286 285 286 287 287 287 286 287 286 286 285 285 286 288
294 289 288 290 288 288 286 285 285 285 282 276 276 279 288 288 289 286 285 286 286 286 285 286 286 287 286 284 284 285 285 284 284 285 285 285 286 286 286 285 284 283 284 284
294 290 282 285 291 292 289 287 288 282 280 281 282 281 288 287 286 286 286 287 286 286 283 283 284 285 284 283 283 283 284 283 283 284 284 283 284 284 284 284 284 282 283 283
292 285 278 279 284 289 286 287 288 287 285 280 278 280 291 287 286 287 288 287 285 284 282 282 283 283 283 283 283 283 283 283 284 283 282 282 281 281 281 282 283 282 282 281
294 287 280 274 279 284 279 282 284 282 279 278 279 280 285 287 286 286 287 288 283 283 282 281 282 282 282 283 282 281 281 282 282 281 281 280 280 280 280 281 281 281 280 279
290 280 281 283 284 282 280 280 282 280 281 276 278 278 283 285 283 281 280 280 280 281 282 281 280 282 282 281 281 281 281 281 281 281 280 279 279 280 279 279 280 280 279 278
286 272 277 270 279 280 278 280 280 280 280 280 280 279 286 281 281 281 281 280 279 279 280 281 281 281 281 282 281 282 281 281 280 279 279 279 279 280 280 279 279 279 279 278
280 275 267 264 276 274 267 275 278 279 281 280 275 279 277 277 278 278 278 279 279 280 280 280 280 281 281 281 282 281 281 281 280 280 279 279 279 278 279 279 279 278 277 277
278 274 271 264 267 259 274 279 277 275 277 276 275 274 275 276 277 278 279 279 279 280 280 280 280 280 281 281 280 280 279 278 278 277 277 278 278 277 278 278 277 277 277 276
281 277 268 264 262 271 275 276 273 272 272 276 275 277 278 277 277 276 280 280 279 280 281 281 281 281 280 279 278 277 277 277 277 277 277 277 276 275 276 275 275 276 275 275
277 278 272 261 261 257 270 274 278 276 266 272 272 272 274 276 268 273 279 281 281 282 281 281 279 279 278 277 277 276 275 274 274 275 275 274 273 272 271 272 272 272 272 273
265 264 267 269 267 267 275 277 278 264 268 276 275 276 276 274 275 279 281 280 281 280 279 278 277 276 276 276 274 273 272 271 272 271 271 270 269 267 267 267 267 267 267 268
267 264 262 262 259 262 276 275 271 275 279 279 278 278 277 278 279 279 279 279 278 277 276 276 273 274 273 273 271 269 268 270 269 268 267 265 264 264 264 263 263 263 263 263
266 271 266 269 267 277 277 277 280 280 278 279 279 279 279 278 278 278 278 277 276 274 275 273 270 270 271 270 268 266 267 267 266 263 261 261 262 262 262 261 261 261 261 261
274 276 270 271 275 276 279 280 280 280 280 280 280 279 278 278 279 278 276 276 275 273 272 270 268 267 267 266 267 263 265 265 262 260 260 261 260 260 261 261 262 261 260 260
274 275 272 273 276 278 279 280 281 281 281 281 281 280 279 278 276 276 274 272 272 271 270 268 266 266 265 265 264 261 263 261 260 260 260 260 260 260 260 261 261 261 263 263
278 275 273 272 277 277 278 280 280 279 279 279 278 277 276 276 275 273 271 271 269 267 266 265 265 263 262 261 261 261 259 258 259 259 259 259 259 259 260 259 260 265 267 269

GFSCGP_sfc_thetae_039.txt.gz
Theta_e
294 289 286 289 290 290 289 287 286 289 294 290 290 290 293 296 293 293 292 293 292 292 293 294 294 294 295 295 296 297 298 298 300 303 305 306 307 309 310 311 312 314 315 314
290 287 293 294 294 292 289 287 286 290 293 290 289 289 293 294 292 292 292 291 291 291 291 292 292 292 292 292 293 294 295 297 298 299 300 302 302 301 305 307 309 310 311 311
288 292 296 295 292 290 289 287 287 288 289 290 286 285 288 291 292 292 292 291 291 289 289 290 290 290 291 290 290 292 293 294 295 297 299 298 299 298 297 297 302 305 306 306
292 296 294 291 290 291 286 291 290 289 284 280 286 279 286 288 288 289 289 288 288 288 289 290 289 289 289 289 290 291 292 292 294 294 294 294 293 293 294 295 296 299 301 302
290 290 289 288 290 292 288 290 288 287 284 281 283 279 284 288 286 287 287 288 288 288 288 288 289 290 289 289 288 289 289 291 291 292 292 291 291 292 292 293 293 294 296 298
290 292 291 291 293 292 291 288 287 285 283 277 283 283 283 285 287 287 288 288 288 287 287 288 289 289 288 288 287 288 288 288 289 290 290 290 289 289 289 289 290 291 292 294
289 289 291 294 289 290 289 284 279 277 276 278 285 283 286 287 289 289 287 286 286 286 286 286 286 286 287 286 286 287 287 286 288 288 288 288 288 288 288 288 288 288 289 289
285 284 289 291 290 288 286 286 280 272 275 277 284 280 286 288 289 289 288 287 286 286 286 285 286 286 286 286 285 285 285 285 286 286 287 287 287 287 287 287 287 286 287 288
285 285 289 289 289 290 286 284 288 281 283 280 281 285 288 288 287 286 285 285 284 285 285 285 285 285 285 285 285 285 285 285 285 285 285 286 286 287 286 285 286 285 285 287
289 283 290 288 289 288 287 288 282 281 272 273 278 279 281 284 285 285 284 284 284 284 285 285 285 285 285 284 283 285 284 283 284 285 284 284 284 285 285 284 284 283 284 285
291 287 285 289 286 286 284 283 284 286 283 277 271 278 287 287 286 283 283 285 285 285 284 285 285 284 284 284 283 283 282 283 283 283 284 284 283 283 284 283 283 283 283 283
292 288 278 284 289 289 288 286 285 278 277 278 279 280 288 286 285 286 285 286 285 286 284 283 284 284 284 283 283 281 282 282 282 282 283 282 283 282 283 284 283 282 282 282
291 283 272 276 282 286 284 286 286 286 283 275 275 277 286 285 286 287 288 286 284 283 281 282 283 283 282 282 282 280 281 281 282 282 281 280 280 280 280 281 281 282 281 281
293 285 277 274 277 282 278 281 282 279 272 271 275 277 284 285 282 284 285 286 282 281 279 279 279 279 280 280 280 279 280 281 281 281 281 279 279 279 280 280 279 279 280 279
288 277 281 281 281 280 279 279 280 279 280 273 277 277 281 283 280 279 279 281 281 281 280 279 279 279 280 280 280 280 280 280 280 279 279 279 279 280 280 279 279 279 278 279
284 272 276 269 279 279 277 278 278 278 279 278 279 278 285 279 280 279 279 279 278 278 279 280 280 280 280 280 280 280 280 280 280 278 279 280 280 280 279 279 279 279 279 278
280 274 267 265 276 272 267 273 277 278 279 278 274 278 274 277 279 277 277 278 278 279 279 279 279 279 279 279 280 279 279 279 278 278 278 278 278 278 278 278 278 277 277 277
278 273 267 262 262 257 273 277 277 276 278 275 273 271 276 276 277 278 278 277 278 278 279 279 279 279 280 279 278 278 278 277 277 275 275 276 276 275 276 275 275 274 275 274
280 277 265 263 258 267 274 275 274 273 271 273 272 275 277 276 275 274 278 279 279 279 280 280 280 279 278 277 277 276 276 276 275 275 274 274 272 271 271 270 270 270 270 270
277 278 273 255 259 258 270 272 276 275 266 269 268 269 273 275 268 271 278 280 280 281 280 279 278 277 277 275 275 274 273 272 272 272 272 271 270 267 267 267 266 266 266 267
262 262 270 270 265 265 274 276 277 264 268 271 272 275 275 273 274 277 279 279 280 280 278 277 276 275 274 274 273 271 271 269 271 269 269 268 267 265 264 264 264 263 263 264
267 263 260 258 258 261 275 274 271 274 279 277 278 277 276 277 278 278 279 278 278 277 276 275 273 273 272 272 270 269 268 269 268 267 265 263 262 262 263 261 261 261 261 260
266 269 265 268 267 275 276 276 279 279 278 279 279 279 278 277 277 278 277 277 277 275 275 272 270 270 270 269 267 264 266 266 265 259 259 260 261 261 261 260 260 260 260 260
273 275 270 270 274 276 277 278 279 279 279 280 279 279 278 277 278 278 277 277 276 273 272 270 268 267 266 265 266 262 264 264 255 254 258 260 260 260 260 261 261 260 259 259
273 273 271 272 276 276 277 278 279 279 279 279 279 278 278 277 277 278 276 273 273 272 270 268 266 266 264 263 261 259 261 257 257 258 260 260 260 259 260 260 260 261 262 263
277 275 273 271 277 276 277 279 279 278 278 279 278 277 278 278 276 274 271 271 270 268 267 266 265 263 261 258 258 256 255 254 255 258 259 259 259 260 260 259 259 265 267 268

GFSCGP_sfc_thetae_042.txt.gz
Theta_e
293 288 285 288 289 288 286 285 285 288 292 289 289 289 292 292 290 289 289 289 289 289 291 291 291 291 291 291 292 293 294 295 298 300 303 305 305 307 311 312 313 316 317 315
289 286 292 292 291 289 288 286 285 289 292 289 288 288 288 290 290 289 288 288 288 288 288 289 289 289 289 289 291 291 292 293 294 297 297 298 298 297 298 300 306 308 311 312
287 291 294 292 291 290 288 287 286 288 288 287 285 285 286 289 289 289 289 288 288 287 287 288 288 288 288 287 288 290 291 292 292 294 295 295 296 295 295 296 296 299 302 303
290 294 293 290 290 291 286 290 289 287 284 280 285 279 284 287 286 287 286 285 285 286 287 288 287 287 287 286 287 288 289 290 291 292 292 291 290 289 290 291 292 294 295 295
290 289 289 289 290 291 288 289 287 286 282 281 281 279 282 286 284 284 284 285 285 286 286 286 286 287 286 286 286 286 288 288 289 289 290 289 288 289 289 289 289 290 291 291
290 291 290 291 291 290 290 287 287 283 281 277 281 281 281 284 285 284 285 285 285 285 285 285 286 286 285 284 284 285 286 286 287 287 287 287 286 286 285 285 286 287 288 288
287 288 289 291 288 288 287 284 279 277 275 277 284 280 283 285 286 286 284 284 284 284 284 284 284 284 284 283 283 285 284 284 285 285 286 286 285 285 284 284 284 284 285 285
285 283 288 290 290 288 285 285 278 270 273 276 283 280 283 285 286 286 286 285 284 284 284 283 284 284 283 283 283 283 283 283 283 284 284 284 285 285 284 283 283 283 283 284
284 284 287 288 288 290 285 283 286 280 281 279 280 281 285 285 284 283 283 283 283 283 283 283 283 283 283 283 282 282 282 282 283 283 283 283 285 285 284 284 285 284 283 284
289 282 289 288 289 287 286 288 281 280 268 273 277 279 280 281 282 283 282 282 283 284 284 283 283 282 282 282 282 282 282 282 283 283 283 283 282 284 283 282 283 283 283 283
290 286 284 287 285 285 282 282 282 284 279 271 269 277 284 285 284 282 283 284 284 283 283 282 282 282 282 282 283 282 282 283 283 283 283 282 282 282 282 280 281 280 281 282
290 286 278 283 287 287 286 284 283 280 276 277 278 279 287 287 285 284 284 285 284 285 283 282 282 282 281 281 281 280 281 281 281 282 283 282 281 282 280 280 280 280 280 281
291 282 271 277 281 284 283 284 285 284 281 273 277 277 285 284 284 284 285 285 284 283 280 280 280 280 280 280 280 279 280 280 281 280 280 280 279 280 280 280 280 280 279 280
293 281 278 277 277 281 278 281 282 279 271 272 278 277 281 283 283 283 282 284 283 280 279 279 279 279 279 279 279 278 279 279 280 279 279 278 278 278 278 279 279 278 279 278
288 278 282 280 281 280 279 279 281 279 279 274 278 277 281 282 280 281 282 281 281 279 277 277 278 278 278 279 278 279 279 279 279 278 278 278 278 278 278 278 278 277 278 278
284 274 277 271 279 281 277 279 278 280 280 279 279 278 284 282 279 278 278 281 280 279 279 278 278 279 279 279 279 279 278 279 279 277 277 278 278 278 277 277 277 277 276 276
280 275 271 271 275 273 267 272 277 277 278 277 273 277 274 277 279 278 278 277 277 278 278 278 279 279 279 279 279 278 278 278 277 277 276 276 276 275 275 275 274 273 272 273
279 276 275 269 265 260 274 275 276 276 277 275 274 271 274 276 276 277 277 277 278 278 279 279 279 278 279 278 277 277 277 276 276 274 272 273 273 271 272 271 270 270 270 269
282 278 271 269 262 268 275 275 274 273 272 273 272 273 277 276 275 274 278 278 278 279 280 279 279 278 277 276 277 276 275 274 274 273 272 272 270 268 269 267 267 268 267 266
278 279 273 258 259 260 270 272 275 275 265 267 268 269 273 275 267 272 277 279 279 280 280 279 279 277 276 275 275 273 272 271 270 271 271 270 268 263 265 265 264 265 264 265
263 264 272 269 266 264 273 275 276 264 269 270 270 274 274 272 275 278 279 278 279 280 279 278 276 276 274 273 272 271 270 269 270 268 268 267 266 264 263 263 263 262 262 263
267 264 262 262 262 261 273 273 271 274 277 276 277 277 276 277 278 278 278 278 279 278 277 276 274 273 272 271 270 268 267 269 267 266 265 262 261 261 262 260 260 260 260 259
267 269 265 268 267 275 275 277 280 279 277 278 278 279 278 278 277 278 278 277 278 276 276 273 271 271 270 269 268 265 266 266 265 258 257 257 259 260 261 259 259 259 259 259
273 274 270 269 273 275 278 280 280 280 279 279 280 279 278 277 278 278 277 277 277 274 272 269 268 268 268 267 267 264 264 264 255 252 256 258 259 259 260 261 260 259 259 259
273 273 270 270 275 276 277 277 278 279 279 279 278 278 278 277 278 278 277 275 275 272 270 268 267 267 266 266 264 262 262 260 256 256 258 258 259 258 259 260 260 261 262 263
276 275 272 270 277 276 277 279 279 278 278 278 278 277 277 277 277 276 274 273 270 268 267 266 265 264 264 263 262 260 257 257 254 256 258 258 259 259 260 260 259 265 267 268

GFSCGP_sfc_thetae_045.txt.gz
Theta_e
291 286 285 288 289 287 286 284 284 286 291 288 288 289 289 290 288 287 286 286 286 286 288 289 289 288 289 290 291 291 292 293 296 296 298 301 298 299 300 303 304 307 310 313
288 285 291 290 289 288 286 284 284 288 290 289 287 288 287 288 287 287 286 285 286 286 286 287 287 287 287 287 289 290 291 291 293 294 294 296 294 294 297 297 297 298 300 302
287 291 293 291 288 288 286 285 285 287 287 286 284 284 285 286 287 287 286 286 286 285 285 285 285 285 285 285 286 288 289 290 291 292 293 293 293 292 292 292 293 293 293 293
288 292 291 289 288 290 285 290 288 287 283 280 284 278 283 285 284 284 284 283 284 284 285 285 284 284 284 284 285 287 288 288 289 290 290 289 287 286 287 288 289 289 289 289
289 289 288 288 289 291 288 288 287 285 282 280 280 279 281 284 282 282 283 284 284 284 284 284 283 284 283 283 283 284 286 286 287 287 287 286 284 285 284 285 285 286 286 286
290 290 290 291 289 290 290 287 285 282 281 276 281 281 280 282 283 283 283 283 284 284 283 284 284 284 282 282 282 283 284 284 285 285 285 284 283 282 282 282 282 283 284 284
286 287 288 290 288 287 287 285 279 276 275 276 280 279 282 284 284 285 283 283 283 283 283 283 282 282 282 281 281 283 282 282 283 284 284 283 282 281 281 281 281 281 282 282
283 283 288 290 289 287 285 285 278 270 273 276 282 279 284 283 284 285 285 283 283 282 283 283 283 282 281 281 281 281 282 281 281 281 282 283 283 283 282 282 282 282 282 283
284 284 287 287 287 289 284 282 285 279 270 275 279 282 283 283 282 282 282 282 282 282 282 282 282 282 281 280 280 280 281 281 281 281 281 281 282 283 283 283 283 283 283 283
288 282 287 287 288 286 286 288 281 279 268 268 276 278 280 280 281 281 281 282 282 283 283 282 281 281 281 280 280 280 280 280 281 281 281 280 280 280 280 280 280 280 280 281
289 286 283 286 285 284 283 282 282 283 277 270 268 275 283 284 283 282 282 283 283 283 282 282 281 281 281 281 281 281 280 280 280 280 280 280 280 280 279 279 279 279 279 280
290 285 278 283 285 285 284 284 283 280 276 276 277 278 285 285 285 284 283 284 283 283 282 281 281 280 280 280 280 279 280 279 280 280 279 279 279 279 279 279 279 279 278 279
291 282 273 278 281 283 282 284 283 282 279 274 273 277 285 283 283 283 283 284 284 284 281 280 279 279 279 279 279 278 279 279 280 279 279 279 279 278 278 278 279 278 278 278
293 282 279 279 279 282 279 282 283 278 272 274 279 279 280 282 283 283 283 283 284 283 280 279 279 279 279 279 278 277 278 279 279 279 278 278 278 278 278 278 278 277 277 277
288 280 280 280 280 279 280 279 281 279 280 277 279 279 281 284 283 283 283 281 283 280 278 279 278 278 278 278 277 278 277 278 278 277 278 278 278 278 277 277 277 277 277 276
284 275 278 279 279 281 279 280 281 281 281 280 280 280 286 282 282 281 281 280 282 280 278 278 278 278 278 278 278 278 277 278 278 277 277 277 277 277 276 276 275 274 273 272
280 277 276 277 275 274 272 275 278 279 280 281 278 282 275 278 279 279 279 278 280 280 279 278 278 278 279 279 279 277 277 278 277 277 275 275 274 273 273 272 271 271 270 270
280 279 277 272 270 268 277 275 277 277 278 275 275 273 275 277 278 278 278 278 277 278 278 278 278 278 278 278 278 277 277 276 275 272 271 272 271 269 270 269 269 268 268 268
281 279 270 273 267 273 277 275 273 273 273 275 276 275 277 276 274 274 277 277 277 278 279 279 279 278 277 277 277 276 275 274 273 272 272 270 268 266 267 265 266 266 266 265
280 281 279 265 266 265 272 272 275 276 267 269 271 271 273 274 268 273 276 278 278 279 279 279 279 278 277 276 275 273 272 271 270 271 270 269 267 262 262 264 264 264 263 264
268 271 273 269 270 268 274 275 276 266 269 271 271 274 273 272 275 277 278 277 279 279 279 279 278 277 275 274 272 271 270 269 269 268 268 267 265 262 262 261 262 261 261 262
268 267 267 266 267 264 274 274 272 275 276 275 274 276 275 277 278 278 278 278 278 278 278 279 275 274 272 272 271 269 267 269 267 267 265 263 260 260 261 256 259 259 259 259
268 271 267 269 268 275 275 277 279 279 278 278 277 278 278 277 277 278 277 277 278 278 277 274 273 271 270 269 268 266 267 266 265 263 258 257 259 259 259 256 258 258 258 258
272 273 269 270 273 274 277 278 279 279 278 279 279 279 278 277 277 277 277 277 277 275 274 271 270 269 267 266 267 264 265 265 261 260 258 259 258 257 257 260 260 259 258 258
273 273 270 270 274 275 277 278 279 279 279 278 278 278 278 277 277 277 277 276 276 275 271 271 270 269 266 265 263 261 262 262 260 259 259 258 257 256 258 260 259 260 262 263
275 272 271 269 276 276 276 278 279 278 278 278 277 276 277 277 277 276 275 275 273 271 268 268 266 265 263 261 260 259 260 258 258 258 259 258 258 258 259 259 259 264 267 269

GFSCGP_sfc_thetae_048.txt.gz
Theta_e
290 286 285 287 288 286 285 283 283 285 289 287 288 288 287 287 286 284 284 284 284 285 287 287 287 287 287 288 289 290 291 292 296 296 297 297 295 297 296 296 295 296 298 302
287 284 289 289 288 287 285 283 283 287 289 288 287 286 285 286 285 285 284 284 284 284 285 286 285 285 285 286 287 288 289 290 292 293 293 293 292 293 293 294 292 292 293 294
286 290 291 290 287 286 284 283 284 286 286 285 283 284 284 284 285 285 285 285 285 284 283 283 283 283 283 284 284 286 287 288 289 291 291 291 290 289 288 287 287 287 288 288
287 291 291 287 287 288 283 289 288 286 283 280 283 279 282 283 282 283 283 283 283 283 283 283 282 282 282 282 283 285 286 286 287 287 287 285 284 282 283 284 285 285 285 285
289 289 288 287 288 290 287 288 287 284 281 280 280 278 281 282 280 281 282 283 283 283 283 282 282 282 282 282 281 282 284 284 284 284 284 283 282 282 281 282 282 283 283 284
290 289 290 290 289 290 289 287 285 282 280 276 281 281 280 281 283 282 282 283 283 283 282 282 282 282 281 281 281 281 282 283 283 283 282 282 281 280 281 281 281 281 282 282
285 287 288 290 286 286 287 284 279 276 275 277 280 278 282 284 284 284 283 283 283 283 282 281 281 280 280 280 280 281 281 280 281 282 282 281 280 280 280 280 280 280 281 281
282 282 287 289 287 285 285 285 279 272 272 275 281 278 284 284 283 285 285 284 283 282 282 282 281 280 279 280 280 280 280 279 280 280 281 281 281 281 281 280 280 280 281 282
283 284 286 288 287 288 283 282 285 278 269 273 279 281 283 282 281 281 282 282 281 282 282 282 282 280 279 279 279 280 280 280 279 279 279 279 280 279 279 279 280 279 279 281
288 282 286 285 287 286 285 287 281 279 270 268 276 277 279 281 280 281 280 281 281 282 282 281 281 281 280 279 279 279 279 279 279 279 279 279 279 279 279 278 278 278 278 278
289 287 283 286 284 283 283 282 281 282 277 270 268 275 283 284 282 281 282 283 283 282 282 281 281 281 280 279 279 279 279 279 279 279 279 279 279 278 278 278 278 278 278 278
290 286 279 282 284 284 283 283 283 279 276 275 276 278 284 284 284 284 283 284 283 283 282 281 281 280 279 279 279 279 279 279 279 279 279 279 279 278 278 278 278 278 277 277
290 283 273 278 281 282 282 283 283 282 279 274 273 276 284 283 283 283 282 283 283 283 282 281 280 279 279 279 279 279 279 279 279 279 278 278 278 278 277 277 278 277 277 276
294 284 280 280 280 283 281 282 283 281 274 275 280 281 281 282 283 282 282 283 283 283 282 280 279 279 279 279 278 277 277 278 279 279 278 278 278 277 277 277 277 276 276 275
290 282 280 279 280 280 280 281 282 280 283 279 282 281 282 285 285 284 283 282 282 282 281 280 280 279 278 278 278 277 277 277 277 277 277 277 278 277 277 276 276 275 274 273
285 278 278 273 280 280 279 281 281 283 280 280 280 280 283 283 283 282 283 282 281 282 281 280 280 279 279 279 278 278 277 277 277 276 277 278 277 276 276 275 273 272 272 271
283 279 275 275 276 277 278 279 280 280 281 281 278 284 277 279 281 282 282 281 280 282 282 279 279 279 279 278 279 277 277 277 277 277 276 275 274 273 273 271 271 270 269 269
280 280 280 271 272 271 278 274 277 281 282 281 276 276 278 279 279 279 280 279 280 280 280 279 278 277 278 278 278 277 277 277 276 274 271 272 271 269 270 269 268 267 267 267
282 281 273 272 271 276 276 274 273 275 274 277 278 278 278 277 276 275 278 278 278 278 278 278 278 278 277 277 277 277 275 275 273 272 271 269 268 266 266 263 266 266 265 265
281 281 282 269 271 270 273 272 276 277 272 275 277 276 275 274 268 272 276 278 278 278 278 279 278 278 277 277 276 274 273 272 271 271 271 269 267 262 262 264 263 263 262 264
273 274 277 271 274 272 275 275 276 269 272 270 272 275 274 273 274 277 278 277 278 278 278 278 278 278 277 274 273 273 271 270 270 268 267 267 265 261 261 260 261 259 259 262
272 272 269 271 270 270 275 275 273 276 276 275 274 275 275 277 277 277 278 278 277 277 278 278 275 275 273 273 273 271 270 269 267 266 266 263 261 261 262 254 256 256 255 256
270 273 270 274 273 275 276 278 279 279 277 276 276 277 277 277 276 277 277 277 277 276 277 274 274 273 270 270 270 269 268 267 265 261 260 260 261 261 261 255 259 258 255 255
272 273 271 272 274 275 277 278 278 279 279 279 279 278 277 276 277 277 276 277 277 275 275 273 271 271 270 267 268 265 266 265 258 256 259 261 261 261 260 261 260 256 255 257
274 274 270 271 274 275 276 277 279 279 279 278 278 278 278 277 276 277 276 275 276 276 272 271 271 272 270 267 264 261 262 260 258 258 261 261 261 259 259 260 260 260 260 261
274 272 271 269 276 276 276 278 279 278 278 278 277 276 277 277 277 276 275 276 274 272 269 268 267 266 263 263 261 258 258 258 257 259 261 260 260 259 259 259 259 264 267 269

GFSCGP_sfc_thetae_051.txt.gz
Theta_e
291 288 287 288 288 287 286 285 285 287 290 289 289 289 289 287 286 285 285 285 285 285 287 287 287 288 288 289 290 292 293 294 298 298 299 297 295 294 292 292 293 295 296 298
287 285 290 290 288 287 286 284 284 287 289 289 288 288 287 286 285 286 285 285 285 285 286 286 286 286 286 286 288 290 291 292 294 295 295 294 292 290 289 289 289 289 291 292
286 289 290 290 286 286 284 284 284 286 287 287 285 285 284 284 285 285 286 286 285 285 284 284 284 284 285 284 285 286 287 288 289 292 293 291 290 288 287 286 286 287 288 288
287 291 290 287 286 287 283 288 287 286 285 282 284 280 284 283 283 284 284 284 284 284 284 284 283 283 283 283 284 285 286 286 286 288 287 286 285 283 284 284 285 286 287 286
289 288 288 287 288 289 287 289 287 286 283 281 282 280 283 283 281 282 283 284 284 284 283 282 282 283 283 283 283 284 285 285 285 285 285 284 283 284 284 284 285 285 285 286
290 291 290 291 289 289 288 286 285 282 282 277 283 283 282 281 283 283 284 284 284 284 283 282 283 282 282 282 283 283 283 283 284 284 284 283 283 283 283 283 283 284 284 284
286 287 288 290 286 288 287 285 279 277 276 278 280 279 283 285 285 285 284 284 284 284 283 282 281 281 281 281 282 282 283 282 283 283 283 283 282 283 282 282 282 282 283 283
284 282 287 289 288 286 285 285 280 274 274 276 281 278 284 285 285 285 286 286 284 283 283 282 282 281 281 281 281 281 281 281 282 283 282 283 283 283 282 282 282 282 282 282
282 284 286 287 288 288 284 283 285 278 275 275 280 282 285 284 282 282 283 283 283 283 283 283 282 281 280 280 281 281 281 281 281 281 281 281 282 282 281 281 281 281 281 282
287 282 285 285 287 286 286 287 281 280 272 270 277 278 280 282 282 281 281 283 283 283 283 283 282 281 280 280 280 281 281 281 281 281 281 281 281 281 281 281 280 280 280 280
288 286 283 284 283 283 284 283 282 283 278 272 270 276 283 284 284 281 282 284 284 283 283 283 283 282 281 280 280 280 280 280 281 281 281 281 280 280 280 280 280 279 280 279
290 286 278 281 283 284 284 284 283 281 276 276 276 278 284 284 284 284 283 284 284 284 284 283 283 282 281 280 279 279 280 280 281 281 281 281 281 280 280 279 279 279 279 278
290 284 275 279 282 282 282 283 283 282 281 275 275 277 284 283 283 283 283 283 283 283 283 282 281 281 281 280 280 279 279 280 280 280 280 280 280 279 279 279 279 279 277 277
295 285 285 284 283 284 281 282 282 284 276 278 281 278 282 284 284 283 283 284 283 284 283 282 281 281 280 280 279 279 279 280 280 280 279 279 279 279 279 278 278 276 276 275
291 287 282 279 280 281 282 282 282 282 285 281 283 282 283 286 286 286 284 283 282 283 282 282 281 281 280 279 279 279 279 279 279 279 279 279 280 279 278 277 275 274 274 273
287 284 283 280 281 281 279 281 283 284 283 284 281 281 286 288 285 283 284 283 283 283 282 283 282 281 280 281 280 279 278 278 278 278 278 279 278 277 277 275 273 273 272 272
285 281 281 279 278 279 279 280 281 281 281 284 280 285 281 282 283 284 283 283 284 282 283 282 282 281 281 280 281 279 279 278 278 278 278 277 276 275 274 272 271 270 270 270
283 283 283 271 276 273 278 274 280 282 283 280 277 277 283 283 281 281 281 282 281 282 282 282 281 279 280 279 279 279 278 278 277 276 275 274 273 271 271 270 269 269 268 268
284 283 275 273 274 277 275 274 278 280 279 281 282 280 280 278 278 277 279 280 281 280 281 281 281 279 278 278 278 277 277 277 276 275 274 272 271 268 269 267 267 267 266 266
281 282 283 273 273 272 274 274 276 279 273 276 284 280 276 276 272 275 278 279 279 279 279 279 279 278 278 278 277 276 275 274 274 274 273 271 268 265 264 266 265 265 264 265
275 276 278 275 274 277 278 276 277 273 276 274 276 276 275 274 277 278 278 277 278 279 278 279 278 278 278 275 275 275 273 273 274 271 270 268 267 264 264 263 264 262 262 263
275 275 274 275 273 272 275 275 276 279 277 276 275 276 276 277 277 277 278 278 277 277 277 279 276 276 275 275 274 274 272 271 269 268 267 265 262 264 263 260 262 260 260 259
274 278 276 277 278 277 278 279 280 280 278 276 277 277 278 277 277 277 277 277 277 277 277 275 276 275 272 273 273 272 271 269 267 264 262 260 261 262 262 259 262 262 261 260
273 274 273 274 274 275 277 279 279 280 279 279 278 278 277 276 277 277 276 276 277 275 275 273 272 272 274 270 271 269 268 267 262 260 261 261 260 261 262 263 262 260 260 260
275 275 272 272 274 276 277 278 279 279 279 278 278 278 278 277 276 276 275 275 275 276 273 272 273 273 273 268 266 265 265 263 261 260 261 261 261 261 262 262 262 262 262 261
274 273 272 271 277 277 278 280 280 278 278 278 277 276 276 277 277 276 275 275 274 274 270 270 270 268 266 265 263 261 261 261 261 261 261 261 261 261 262 260 260 264 267 269

GFSCGP_sfc_thetae_054.txt.gz
Theta_e
299 297 294 297 299 298 296 294 294 295 295 295 297 297 297 294 293 293 293 293 292 292 292 293 294 295 298 299 300 301 302 303 306 305 304 303 300 298 297 297 298 300 301 302
295 293 299 297 297 295 294 293 293 294 294 294 295 295 298 293 293 293 292 292 292 291 292 292 293 294 295 296 298 300 301 302 304 304 302 300 296 294 294 293 293 294 295 296
295 296 297 295 292 292 293 292 293 293 293 294 292 293 294 289 290 290 291 292 292 292 291 291 291 292 293 293 294 295 297 299 300 298 297 295 295 294 292 291 291 291 292 292
294 297 293 292 292 293 291 294 293 291 291 289 291 289 292 290 289 289 289 291 291 291 290 290 290 290 290 290 292 293 294 294 295 297 297 297 293 289 289 289 290 290 291 290
294 292 293 292 293 294 293 294 292 292 291 290 289 288 293 289 287 288 289 290 292 291 291 289 289 288 289 290 290 291 291 291 292 292 292 291 289 289 289 289 289 289 289 290
296 296 296 296 293 295 293 292 290 290 290 284 290 289 291 289 291 290 290 290 291 290 289 288 288 288 287 289 290 290 289 288 290 290 290 290 289 289 288 289 288 288 288 288
294 293 294 294 292 292 293 291 286 284 283 283 286 286 292 295 292 292 290 290 291 290 289 287 287 287 287 287 288 288 288 287 288 289 289 289 289 289 288 288 288 287 287 287
290 288 291 294 296 292 290 293 288 281 280 284 284 283 290 291 292 291 293 292 291 289 289 288 288 287 287 287 287 287 287 286 288 288 288 288 289 288 288 288 287 286 286 285
289 290 292 292 292 295 289 287 293 283 279 284 287 288 290 288 287 288 289 290 289 289 289 288 288 287 287 286 286 287 287 286 287 287 288 288 288 287 287 287 287 286 286 284
294 289 289 289 292 291 291 294 286 287 281 280 283 284 289 286 288 287 287 288 289 290 289 289 288 287 287 286 286 287 287 286 287 287 287 287 287 287 287 286 285 285 284 284
293 291 287 288 288 289 287 287 288 290 288 284 282 285 292 292 292 288 289 290 291 290 289 289 289 288 286 286 286 286 286 286 286 287 287 286 286 286 286 285 284 284 283 282
296 291 285 286 289 290 292 290 290 287 281 284 283 287 290 292 292 292 291 291 292 291 290 290 290 288 286 285 285 285 285 286 286 287 286 286 286 285 285 284 283 283 282 282
294 290 285 285 287 288 286 289 291 292 288 285 284 287 288 289 289 291 291 290 290 291 291 290 290 288 287 285 285 285 285 286 286 286 286 285 285 284 284 284 283 283 281 280
297 291 289 287 290 291 286 288 288 289 287 287 286 291 286 289 289 289 290 290 291 290 290 289 289 289 289 287 285 285 285 286 286 285 285 284 284 284 284 283 282 281 279 279
294 287 291 293 290 291 291 288 288 287 289 287 290 289 290 291 291 291 292 291 290 290 290 289 289 289 289 287 286 285 285 285 285 284 284 284 285 285 283 282 280 278 278 277
290 287 290 287 289 286 285 289 289 288 290 290 290 289 295 293 293 292 291 290 289 289 290 290 289 289 288 287 286 285 284 284 284 284 284 284 284 282 281 280 278 277 276 275
287 287 284 283 287 282 279 285 288 288 291 291 286 291 289 288 289 291 291 290 290 290 290 290 289 288 288 287 286 285 285 284 283 283 284 283 283 281 280 278 276 275 274 274
285 285 285 277 279 275 284 281 289 288 289 289 286 288 290 291 291 291 292 291 289 289 288 289 289 288 287 287 286 286 284 283 282 282 282 282 281 279 278 275 274 274 273 272
283 286 278 277 277 281 278 279 283 285 286 288 288 286 283 282 285 284 285 288 290 288 288 289 289 287 285 285 285 283 282 282 282 281 281 281 279 277 275 274 273 273 272 271
281 283 284 277 277 277 285 280 280 285 281 285 288 284 282 282 283 287 283 284 284 285 285 285 285 284 284 283 282 281 281 281 281 281 281 280 277 274 273 273 271 272 271 270
278 279 280 278 278 281 284 279 280 279 284 282 287 285 281 282 287 284 283 282 284 284 283 284 283 283 283 281 281 280 281 280 282 280 278 276 274 272 272 271 270 269 269 268
279 279 278 279 278 276 279 278 280 285 280 281 282 282 281 281 280 281 282 281 281 282 281 282 281 281 281 281 280 280 279 281 278 276 275 273 270 271 269 268 268 267 267 266
277 283 280 282 282 279 282 283 283 283 283 281 282 282 282 281 280 281 281 281 281 282 281 281 281 280 279 280 280 280 281 276 274 272 271 269 268 268 268 267 267 267 267 267
276 277 278 279 277 278 280 281 282 282 283 282 283 282 282 281 280 280 280 280 280 280 279 279 279 278 279 278 277 279 276 274 270 270 269 267 266 267 266 268 268 268 268 268
278 278 275 275 276 278 279 281 282 282 281 280 280 280 281 280 280 280 280 280 280 280 278 278 278 279 280 278 277 275 273 270 270 269 268 269 268 267 268 268 269 268 269 268
277 276 275 276 279 280 281 283 282 281 281 281 281 279 280 280 280 280 279 280 279 279 278 277 277 277 277 274 272 269 268 269 269 269 268 269 269 268 268 268 267 269 270 271

GFSCGP_sfc_thetae_057.txt.gz
Theta_e
303 298 296 299 301 301 300 298 297 300 300 297 299 299 302 299 298 299 299 298 298 297 296 297 299 302 301 302 303 304 305 305 305 305 304 304 302 301 299 300 301 302 303 305
297 294 301 303 301 300 299 296 296 300 298 296 297 297 301 301 298 299 299 298 297 295 296 296 299 301 300 300 301 303 304 308 308 307 305 302 299 297 296 296 296 296 297 297
297 300 301 300 297 295 296 295 296 296 297 297 296 295 298 301 299 297 298 298 297 296 295 295 297 299 300 299 300 301 303 303 304 302 300 298 297 296 294 293 293 294 294 295
297 302 297 296 295 296 293 299 297 295 293 290 297 288 298 300 293 294 294 295 295 296 296 295 295 296 297 296 298 299 299 300 301 302 301 300 296 292 291 291 292 292 293 292
296 294 294 294 295 297 295 297 296 295 293 293 294 289 295 297 292 292 294 294 295 295 294 294 294 293 293 295 295 296 296 296 296 297 297 295 293 292 292 291 291 291 292 292
297 299 298 298 298 298 298 295 293 293 293 287 293 292 293 294 293 295 294 294 295 294 294 293 292 291 291 293 293 293 293 292 294 295 294 293 292 291 291 290 290 290 290 290
295 296 298 298 294 295 296 293 288 286 284 284 292 292 294 300 296 298 293 293 294 294 292 291 289 290 290 291 291 292 291 290 292 293 292 292 292 292 290 290 290 289 288 287
292 290 296 297 297 295 292 294 289 282 285 288 286 285 292 296 297 296 296 295 295 293 292 290 290 290 289 290 290 290 290 289 290 290 290 291 291 291 290 290 289 288 287 286
292 293 296 297 299 299 293 290 297 288 283 283 288 290 295 291 290 292 294 293 293 292 291 290 290 290 289 289 289 289 289 289 289 289 290 289 290 289 288 288 288 287 287 286
298 291 293 293 294 295 294 297 287 288 282 281 288 288 290 288 289 290 292 292 292 292 291 291 290 290 289 289 289 289 289 288 289 289 289 289 289 289 288 288 287 286 285 285
298 294 289 290 289 290 289 289 292 292 290 286 285 288 296 296 294 291 292 292 293 292 291 291 291 290 289 289 288 288 288 288 288 289 289 288 288 288 288 287 286 286 285 284
298 293 289 291 294 295 295 292 292 287 285 287 288 289 292 297 297 295 293 293 294 294 293 292 291 290 289 288 287 287 288 287 288 288 288 288 287 287 287 286 285 285 284 284
296 289 285 287 290 290 288 291 293 293 291 287 285 289 292 292 294 296 294 294 294 294 293 292 292 290 288 288 287 287 287 287 288 288 287 287 287 286 286 285 285 285 283 283
298 291 289 288 292 292 286 288 290 290 286 287 288 291 289 291 292 293 295 295 294 294 293 292 292 291 289 288 287 287 287 288 288 287 287 286 286 286 286 285 284 283 283 281
296 286 290 292 294 294 290 289 289 287 289 287 290 291 296 293 294 294 295 294 293 293 293 292 292 292 290 289 288 287 287 287 287 286 286 286 286 286 285 284 283 282 280 280
293 287 289 287 292 293 290 291 291 290 290 290 292 293 301 300 296 294 294 293 292 292 293 293 292 291 291 289 288 286 287 286 286 285 285 285 285 284 284 283 282 280 279 278
287 286 285 284 289 289 281 286 289 291 293 293 288 293 289 291 291 292 293 293 292 292 292 292 291 291 291 290 289 287 287 287 285 284 284 284 284 283 282 282 280 278 277 277
285 285 285 284 283 278 289 293 292 291 293 294 293 291 292 291 291 292 296 294 292 292 292 292 292 292 291 291 289 289 287 285 284 283 283 283 283 281 281 280 278 277 277 275
287 286 284 282 282 286 288 284 286 288 289 294 292 289 286 286 287 289 292 294 294 293 293 293 293 293 291 290 289 286 284 283 282 282 283 282 282 280 280 277 277 276 276 275
282 284 284 281 280 279 286 285 289 291 283 289 290 287 284 284 283 291 287 287 289 290 290 289 287 286 285 285 284 283 282 282 281 282 282 282 281 280 278 277 276 276 275 274
278 280 279 282 280 284 288 282 284 281 286 288 290 287 285 286 291 288 286 285 286 285 284 285 285 283 284 283 282 281 281 281 282 282 281 280 279 278 277 276 275 274 273 272
281 280 280 282 280 278 282 280 283 286 283 286 289 288 285 284 282 283 283 282 282 282 283 283 282 282 282 282 282 281 280 282 280 279 278 276 275 275 274 272 272 271 271 269
280 286 285 285 284 280 284 282 285 284 285 283 286 286 286 282 281 282 281 281 282 283 282 282 283 281 281 281 281 280 280 279 277 276 274 273 272 273 272 270 270 269 269 269
280 280 281 282 280 281 282 285 284 283 283 284 285 285 285 282 282 281 281 281 281 281 280 280 280 280 280 279 279 280 278 277 273 273 272 271 270 270 270 271 271 271 271 270
280 280 279 277 277 279 282 283 283 283 282 281 282 282 283 282 281 281 281 281 281 281 279 279 279 279 279 279 278 277 276 273 274 273 272 272 271 269 270 270 271 270 272 272
279 279 278 278 281 283 283 286 285 283 281 282 281 280 281 282 281 281 281 281 280 280 279 278 278 277 277 276 274 272 271 271 272 272 271 272 272 271 270 271 270 273 274 273

GFSCGP_sfc_thetae_060.txt.gz
Theta_e
300 294 291 295 296 297 295 293 292 296 296 294 293 294 297 296 295 294 295 295 294 294 294 295 297 299 300 302 303 304 304 304 304 303 302 300 297 296 294 295 296 296 298 299
294 291 298 300 299 297 295 292 292 296 296 293 293 293 296 296 295 296 296 294 294 292 292 294 296 299 299 300 302 303 305 305 305 303 301 298 293 292 292 292 292 293 293 293
293 297 300 298 296 294 294 292 292 292 295 293 290 289 293 297 297 296 297 296 295 292 291 292 295 296 298 298 299 301 302 303 300 298 296 293 292 291 289 288 289 290 290 290
296 300 298 295 295 295 290 297 295 293 290 285 291 283 291 295 296 294 294 293 292 292 293 293 294 294 297 296 298 299 300 299 298 296 294 292 290 287 287 287 287 288 289 288
294 293 294 293 294 296 292 295 292 291 288 286 287 285 289 294 294 292 292 292 291 292 292 291 292 292 292 294 294 294 294 294 294 293 291 290 288 288 287 287 286 286 286 287
295 297 295 294 296 296 297 293 291 289 288 281 288 288 287 293 294 292 292 292 292 291 290 290 289 289 289 290 290 290 290 290 291 291 290 288 287 287 286 285 285 284 284 285
293 293 295 296 291 294 294 290 282 280 279 280 288 286 291 294 293 295 292 292 292 291 290 288 287 287 288 288 288 288 288 288 290 289 289 288 287 287 286 285 284 283 283 282
287 286 293 295 294 292 290 290 283 276 279 281 282 281 288 290 291 292 295 293 292 291 290 287 287 287 287 288 288 287 287 286 287 287 287 287 287 286 286 285 284 283 282 282
289 290 294 295 295 296 289 286 293 286 277 277 284 287 291 289 288 289 292 291 291 290 289 287 287 287 286 286 285 286 286 286 286 286 286 285 286 285 285 284 283 282 282 283
293 288 291 289 293 292 291 294 285 286 279 278 282 284 286 286 287 288 290 290 291 290 289 288 287 286 286 285 285 285 285 285 285 285 285 285 285 284 284 283 282 281 281 281
294 291 285 288 286 288 287 286 288 290 285 281 277 284 291 294 291 288 290 291 291 290 289 288 287 287 286 285 285 284 284 284 284 285 285 284 284 284 283 282 281 281 280 280
295 293 285 285 291 293 293 291 291 285 283 285 285 286 291 291 292 291 291 291 292 291 289 288 287 286 285 285 284 284 284 284 284 285 284 284 284 283 282 281 281 280 280 280
296 289 285 286 288 289 287 290 292 292 288 284 280 285 289 290 291 291 290 291 291 290 289 288 287 286 285 284 284 284 284 284 285 285 284 283 282 282 281 281 280 280 279 278
299 289 287 286 287 287 283 287 289 289 285 285 286 288 286 287 288 290 290 291 291 290 289 288 287 286 285 285 284 283 284 284 284 284 283 281 281 281 281 280 280 279 279 278
296 286 288 290 291 291 287 285 287 286 288 284 288 289 293 291 290 291 292 291 290 290 289 288 288 287 286 285 284 284 284 284 284 284 282 282 281 281 281 280 280 279 278 277
293 286 288 286 289 290 288 290 288 287 289 289 290 289 295 297 293 290 291 291 290 290 291 290 289 289 286 285 285 284 284 283 283 283 282 282 282 281 281 280 279 278 277 276
288 286 284 283 286 287 283 288 290 291 290 290 286 291 289 290 291 289 290 291 291 291 291 291 290 290 288 286 285 284 284 283 283 282 282 282 282 282 281 280 278 277 276 276
285 285 286 283 284 278 285 287 293 292 293 294 291 292 288 291 291 291 293 291 290 291 291 291 291 291 289 288 285 284 283 282 282 282 282 282 282 280 280 279 277 275 275 274
288 286 283 281 281 282 285 282 284 286 288 293 293 294 287 287 290 290 292 292 291 291 291 291 291 290 289 287 286 284 282 282 282 282 282 282 281 280 279 278 276 275 274 273
284 284 284 282 279 276 281 281 284 288 281 288 291 291 284 287 286 290 289 290 291 291 290 289 288 287 287 285 285 283 282 281 281 282 282 282 281 280 278 277 275 274 272 272
277 279 278 281 279 282 285 281 283 278 282 280 283 284 285 288 289 290 286 286 286 286 285 284 285 285 284 283 283 282 281 280 281 280 279 279 279 279 278 275 271 271 269 271
279 278 277 279 279 277 280 280 282 281 280 281 283 283 283 282 282 282 282 282 282 282 283 283 282 281 281 281 282 280 280 280 278 278 277 276 275 275 274 271 268 267 268 265
280 284 283 283 282 279 281 279 282 282 281 281 283 283 283 280 279 280 280 280 280 280 280 279 280 279 278 279 280 279 277 277 276 275 273 270 270 270 269 268 266 265 265 265
279 280 279 280 280 279 280 284 285 282 280 281 282 283 282 280 279 279 278 279 279 278 278 277 278 277 276 275 277 275 276 275 273 271 270 268 268 266 265 267 267 266 266 266
279 279 278 276 278 280 282 283 285 285 280 280 280 281 280 280 279 279 279 278 279 279 277 277 277 277 275 274 273 271 272 272 270 269 268 267 266 265 265 267 266 268 266 268
277 278 278 278 281 283 284 286 286 283 280 279 279 278 280 280 279 279 278 279 278 277 275 275 275 275 272 273 269 267 266 268 268 267 267 266 266 265 266 265 264 273 274 275

GFSCGP_sfc_thetae_063.txt.gz
Theta_e
296 290 288 292 292 293 291 289 288 291 295 292 291 291 293 294 292 291 291 292 292 292 292 294 297 297 298 300 302 303 302 302 303 302 300 298 295 294 294 294 294 295 296 296
292 289 295 296 295 293 292 289 289 292 294 292 291 291 293 294 294 294 294 294 293 290 290 293 295 296 297 299 303 304 304 304 304 302 298 295 293 291 290 290 290 291 291 291
290 294 298 296 293 292 291 290 289 290 291 290 288 288 290 294 295 294 296 296 294 291 290 291 294 294 295 297 303 304 304 303 298 296 294 292 291 289 288 288 288 289 290 289
292 296 295 293 292 293 289 293 293 292 288 284 288 283 288 291 292 292 295 293 292 290 291 292 294 293 294 297 301 301 300 297 296 296 293 292 289 286 285 286 286 287 288 287
291 292 292 292 292 295 291 294 292 290 286 284 285 283 286 292 292 295 293 291 291 291 291 292 293 294 295 297 297 297 297 297 295 295 292 289 287 286 286 285 285 285 285 286
292 294 294 294 293 295 294 292 290 288 286 280 285 285 286 290 293 296 292 290 290 290 290 292 292 291 292 294 294 294 294 293 293 290 289 288 286 285 285 284 284 283 284 283
291 291 293 294 290 292 293 289 281 279 278 280 286 284 289 292 293 295 293 291 289 290 290 290 288 288 288 291 291 291 291 290 289 288 287 287 286 286 285 284 283 282 282 281
285 284 291 294 292 289 288 288 282 275 277 279 283 281 287 293 292 291 293 293 290 289 290 288 287 287 287 287 287 287 287 287 288 288 287 287 286 286 285 284 283 282 282 281
286 286 291 292 293 294 287 285 291 285 274 275 283 286 291 290 290 289 290 290 289 289 287 286 286 286 286 286 286 287 286 287 287 286 286 286 285 285 285 283 283 282 282 282
292 286 288 288 292 291 290 292 284 283 275 274 281 282 287 287 289 289 288 289 289 289 287 286 286 286 287 287 286 286 286 286 285 285 286 285 284 284 283 283 282 281 281 281
292 290 284 287 286 287 286 286 287 288 284 277 275 284 290 292 292 289 289 290 289 289 287 286 286 286 287 286 285 285 284 284 284 285 284 284 283 283 282 281 280 280 280 279
293 291 280 285 289 289 290 290 290 286 281 283 281 286 289 288 290 291 290 290 290 289 288 287 286 285 285 284 284 284 284 284 284 285 284 283 283 282 281 280 279 279 279 279
295 288 280 284 286 288 286 289 292 292 287 284 283 286 288 288 289 288 288 288 289 289 287 286 286 284 284 284 284 283 284 284 284 284 283 282 281 281 281 280 279 279 279 278
298 289 285 285 286 287 283 285 289 289 285 284 286 289 289 287 287 288 288 288 289 288 287 286 285 285 285 284 283 283 283 284 284 284 283 282 281 281 281 280 279 279 278 277
296 288 289 290 289 287 284 285 287 287 289 286 289 288 293 294 292 290 290 288 288 288 287 287 286 285 284 283 284 283 284 284 284 284 283 282 282 281 281 280 279 279 278 277
294 287 288 287 289 289 287 289 288 288 289 289 290 289 294 295 296 291 290 289 289 289 289 288 288 286 284 284 284 284 284 284 284 284 283 282 282 282 281 280 280 279 278 277
289 286 285 283 286 286 283 287 289 290 291 290 285 291 294 293 293 290 289 290 290 290 290 289 288 287 286 285 285 284 284 284 284 283 283 282 282 282 281 281 279 278 277 276
285 286 287 284 285 278 286 285 292 290 292 294 293 293 289 292 294 294 292 291 291 291 291 290 290 289 287 286 285 285 284 283 283 283 283 283 282 282 281 280 279 278 277 275
289 285 283 281 281 282 285 282 286 285 288 292 293 295 295 292 285 288 290 291 293 292 292 292 291 290 289 286 285 284 282 282 282 282 282 282 282 281 280 279 278 278 276 275
285 287 285 283 279 277 280 281 283 287 282 286 291 293 292 285 283 292 289 288 289 290 290 290 290 288 288 286 284 283 282 282 281 282 283 283 282 282 280 280 278 277 276 276
278 280 280 282 280 281 285 282 285 281 280 278 280 282 284 286 289 288 288 288 288 288 289 289 289 288 288 285 284 283 282 281 283 282 282 282 282 281 281 280 275 274 273 272
278 278 277 280 278 276 281 282 285 285 281 280 284 283 283 284 282 283 284 284 285 285 285 285 284 283 282 284 284 282 281 281 280 280 280 280 280 279 277 276 270 271 270 269
280 282 280 282 282 282 282 282 283 282 281 280 283 283 282 281 280 279 280 281 282 282 281 280 281 280 279 280 283 281 279 278 278 278 276 275 274 274 273 273 269 266 266 268
282 281 282 282 282 281 281 282 284 283 281 281 282 283 281 279 280 279 279 280 280 278 279 277 278 278 277 276 277 277 277 276 275 273 271 270 271 268 267 269 269 267 266 265
279 280 279 279 280 279 282 282 285 286 281 280 280 281 280 280 279 279 278 278 279 278 277 277 278 277 275 275 273 271 273 273 271 269 268 267 267 267 266 267 265 266 264 265
278 279 279 279 282 283 284 284 284 285 282 280 280 280 280 280 280 279 277 278 277 276 274 275 275 274 272 270 268 266 265 270 270 268 267 267 266 264 265 265 263 273 273 274

GFSCGP_sfc_thetae_066.txt.gz
Theta_e
294 290 288 292 291 291 289 287 287 289 294 291 290 291 294 293 291 290 290 291 292 293 292 293 296 297 297 299 300 300 302 303 303 301 299 299 296 295 295 295 296 296 296 295
291 288 294 295 293 291 290 287 288 290 293 291 290 290 292 292 292 294 294 294 293 291 290 292 294 295 297 298 299 301 302 303 304 303 297 295 293 291 292 292 291 291 291 290
290 293 296 295 292 290 289 288 286 289 290 289 287 287 289 292 294 294 295 297 295 293 291 291 293 294 295 297 299 301 303 304 300 296 294 291 291 291 290 289 287 288 289 288
291 294 294 291 290 292 287 292 291 290 287 284 288 283 287 290 291 292 295 295 294 292 292 292 294 294 295 297 300 304 304 298 296 295 293 292 292 289 288 287 286 286 287 286
290 291 291 289 291 294 289 292 290 288 285 282 284 281 286 290 290 293 296 294 292 292 291 291 293 295 296 297 300 303 299 296 296 295 294 292 290 287 286 285 284 284 284 284
290 293 293 293 293 294 293 290 289 286 284 279 284 284 285 287 291 293 297 295 291 290 291 292 294 295 294 294 296 298 296 294 295 294 291 290 287 286 284 283 283 282 282 282
289 290 292 293 290 291 291 288 280 278 277 279 284 282 289 291 293 293 295 294 289 289 289 290 291 292 292 292 293 295 295 293 292 291 290 289 287 286 284 283 283 282 281 280
285 283 291 293 292 289 288 287 281 274 276 279 283 280 286 291 294 294 293 291 288 288 290 290 291 291 292 292 292 294 293 291 290 289 288 287 286 285 285 284 283 282 281 281
284 285 289 290 291 294 286 285 290 284 272 275 282 285 290 290 291 291 291 288 286 287 288 289 290 290 290 290 291 292 291 290 289 288 287 286 286 285 284 283 282 282 281 281
290 284 287 288 291 290 288 290 283 282 273 272 280 281 286 288 289 292 290 288 287 287 286 287 287 288 289 289 289 291 290 289 288 288 287 286 285 285 283 282 281 281 281 280
291 289 284 287 286 287 286 285 286 286 281 276 275 283 289 290 291 291 292 288 287 287 286 286 286 287 287 286 285 287 288 287 286 286 285 284 284 283 282 281 281 280 280 279
292 289 280 285 287 288 288 288 288 284 280 281 280 285 289 290 290 290 291 289 287 288 286 286 286 285 285 284 284 285 284 284 285 285 284 284 283 282 281 281 280 280 279 279
293 288 281 283 286 287 286 288 291 290 286 284 279 285 287 288 290 290 289 287 287 286 284 285 284 284 285 284 285 284 284 284 284 284 284 282 282 282 281 280 280 280 279 279
298 289 284 284 285 287 283 285 287 289 285 285 286 289 291 287 288 290 287 287 286 286 285 285 284 284 285 285 285 284 284 285 284 284 283 282 282 281 281 280 280 279 279 278
296 287 289 289 287 286 283 286 287 287 289 286 289 289 293 294 294 297 292 288 286 286 285 285 285 284 285 285 284 284 284 284 284 283 283 282 282 281 280 280 280 279 279 279
296 288 288 287 289 289 287 287 285 287 290 290 291 290 298 294 294 293 291 289 287 287 287 287 286 285 284 284 284 284 284 284 284 283 282 282 281 281 281 281 280 279 279 278
290 290 287 285 289 288 283 288 289 290 290 290 287 292 296 293 294 294 293 289 289 289 289 288 287 286 286 285 285 283 284 284 283 283 282 282 282 281 281 281 280 279 278 278
285 288 288 285 285 278 287 288 292 291 292 294 293 294 296 295 296 295 292 291 290 290 290 289 288 288 286 286 285 285 284 283 283 283 283 282 282 281 281 280 279 279 278 277
287 285 283 281 282 284 285 283 285 285 288 292 293 294 295 296 288 294 292 291 292 291 291 291 290 288 287 285 285 284 283 283 283 283 282 282 282 281 280 280 279 279 278 277
287 288 284 283 279 277 282 281 283 288 283 281 290 292 289 286 284 293 292 289 289 289 288 288 287 286 286 285 284 283 282 282 282 283 283 283 283 282 281 281 280 279 279 278
281 282 280 281 281 282 287 284 285 281 282 278 281 283 283 285 289 285 286 286 285 285 286 286 286 286 286 284 284 282 282 282 283 283 283 282 283 283 282 282 280 280 278 276
279 279 278 281 279 276 287 282 284 286 281 281 283 284 284 285 284 283 283 284 285 286 285 285 285 284 284 284 284 283 282 284 283 282 282 282 283 283 282 282 281 278 277 275
280 282 279 282 282 283 281 282 283 282 282 280 282 284 284 284 283 280 282 281 282 281 282 283 283 281 281 284 285 284 282 282 281 282 282 282 282 282 282 280 276 274 274 274
280 281 282 283 284 283 282 283 284 283 281 281 281 283 282 282 281 280 279 281 281 279 280 279 280 279 277 277 279 279 279 279 281 281 279 277 277 274 274 274 274 273 271 270
281 282 280 279 281 280 282 283 285 286 282 280 281 282 282 281 279 280 279 278 279 278 277 278 279 277 275 275 274 273 275 277 276 273 271 271 271 271 268 269 268 269 265 268
278 280 280 281 284 285 284 284 284 284 281 281 280 279 280 281 280 279 277 278 277 277 275 276 275 275 272 271 269 269 270 273 272 270 269 269 268 267 268 268 266 274 273 275

GFSCGP_sfc_thetae_069.txt.gz
Theta_e
293 289 287 291 290 289 288 285 285 288 292 289 289 289 293 293 291 290 290 291 292 293 295 292 294 296 296 298 299 302 304 302 304 303 302 302 298 298 298 298 299 299 299 297
289 287 293 294 292 290 288 286 286 289 291 290 290 289 291 292 292 292 294 294 294 293 290 291 293 294 296 298 300 300 304 304 304 305 299 297 296 293 294 295 294 294 294 293
289 292 295 293 290 289 288 286 285 287 288 288 286 285 288 292 293 294 293 296 297 295 292 290 292 294 296 297 299 300 304 304 304 297 295 292 292 292 292 291 290 290 290 288
290 293 293 290 289 291 286 290 289 288 286 282 286 281 287 289 291 291 295 296 295 293 292 292 293 293 296 298 299 300 304 303 297 296 295 294 295 293 290 290 288 288 286 286
289 290 290 289 290 292 288 291 289 287 284 282 282 281 286 288 288 292 295 296 294 293 292 291 293 295 296 298 299 301 304 297 296 296 296 296 294 289 288 287 286 286 284 284
289 292 292 292 292 293 292 289 287 285 283 279 284 284 284 286 289 291 295 296 294 291 290 290 292 294 295 297 300 304 299 297 295 295 295 293 289 288 287 286 285 284 282 282
287 289 290 292 289 290 290 288 280 278 277 279 282 281 288 290 292 292 294 295 291 288 288 288 290 292 293 296 300 300 297 294 294 294 292 291 289 289 287 286 284 282 281 281
285 282 290 291 291 289 287 287 281 274 275 278 282 280 286 290 293 292 292 291 289 288 288 288 291 293 293 296 298 298 294 292 293 292 291 290 289 289 287 286 284 283 282 281
284 285 289 289 290 293 286 284 289 283 271 274 282 284 289 290 290 292 292 288 287 287 287 288 290 292 293 295 296 296 293 291 291 291 290 289 288 287 286 284 283 282 282 282
289 284 286 288 291 290 288 290 283 282 274 272 279 280 285 288 290 291 291 292 288 287 286 287 289 290 292 293 292 291 292 290 290 290 289 288 287 286 285 283 281 281 281 281
290 287 283 286 285 286 285 284 284 286 281 275 273 283 288 289 291 291 291 290 288 287 286 286 287 288 289 288 287 288 289 289 289 288 288 287 285 284 283 282 281 280 280 280
292 288 279 284 287 288 287 287 287 282 279 281 279 285 290 289 289 289 291 290 287 287 286 285 286 286 285 285 285 286 287 288 288 288 287 286 284 283 281 281 280 280 280 280
293 286 280 282 286 286 286 287 291 288 285 283 278 284 287 287 289 289 289 288 287 286 284 284 284 285 285 285 285 286 287 287 287 286 286 284 283 281 281 280 280 280 279 279
297 287 285 285 286 287 283 285 287 289 284 284 286 289 292 287 288 290 289 288 287 286 285 284 283 284 285 286 286 286 285 287 286 286 285 283 282 282 281 281 280 280 279 279
295 286 285 286 286 285 284 285 286 286 288 285 289 289 293 295 292 295 295 289 287 286 285 284 284 284 285 285 285 285 285 284 285 285 284 283 283 283 281 280 280 279 279 279
295 287 287 288 288 287 286 286 286 288 289 290 291 290 297 294 294 292 293 292 290 288 287 287 286 285 284 285 285 285 284 284 284 284 283 283 282 281 281 280 280 279 279 279
291 289 287 285 287 286 283 287 288 287 289 290 286 291 296 293 292 293 294 291 290 290 290 288 286 286 285 285 286 284 284 284 283 283 283 282 282 281 280 280 279 279 278 278
287 287 287 285 286 279 289 287 292 291 292 292 290 292 294 294 294 295 292 293 293 292 290 290 289 287 286 286 285 285 283 283 283 282 282 282 282 281 280 280 279 279 278 278
289 286 284 283 283 284 286 284 285 286 289 293 293 294 296 297 289 295 292 293 294 294 293 292 290 289 286 285 285 283 282 283 283 282 282 282 282 281 280 279 279 279 278 278
288 288 284 282 279 278 282 282 284 290 285 282 291 293 293 287 283 292 288 287 288 288 288 288 286 284 284 283 283 282 281 281 282 282 283 283 283 282 280 280 279 279 279 279
280 282 280 281 281 282 285 283 285 282 282 278 281 283 283 286 289 286 285 286 284 285 286 284 284 283 282 282 282 281 281 281 282 283 282 282 282 282 282 281 280 280 279 278
280 280 279 281 279 277 285 283 284 286 282 281 281 282 282 285 286 285 284 285 284 284 283 282 281 281 280 281 281 280 279 281 282 282 282 282 282 282 282 282 281 280 279 278
280 282 279 283 283 285 284 284 284 283 283 281 283 285 285 284 284 284 282 283 283 280 281 279 280 279 279 281 284 282 282 283 282 283 283 283 283 283 283 282 281 279 280 279
280 283 283 283 285 284 283 282 283 282 282 282 282 283 283 282 282 281 279 281 281 279 280 278 280 279 278 279 281 282 283 283 284 283 282 282 282 282 282 283 282 280 277 277
281 282 281 280 283 282 283 284 283 284 281 280 281 282 283 282 280 280 279 278 280 279 277 277 278 277 275 276 275 275 277 280 280 280 277 279 280 278 275 274 274 274 272 276
280 281 281 281 286 286 286 284 284 283 282 281 280 279 280 281 281 279 278 277 276 276 275 276 275 275 272 271 269 269 270 275 274 271 271 271 271 270 270 270 269 275 275 277

GFSCGP_sfc_thetae_072.txt.gz
Theta_e
291 289 287 290 289 287 286 284 284 286 291 289 288 288 292 293 290 290 291 291 292 293 297 294 293 294 296 297 299 300 306 308 305 305 304 304 301 300 299 301 303 303 305 307
288 286 292 292 290 289 286 285 284 287 289 289 288 288 292 293 291 294 295 294 294 295 292 291 291 294 295 297 302 303 306 305 305 305 302 300 299 295 296 296 296 299 299 300
287 290 293 292 288 288 286 285 284 286 287 287 285 284 287 291 291 293 293 296 296 296 295 291 290 293 295 296 301 303 305 304 303 300 296 294 295 294 293 293 293 292 294 294
289 292 291 289 288 290 284 289 288 287 285 281 285 280 287 289 291 291 294 294 295 295 292 291 291 292 295 296 301 303 305 304 301 297 298 298 299 297 294 293 290 290 291 290
288 290 290 288 289 291 288 290 288 286 283 281 280 280 284 286 288 291 295 296 293 293 292 291 291 293 295 296 300 302 305 304 298 298 299 300 299 291 291 289 288 287 287 287
288 291 291 291 290 292 291 287 286 283 282 278 282 283 283 285 289 291 293 294 292 290 290 290 290 292 293 296 300 301 303 300 297 298 298 298 291 290 288 287 287 286 286 284
287 288 290 291 288 289 288 286 280 278 276 279 281 280 287 290 291 292 294 293 290 290 288 288 289 290 292 296 299 302 302 297 296 296 296 295 292 290 291 287 287 284 284 283
284 282 288 291 291 288 286 286 280 273 274 278 281 280 286 290 292 291 291 290 289 291 289 287 288 290 292 295 299 302 299 297 296 296 295 293 292 292 291 289 287 286 285 283
283 284 288 288 289 293 285 284 288 282 270 274 281 284 288 290 290 292 291 289 289 289 289 286 288 289 290 294 299 300 298 296 295 294 292 291 291 290 289 287 286 284 283 282
289 283 285 287 290 289 288 289 283 281 273 270 279 280 284 288 290 290 290 291 291 288 286 286 288 289 290 293 295 295 296 294 294 293 292 290 290 289 287 285 284 283 282 282
289 286 283 285 285 285 285 284 284 285 280 275 272 282 287 289 290 290 291 290 290 288 287 286 287 288 289 290 290 291 293 291 290 290 289 289 288 287 285 284 283 283 282 280
292 288 279 283 285 286 286 285 286 282 278 280 279 285 290 290 290 290 289 289 288 288 287 285 287 287 287 287 287 289 290 291 289 288 288 288 287 285 284 284 283 282 281 280
293 288 281 283 285 285 285 286 290 287 284 282 278 285 287 287 289 289 289 288 288 287 285 284 284 285 286 286 287 288 288 289 288 287 286 286 285 284 284 282 282 281 280 279
296 287 285 284 284 286 283 285 287 289 284 284 285 288 290 287 288 289 289 289 289 287 286 284 284 285 286 286 287 287 287 287 286 286 286 285 284 284 283 282 281 281 280 279
294 286 284 286 285 283 283 285 287 286 288 286 288 288 292 294 291 293 291 292 289 288 286 285 285 284 285 285 286 287 287 286 285 285 285 285 284 284 283 282 281 280 280 280
295 285 286 287 287 286 284 286 286 288 289 289 291 289 297 294 293 292 293 294 292 289 288 288 286 285 284 285 286 286 286 284 285 285 284 284 284 283 282 281 280 279 279 279
290 287 285 284 288 288 282 287 288 286 290 289 286 291 296 294 291 292 294 293 292 292 292 290 289 287 286 286 286 285 286 284 284 284 284 283 283 282 281 281 280 279 279 279
286 285 286 285 284 278 288 289 293 291 291 290 290 293 294 294 292 293 291 291 293 292 292 291 291 289 287 286 285 285 284 283 283 283 282 282 282 282 280 280 279 279 279 278
293 287 284 281 282 285 288 284 285 287 289 293 292 293 294 296 289 294 292 293 293 291 291 291 291 289 285 284 284 283 282 282 282 282 281 281 282 281 280 279 279 279 279 278
290 290 286 284 280 278 285 282 284 290 286 287 292 293 293 289 284 293 288 285 287 287 286 286 287 285 283 282 282 282 281 281 281 281 282 282 282 281 280 280 279 279 279 279
282 283 282 283 282 284 284 283 285 282 284 280 286 292 285 287 289 286 285 285 284 284 284 284 283 282 281 281 281 280 279 280 281 282 281 282 282 281 281 281 280 279 279 278
281 281 281 282 280 278 283 283 283 285 281 280 281 283 283 285 284 283 285 285 284 283 283 281 279 279 279 280 280 279 279 280 281 281 281 281 282 281 281 281 280 279 279 278
279 282 279 281 280 284 285 285 286 285 284 282 283 285 285 284 284 284 283 282 282 279 280 278 278 278 278 278 279 278 279 280 281 281 281 282 282 282 282 280 279 279 279 279
283 286 283 283 286 289 286 286 284 283 283 283 281 282 283 284 283 282 280 282 282 278 279 278 279 279 278 280 282 283 282 282 283 282 282 282 282 281 282 282 281 280 279 279
282 283 282 283 284 284 285 284 285 284 283 281 281 282 283 283 280 280 279 278 279 278 277 278 279 278 277 277 277 281 282 284 284 283 281 282 282 282 281 277 280 280 278 281
283 282 282 282 286 286 286 286 285 284 283 281 280 279 280 281 281 278 277 277 276 276 274 276 275 274 272 272 269 269 270 276 277 277 278 278 277 276 275 274 273 278 278 279

GFSCGP_sfc_thetae_075.txt.gz
Theta_e
291 289 287 290 289 287 286 284 284 287 290 290 289 289 293 294 292 292 294 294 295 296 300 298 297 297 297 300 301 303 307 309 309 309 308 307 306 304 304 306 308 310 313 313
288 286 292 292 290 289 287 285 285 288 289 290 289 288 292 294 294 296 297 298 297 297 296 296 295 295 297 299 301 303 306 308 308 310 309 307 303 299 300 300 301 304 307 311
287 289 292 291 288 287 286 285 285 287 288 288 286 285 287 291 293 295 296 298 299 298 298 295 293 294 296 297 300 302 306 307 308 306 300 297 298 297 296 296 297 297 301 303
289 292 291 289 287 289 284 289 288 286 286 282 286 281 286 290 291 292 296 296 296 295 295 295 293 293 295 297 300 303 306 306 307 300 302 302 302 299 298 297 295 294 296 299
288 289 289 288 289 290 287 289 288 286 284 283 282 282 284 287 289 293 297 296 295 295 294 294 293 294 295 297 300 303 305 305 305 301 304 304 304 302 297 293 292 291 291 292
288 290 291 291 290 291 291 288 286 284 283 279 283 283 283 286 290 292 295 294 294 294 294 293 292 292 293 296 300 302 304 304 300 301 301 304 304 294 293 291 291 290 289 288
286 288 290 291 288 289 288 286 280 277 276 279 281 281 286 290 291 292 295 294 293 293 293 292 291 291 292 295 298 301 303 303 300 300 300 302 298 296 295 292 292 288 287 286
284 282 288 291 291 288 286 286 280 273 275 278 281 280 286 290 293 292 291 291 292 293 292 291 290 291 292 295 298 300 301 301 299 299 299 299 296 296 297 294 293 291 291 288
283 283 287 288 289 292 285 283 288 283 270 275 281 284 289 290 291 291 292 290 293 293 292 291 290 291 292 294 297 299 301 301 298 298 297 294 294 294 293 291 290 289 288 285
288 283 285 286 289 288 288 289 283 281 274 271 279 281 284 289 290 291 291 292 292 291 290 289 289 290 291 293 297 300 301 298 296 297 295 293 293 293 291 288 287 286 284 284
290 287 283 285 284 285 285 284 284 284 281 276 273 283 287 289 291 291 292 293 292 291 290 289 289 290 291 292 294 299 297 294 294 295 293 292 291 291 289 288 286 285 284 283
291 289 285 283 286 286 285 285 285 281 278 279 279 285 289 289 290 291 291 292 291 291 290 288 288 289 289 290 291 294 294 293 293 293 292 291 289 288 287 286 285 284 283 283
292 288 283 284 286 287 286 286 290 287 284 280 279 285 287 287 288 290 291 291 290 289 288 288 287 287 288 289 290 291 292 292 291 291 291 289 288 287 287 286 284 283 283 282
297 288 286 283 285 286 283 284 287 289 284 283 285 289 289 288 289 291 290 290 290 289 289 287 286 287 288 288 289 290 290 291 289 290 290 288 287 287 287 285 284 283 282 281
294 284 286 289 286 285 285 285 286 286 288 285 288 287 292 293 292 292 291 291 290 290 288 288 288 287 287 287 288 289 290 289 288 288 288 288 287 286 285 284 283 282 281 281
293 285 285 285 289 287 285 286 286 286 288 288 290 289 297 294 294 291 294 293 292 292 291 291 289 288 287 287 287 288 288 287 287 287 287 287 285 285 284 283 282 281 280 280
289 285 284 282 286 286 283 287 288 286 288 289 285 291 296 291 292 292 293 293 293 294 294 293 292 291 290 288 288 287 288 287 286 286 286 285 284 283 283 282 281 280 280 280
288 287 285 283 283 277 286 288 292 290 291 291 291 293 294 292 292 294 295 292 293 293 293 293 293 292 290 288 286 286 285 285 285 285 284 284 283 282 282 281 281 280 280 279
293 288 284 281 282 285 286 285 286 287 289 294 290 292 295 296 289 293 291 294 295 292 292 291 290 290 289 287 285 284 283 283 283 283 283 283 282 281 281 281 280 280 279 279
289 291 286 284 279 277 282 280 284 290 285 292 293 294 294 290 286 294 290 289 288 287 287 286 286 285 285 284 283 282 281 281 281 282 282 282 282 281 280 281 280 280 280 279
281 284 282 283 281 284 286 283 288 283 285 280 289 294 294 290 291 288 285 285 285 285 285 284 283 283 283 281 281 280 279 280 281 281 281 280 281 280 280 280 281 280 279 279
279 280 281 282 280 278 281 282 284 285 284 282 284 286 285 285 286 286 286 285 285 284 284 282 279 278 278 280 280 279 279 280 280 280 280 281 281 281 281 280 279 280 279 278
279 282 277 281 282 285 285 286 288 286 284 284 284 285 287 286 285 285 285 284 283 279 280 278 277 277 277 278 279 278 278 279 279 278 280 280 280 281 281 280 279 279 279 278
280 284 282 282 285 287 287 287 287 287 286 285 284 284 285 285 285 284 281 282 282 278 280 278 278 278 278 277 280 279 281 281 282 281 281 281 280 280 280 281 280 280 279 278
279 280 279 281 283 285 285 286 287 287 286 286 284 283 283 284 281 280 280 279 280 279 277 277 278 277 276 277 278 282 282 284 282 282 281 281 281 281 281 280 281 280 281 281
280 281 280 278 283 284 285 287 286 285 285 284 282 281 282 282 282 279 277 278 277 277 275 276 275 274 271 273 272 276 281 285 282 280 280 281 281 279 277 276 277 282 282 284

GFSCGP_sfc_thetae_078.txt.gz
Theta_e
299 298 294 297 299 296 294 293 293 296 296 296 297 297 300 303 303 302 304 305 306 307 310 310 309 309 308 310 312 313 312 314 316 317 316 316 316 315 315 315 317 319 327 326
297 294 299 297 297 296 294 293 293 296 296 295 296 296 299 301 302 303 304 305 306 307 308 308 307 307 306 307 309 310 312 313 316 316 316 316 317 314 313 309 309 310 315 319
294 296 297 295 294 293 294 293 293 293 295 295 294 294 297 300 300 301 303 305 306 306 307 308 306 305 306 306 307 308 310 312 315 315 316 311 311 309 306 304 305 303 307 311
295 297 295 293 292 294 291 296 295 292 292 289 293 286 295 298 299 301 302 305 305 306 306 305 305 305 305 306 308 308 310 311 313 315 312 311 311 310 311 308 306 300 302 303
294 293 293 292 293 295 293 294 293 292 291 290 292 288 294 295 296 299 302 305 304 305 304 304 304 304 305 305 306 307 309 310 312 313 312 311 311 313 312 307 300 300 297 299
294 296 296 296 294 295 295 293 292 292 291 286 291 289 291 294 296 299 302 301 302 303 303 302 300 299 301 303 304 306 307 309 311 311 311 310 310 312 308 306 301 297 294 295
292 293 295 296 293 294 295 292 286 285 284 284 289 288 292 297 298 300 303 302 302 303 303 303 301 299 299 301 303 305 306 307 309 309 309 308 310 311 309 306 304 297 292 290
288 286 293 296 295 293 292 293 287 283 283 287 287 285 294 299 301 303 302 300 300 301 303 301 300 300 300 301 303 304 305 306 307 307 307 307 309 308 309 307 306 301 295 295
289 288 292 293 295 296 291 288 295 289 281 284 289 295 299 299 299 299 300 299 302 303 303 301 299 299 300 301 302 303 304 305 305 305 307 307 307 306 305 302 299 297 296 291
294 288 291 292 295 294 294 296 288 289 284 283 288 289 291 296 297 300 300 299 303 302 300 299 298 298 299 300 302 304 304 304 304 304 305 305 304 304 302 296 294 293 290 287
296 292 289 291 290 291 291 290 290 291 289 286 285 290 299 299 301 300 301 301 302 301 301 299 298 298 298 299 301 302 303 303 302 303 303 302 301 300 297 294 294 290 288 285
295 292 289 290 292 293 293 293 292 287 284 287 287 289 296 297 298 299 300 300 301 301 300 299 298 298 298 298 299 300 303 302 301 302 302 301 300 297 294 292 291 289 287 285
294 286 285 287 288 290 288 291 293 293 289 288 287 290 293 295 296 297 299 300 299 299 298 297 296 296 298 298 298 298 301 301 301 301 300 299 297 294 292 291 289 288 286 284
297 290 288 287 288 291 288 290 292 291 287 287 289 292 296 296 297 298 298 299 300 299 298 299 297 297 297 296 297 297 299 301 300 299 298 297 296 294 292 290 287 286 285 283
292 284 286 289 289 289 287 287 290 288 291 287 292 293 297 299 298 301 301 298 298 297 297 298 298 299 297 296 296 295 297 298 298 296 296 296 295 294 291 288 287 286 285 284
291 286 286 284 288 288 286 287 289 289 290 291 292 292 300 302 302 300 300 300 298 298 299 300 299 297 295 295 295 295 295 295 295 295 295 295 294 291 289 287 286 285 284 283
289 286 285 282 288 288 283 287 289 290 292 291 288 294 299 298 298 299 300 301 300 302 301 301 299 299 298 297 295 294 294 294 292 293 293 292 290 288 288 286 285 285 284 282
287 286 285 283 285 278 289 295 295 293 294 296 295 297 299 300 300 301 302 301 300 299 300 300 300 300 299 297 296 295 293 292 290 290 289 289 288 287 286 284 283 283 282 282
291 288 283 281 281 286 288 290 291 290 291 297 296 298 299 300 297 298 301 300 301 302 300 299 298 296 295 294 294 290 288 289 288 288 288 287 287 286 285 284 283 283 282 282
288 290 285 283 278 276 287 290 292 294 286 291 295 296 297 296 290 297 299 297 297 295 294 293 293 291 291 291 288 287 286 286 286 287 287 287 286 285 284 284 284 284 282 281
283 284 281 282 280 284 292 288 292 283 287 287 287 290 293 294 298 300 293 293 293 293 292 291 289 288 287 286 286 285 285 285 286 286 285 285 285 284 284 284 284 282 281 280
279 279 280 282 279 276 288 288 287 287 290 289 289 289 287 289 292 294 293 292 291 291 290 287 286 284 283 284 285 284 284 284 284 284 284 283 283 284 284 283 282 282 281 280
278 284 282 283 284 288 289 287 290 289 290 290 289 289 287 287 289 290 289 289 289 288 286 283 284 282 282 283 285 284 282 283 282 282 281 282 283 283 283 282 282 281 281 280
284 286 281 282 284 287 288 290 290 290 289 290 289 289 287 289 287 286 285 285 285 285 284 282 282 282 281 282 282 284 283 283 281 281 281 282 282 282 282 283 282 282 281 281
284 284 283 283 285 287 289 289 289 288 289 288 288 287 288 286 285 284 284 283 283 282 282 282 282 282 281 282 282 283 284 284 283 282 282 282 283 283 282 282 282 282 283 283
284 282 280 279 287 287 287 288 289 288 289 289 287 286 284 284 284 283 282 282 281 281 281 280 280 279 279 280 281 284 285 285 284 282 283 283 282 282 281 281 281 283 283 284

GFSCGP_sfc_thetae_081.txt.gz
Theta_e
304 299 296 299 300 299 297 295 294 297 300 297 297 298 300 304 304 304 305 306 307 308 311 313 314 313 313 317 323 325 325 325 325 325 323 324 324 326 324 325 327 330 330 329
299 295 300 301 300 298 297 294 294 298 300 296 297 297 301 302 303 304 305 306 307 308 309 312 313 313 312 312 317 320 322 322 322 322 321 321 320 321 322 320 317 322 324 326
295 297 300 298 296 295 295 294 294 294 298 298 296 295 298 302 304 304 305 307 307 307 308 310 311 312 312 311 313 314 317 318 318 319 319 318 317 318 316 315 312 309 312 319
297 300 297 296 294 296 291 298 296 295 293 289 296 287 296 299 300 303 305 306 307 308 310 309 309 311 311 312 313 313 314 315 316 318 317 316 313 311 312 313 312 305 307 309
295 295 295 294 295 297 294 297 296 295 293 292 293 289 294 299 297 300 304 307 308 309 308 308 308 309 310 312 312 313 312 313 315 317 316 316 312 313 315 316 314 307 302 303
297 298 298 297 296 298 297 296 295 294 293 286 291 291 292 296 299 301 304 304 305 306 307 306 304 304 306 308 309 311 310 310 313 314 315 314 312 313 314 313 309 305 301 299
294 294 297 298 294 296 296 293 286 286 285 285 293 291 294 299 301 302 303 307 305 306 307 307 306 304 304 305 306 307 308 308 311 313 313 312 313 313 313 312 309 304 299 294
289 287 294 297 296 293 293 293 288 284 284 287 290 286 293 302 304 304 305 306 306 305 306 306 306 305 304 304 305 306 307 307 309 310 311 311 312 312 313 312 311 308 304 301
290 290 297 297 298 298 293 289 295 290 288 285 289 294 299 302 302 303 304 304 305 305 306 306 305 304 304 304 305 306 306 307 308 309 310 309 310 310 311 311 312 311 309 305
295 289 294 294 297 297 295 297 287 289 284 282 287 291 292 298 300 302 303 304 305 306 306 304 303 303 303 304 305 306 306 306 307 308 308 308 309 309 310 310 308 306 304 299
297 294 290 293 292 292 291 291 292 293 291 287 285 290 301 301 302 302 305 305 305 306 304 303 303 302 303 303 304 305 305 305 306 307 306 307 307 308 308 306 304 301 298 293
297 294 289 291 296 297 296 293 293 288 287 290 289 289 301 300 300 300 303 303 305 305 304 304 303 302 302 302 303 304 305 305 305 306 305 305 305 304 303 302 300 296 292 289
295 289 286 287 292 293 290 294 294 295 291 288 287 289 299 300 301 301 300 303 302 302 303 302 302 302 302 302 303 303 304 304 305 304 303 303 302 302 300 299 297 292 289 287
297 286 287 287 287 292 289 292 294 292 287 288 289 292 298 301 301 302 302 302 303 302 303 303 303 302 302 302 302 302 302 303 304 302 302 301 301 300 299 297 293 290 288 286
294 285 287 289 289 288 287 287 289 289 290 287 291 292 297 300 302 303 304 302 302 302 302 303 303 304 303 302 302 301 301 302 302 301 300 300 300 299 297 293 290 288 286 285
292 286 287 285 289 288 285 287 289 289 290 290 291 290 298 300 302 302 303 303 303 304 303 303 302 303 302 302 301 300 299 299 299 299 298 298 297 293 292 290 287 286 284 284
289 287 285 281 288 288 283 287 288 290 293 292 288 294 299 298 299 301 302 303 303 304 304 305 304 304 303 303 301 299 298 297 296 295 294 293 293 291 290 288 286 285 284 283
286 286 285 283 285 276 287 294 294 292 293 295 295 296 298 299 301 303 304 303 302 303 303 304 304 305 304 303 301 299 295 294 292 291 291 291 290 289 288 287 286 285 284 283
291 287 283 280 281 285 287 290 291 290 290 294 292 296 299 300 301 301 303 304 303 303 304 303 302 300 299 298 297 293 290 291 290 289 290 289 288 287 287 285 285 285 284 282
288 289 283 283 277 275 285 290 291 294 285 288 288 289 290 292 290 297 297 298 299 301 299 297 297 295 293 293 290 289 288 288 288 288 289 289 287 286 285 285 284 284 284 282
282 282 279 280 278 283 290 289 294 284 284 289 289 289 289 288 291 293 295 296 297 294 293 293 293 290 289 287 287 286 287 286 288 287 287 286 286 285 285 285 284 283 283 282
281 281 281 282 278 277 290 289 286 288 290 290 290 291 290 290 292 292 293 292 292 293 292 289 287 287 286 286 286 286 285 286 286 285 285 284 284 285 285 283 283 282 281 279
278 282 281 283 284 290 290 290 292 292 290 290 289 290 292 290 291 293 290 289 289 288 286 286 285 284 284 284 285 285 284 284 283 282 281 282 283 284 284 283 281 281 281 280
284 287 283 283 286 287 289 291 292 293 292 291 291 291 291 290 290 289 287 287 285 285 285 284 283 283 283 283 283 284 284 283 281 281 282 282 282 282 283 283 283 282 281 281
284 285 282 282 285 287 288 290 291 291 290 288 289 289 290 290 289 288 288 286 285 284 283 283 283 283 283 283 283 283 283 283 283 282 282 283 283 283 282 282 283 282 283 283
284 282 280 279 285 285 286 289 291 289 288 289 289 289 288 286 286 286 285 284 283 283 282 282 281 280 280 281 282 283 285 285 283 282 282 282 282 282 281 281 281 284 284 284

GFSCGP_sfc_thetae_084.txt.gz
Theta_e
300 293 291 293 295 295 293 291 289 292 296 293 292 293 295 297 297 297 297 298 299 300 303 305 306 305 306 310 316 323 325 324 325 324 323 322 323 322 321 326 327 330 331 327
295 291 297 299 297 294 292 290 289 292 296 292 292 292 296 297 297 299 298 299 300 300 300 303 305 305 305 306 312 318 323 323 323 324 323 322 321 320 319 318 319 324 327 327
293 295 299 297 293 292 291 289 288 289 292 292 290 288 292 296 298 299 300 301 300 300 301 301 302 304 303 304 307 313 318 321 322 321 318 314 314 312 313 314 314 314 316 324
294 298 295 292 292 293 288 293 293 291 288 283 291 280 288 293 295 296 298 299 299 300 302 302 302 303 303 303 304 308 312 315 318 316 314 312 312 310 308 309 307 306 309 313
291 292 292 291 293 294 291 294 292 290 287 286 286 282 287 292 291 294 297 299 299 300 301 301 301 302 303 305 304 305 306 309 311 312 311 310 308 308 307 306 305 303 305 307
293 295 295 294 294 295 296 292 291 289 287 280 286 285 284 288 291 294 296 297 299 299 299 299 299 300 300 302 303 304 304 305 308 309 310 309 307 305 305 306 306 304 302 302
291 292 294 295 291 293 292 288 280 280 278 278 286 283 287 293 295 295 297 298 299 300 300 298 297 297 298 299 301 303 303 303 305 307 308 308 307 306 306 306 304 300 300 297
285 283 291 294 293 290 289 289 282 275 278 280 283 281 287 295 296 299 299 298 299 299 300 299 300 299 298 300 301 301 302 302 304 305 306 307 307 306 306 307 305 303 301 302
286 287 293 294 294 295 289 286 291 284 277 277 282 287 292 295 297 297 298 298 297 298 299 299 299 299 299 299 300 301 301 302 303 304 305 305 305 305 305 305 305 304 301 300
291 284 292 292 294 293 291 293 283 284 274 273 280 282 286 292 294 296 296 297 299 298 299 299 298 298 298 299 300 301 302 302 302 303 304 304 303 304 304 304 303 302 301 298
292 289 286 290 288 288 288 287 289 288 285 279 277 282 293 294 295 295 297 298 298 298 299 297 297 297 298 298 299 300 300 300 301 302 302 302 302 302 303 302 301 298 296 293
294 292 283 286 290 291 291 289 290 283 281 283 282 285 295 295 296 295 295 298 297 298 298 297 297 296 296 297 297 298 300 300 300 301 301 300 301 301 300 299 297 295 293 290
294 288 282 284 289 290 287 290 292 291 286 283 278 285 294 296 296 295 294 295 297 295 296 296 296 296 296 297 297 298 299 300 300 300 299 299 298 298 298 297 295 292 289 287
296 287 286 284 286 290 286 287 291 290 283 284 286 288 294 296 296 297 297 297 296 297 297 297 297 297 297 297 297 297 298 299 300 299 298 297 297 297 296 295 292 289 287 285
292 284 286 288 287 286 285 286 288 288 289 285 288 289 293 295 295 297 298 299 299 299 298 298 298 298 298 297 296 297 297 297 298 298 297 297 296 296 295 291 288 286 285 285
293 284 285 284 288 288 284 286 288 288 289 289 288 289 296 297 299 297 298 299 299 300 301 302 299 298 298 298 297 297 296 296 296 297 296 295 293 292 290 288 286 285 284 283
288 286 283 279 285 285 280 284 287 287 290 290 286 292 296 294 295 297 297 298 298 299 299 300 299 300 298 298 298 296 295 294 293 292 291 290 290 289 288 286 285 284 283 282
286 285 284 274 279 274 282 289 290 289 290 292 293 293 290 289 291 296 292 292 293 295 297 299 298 297 298 298 297 296 292 291 289 288 287 287 287 287 286 285 284 282 282 281
291 286 280 276 271 279 283 284 288 287 286 288 287 287 288 289 290 293 293 292 293 295 296 295 294 294 293 292 291 288 288 288 287 286 286 285 285 284 284 283 282 282 282 283
286 287 283 276 271 268 278 283 291 291 279 281 286 287 286 287 281 286 291 291 292 293 292 291 291 290 288 286 285 284 285 285 285 286 286 285 284 284 283 282 281 279 283 283
279 281 278 278 276 277 283 285 291 278 279 283 284 286 286 284 287 290 291 291 291 290 290 290 288 286 285 284 283 283 283 283 284 283 282 282 282 280 281 280 278 278 280 281
278 277 276 277 275 273 284 284 282 284 285 286 286 286 285 287 289 289 290 289 288 288 287 286 284 284 284 282 281 281 281 283 281 280 279 277 276 280 279 278 276 277 279 280
272 278 277 280 279 286 285 285 288 289 286 286 285 286 286 286 287 288 288 288 287 286 285 283 282 282 282 281 280 279 281 280 279 276 275 276 276 278 279 278 276 275 274 275
279 283 277 278 281 281 284 286 288 288 286 287 287 286 286 287 287 286 286 288 286 284 284 281 280 281 281 281 281 278 279 279 273 274 275 276 278 275 275 278 277 278 276 277
278 279 277 277 281 282 283 284 286 286 286 286 286 285 285 286 286 285 284 284 285 283 280 280 280 281 280 279 279 279 280 279 278 277 277 278 277 277 277 277 277 279 278 281
279 277 275 275 281 281 282 283 284 284 284 286 284 284 285 285 285 284 283 282 282 281 278 278 278 275 274 274 275 273 278 277 277 277 278 279 281 280 279 279 279 284 284 285

GFSCGP_sfc_thetae_087.txt.gz
Theta_e
294 289 286 289 290 290 288 287 285 288 293 291 290 290 292 295 294 294 293 293 294 296 299 300 302 303 302 309 315 321 323 325 328 325 324 323 325 321 329 332 332 330 327 324
291 287 293 294 293 291 289 287 286 289 292 290 289 290 293 293 295 296 295 294 295 295 297 300 300 300 301 306 314 318 323 323 327 329 328 326 325 318 319 320 327 331 329 325
289 292 296 294 290 290 287 286 285 287 289 289 287 285 289 292 294 296 296 297 296 296 297 298 299 299 299 301 309 316 321 323 325 325 319 316 316 315 315 315 320 320 327 325
290 295 292 290 290 290 285 290 290 288 285 281 287 278 285 290 292 292 296 295 295 296 298 298 298 299 299 300 303 311 316 320 321 319 319 317 320 318 320 319 312 310 315 319
289 290 290 289 290 292 288 291 289 288 285 283 283 280 284 287 288 291 293 294 295 296 297 297 298 299 300 300 301 305 310 314 317 319 318 315 311 312 306 306 307 305 306 310
290 293 292 291 292 292 293 290 290 287 284 278 282 282 280 286 290 291 293 294 298 297 296 296 296 298 299 300 301 301 304 306 309 313 310 311 309 305 304 303 303 301 305 307
288 289 291 293 290 292 290 285 278 277 276 277 283 280 283 289 293 293 295 295 297 298 298 297 296 296 297 297 299 301 301 302 304 307 308 307 307 305 304 303 303 301 301 300
283 281 289 293 290 288 287 285 279 273 276 278 282 280 286 292 295 296 297 295 296 297 298 298 297 297 296 297 298 300 300 301 302 304 306 306 306 305 304 304 303 303 302 301
283 283 290 291 292 293 287 284 288 282 272 275 280 284 289 293 293 294 294 296 295 296 297 297 297 296 296 297 298 299 299 300 301 302 304 304 305 304 303 304 303 302 300 300
289 284 289 290 292 290 289 291 283 282 272 271 278 279 283 289 292 294 294 294 295 297 296 296 296 296 297 297 298 299 300 300 300 301 302 303 303 303 303 302 302 301 300 298
289 287 284 288 287 287 287 286 287 287 282 276 275 280 289 292 293 293 294 295 295 296 296 295 295 295 296 297 298 298 299 299 300 301 301 301 301 301 301 300 300 299 297 295
291 289 280 284 289 289 287 287 287 281 279 282 281 283 294 293 293 294 294 295 294 294 295 294 295 295 295 296 296 297 298 298 299 300 300 300 300 299 299 299 299 296 295 292
293 286 276 281 287 289 286 288 290 289 285 281 278 283 291 293 293 294 294 296 296 296 295 295 295 296 295 295 296 296 297 298 299 299 299 298 298 297 297 297 296 293 292 290
295 287 284 281 283 287 283 286 289 288 282 282 283 285 290 292 292 294 295 295 295 296 296 296 296 296 296 296 296 296 296 297 298 298 298 297 297 296 296 296 294 291 290 287
292 285 286 287 287 286 285 286 288 287 288 282 285 286 290 293 294 297 297 297 296 296 296 297 296 296 296 296 295 296 296 296 297 297 296 298 295 295 294 292 290 288 287 286
292 284 285 284 286 287 285 287 288 288 288 287 287 287 295 297 297 294 295 294 294 294 296 297 296 296 297 296 296 296 295 294 294 295 295 295 292 291 290 290 288 286 285 284
288 285 284 279 284 285 280 284 286 287 290 289 285 289 292 290 291 292 292 291 291 292 294 295 294 295 295 294 295 295 295 294 292 290 290 290 290 289 289 288 286 285 284 283
286 285 281 277 279 273 282 287 290 288 289 292 291 287 287 287 290 292 291 290 291 292 292 293 293 292 292 291 290 290 288 288 287 287 286 287 287 287 288 286 285 283 282 281
291 286 282 277 276 277 282 284 286 286 286 288 286 286 286 288 287 290 291 290 290 291 292 292 292 291 290 288 287 284 285 285 285 286 286 285 284 285 284 284 283 281 279 279
285 286 281 277 271 267 277 282 288 289 279 282 286 286 285 285 277 283 289 290 291 290 290 290 289 288 286 285 283 283 283 283 283 284 285 285 283 283 283 283 281 278 277 280
279 282 280 279 275 277 282 285 288 275 278 281 284 285 285 282 284 286 289 289 290 290 289 288 287 285 285 284 282 282 282 282 283 282 282 281 281 279 280 278 277 276 279 282
275 275 275 278 276 271 283 284 281 283 284 284 285 285 284 285 286 286 287 286 287 287 287 287 284 284 284 283 281 281 281 282 281 279 278 276 274 277 277 275 272 274 280 281
273 277 274 277 278 284 283 284 287 288 286 285 284 285 286 285 284 285 285 285 285 286 286 284 282 282 281 281 279 279 280 280 278 274 273 272 273 274 273 274 273 274 277 280
277 281 276 276 279 282 284 285 286 286 285 286 285 285 286 285 285 284 284 285 285 283 284 281 279 280 280 278 279 277 279 279 274 273 274 274 275 275 275 276 276 275 274 275
276 277 274 275 279 280 281 282 284 283 285 285 285 285 284 284 284 284 284 283 284 283 280 279 279 279 278 277 276 277 278 275 276 275 275 276 277 278 277 276 276 277 276 278
277 276 274 272 279 280 280 282 282 281 281 282 282 282 283 283 283 283 282 281 279 280 277 276 275 273 273 271 271 271 275 279 279 277 276 277 279 279 279 279 279 284 284 285

GFSCGP_sfc_thetae_090.txt.gz
Theta_e
293 288 286 288 289 287 288 286 285 287 291 290 289 289 291 293 292 292 292 293 293 294 298 298 299 299 299 304 311 319 322 327 328 326 328 327 329 331 332 332 330 327 325 321
290 285 291 291 290 289 286 285 285 287 290 289 288 288 291 292 294 295 294 294 293 292 294 297 298 297 298 301 309 316 321 326 328 329 330 329 329 320 330 332 331 329 326 323
287 289 294 292 289 288 286 285 284 286 287 287 286 284 286 290 291 294 295 295 294 294 294 295 296 296 296 297 304 313 320 323 327 328 321 316 316 315 317 323 328 328 327 324
289 293 291 289 288 288 284 289 288 286 284 280 285 277 283 288 290 291 293 291 292 294 295 295 296 296 296 297 299 309 316 320 323 321 322 321 323 322 322 320 321 319 325 325
287 289 290 287 289 290 287 290 287 286 283 281 281 280 283 284 286 290 291 292 292 293 295 296 295 297 300 298 298 308 314 317 317 321 322 322 320 317 309 309 312 313 313 316
288 291 290 291 290 290 292 288 287 284 282 277 281 281 279 284 287 288 291 293 294 297 297 296 296 297 299 298 298 302 309 311 312 316 314 316 317 308 306 305 306 307 311 311
287 287 290 292 288 290 288 284 277 276 275 276 280 279 282 287 290 290 293 294 294 293 295 295 296 295 296 297 299 299 300 303 307 310 309 311 310 307 307 305 305 301 306 305
282 281 289 292 289 287 285 284 278 272 274 276 281 279 284 290 291 293 294 293 295 295 296 296 296 296 295 296 297 299 299 299 301 304 306 306 306 306 305 305 303 304 304 305
282 282 289 290 290 292 286 283 286 280 270 274 279 282 288 291 291 293 294 295 294 295 295 295 297 296 296 297 297 298 299 300 299 301 302 303 304 304 303 303 302 302 301 300
288 282 288 288 290 289 288 290 282 280 271 270 277 278 282 286 290 293 292 293 294 295 295 296 295 295 296 296 297 298 298 299 299 300 301 302 302 303 302 302 301 300 300 299
289 285 283 287 287 286 286 285 285 285 280 275 272 278 286 289 292 292 292 293 293 294 294 294 295 295 295 296 297 297 298 298 298 299 299 300 300 301 300 300 300 299 297 296
289 287 280 283 287 288 287 287 286 281 278 280 280 282 292 292 292 293 293 294 294 295 295 294 294 294 295 295 295 296 297 297 298 299 299 299 299 299 298 298 298 297 296 294
291 284 274 280 285 287 285 286 289 287 283 280 277 280 290 291 291 292 293 294 294 294 294 294 293 294 294 294 295 295 296 297 297 297 297 297 297 297 296 296 296 295 294 293
295 286 282 280 282 286 284 285 286 286 277 281 282 284 287 289 291 292 293 293 293 293 294 294 295 294 294 294 294 294 295 295 296 297 296 296 296 296 296 295 295 293 292 291
292 285 286 288 287 287 286 285 287 285 286 282 286 286 288 292 292 293 293 293 292 293 294 294 294 294 294 295 295 294 294 294 294 295 295 296 295 294 295 293 291 290 289 288
292 284 285 284 287 287 284 284 286 288 288 287 287 286 292 292 293 291 290 291 290 291 293 294 294 293 293 294 294 294 294 293 291 292 292 293 292 290 290 290 289 288 288 286
287 285 283 280 285 284 277 284 286 288 290 290 286 290 291 290 290 290 288 290 290 291 292 292 292 292 291 291 291 290 290 289 288 287 287 287 287 287 288 288 288 287 286 285
286 285 282 275 282 272 280 286 289 288 290 292 289 286 286 288 288 290 289 288 289 290 291 291 291 291 290 289 288 287 285 285 285 285 285 285 285 285 286 286 286 285 284 283
291 285 281 278 276 277 281 283 286 286 285 291 290 285 286 287 287 288 289 288 289 289 290 290 290 290 289 287 286 283 283 284 283 284 284 284 284 283 284 284 284 281 279 279
286 286 280 272 270 270 278 282 287 290 278 281 286 285 284 282 279 283 286 287 288 288 289 289 288 288 285 285 284 283 283 282 282 283 284 283 282 280 281 282 280 278 276 280
279 282 280 277 273 273 281 283 287 279 278 282 285 285 285 281 283 285 287 287 286 287 288 288 287 285 285 284 283 281 281 281 282 281 281 281 281 279 279 278 276 274 274 279
275 276 277 278 275 271 281 283 280 281 283 284 284 284 283 282 285 285 285 285 285 285 286 286 283 283 283 282 279 280 279 281 280 279 278 277 276 277 278 272 272 272 281 282
273 276 274 277 277 282 281 283 286 287 285 284 284 284 284 283 282 283 284 283 284 284 285 284 282 281 280 279 278 278 279 279 278 273 274 272 273 274 275 272 273 277 280 281
277 280 275 277 279 282 283 284 286 284 283 283 284 284 284 283 283 283 284 283 283 283 284 280 280 281 281 278 278 277 278 278 272 274 275 275 274 275 273 276 276 277 278 279
277 278 275 275 279 280 282 283 283 282 282 282 281 282 282 282 282 283 282 282 283 282 280 278 279 279 279 278 276 277 278 280 278 276 275 276 275 274 277 278 277 278 275 276
277 277 275 272 279 279 280 281 281 280 279 279 279 279 280 281 281 280 279 279 277 277 277 276 275 274 274 273 272 270 269 272 275 278 275 275 275 274 276 273 276 283 283 283

GFSCGP_sfc_thetae_093.txt.gz
Theta_e
292 289 286 288 287 284 285 284 284 285 290 289 288 288 291 293 291 291 291 291 292 292 297 296 297 297 297 304 309 315 321 327 328 329 329 330 329 330 331 331 329 326 323 319
289 284 290 290 289 287 285 283 283 286 289 288 287 288 290 291 292 292 292 292 291 291 293 294 295 294 295 298 304 311 318 324 327 329 330 331 332 332 331 331 329 328 325 322
286 288 291 290 287 286 284 283 283 285 286 285 284 284 285 288 289 292 292 293 292 293 294 294 294 294 293 294 296 305 315 320 326 328 325 316 320 319 323 328 328 327 326 323
288 291 290 288 287 287 283 289 287 286 283 280 283 277 282 286 288 289 292 289 289 291 291 293 293 293 294 295 295 301 309 317 323 325 324 324 325 324 325 328 329 327 326 324
287 289 288 286 288 289 287 288 286 285 281 280 280 279 282 283 285 289 289 291 291 291 291 295 295 297 297 297 296 299 309 314 318 322 324 323 322 319 313 313 321 318 319 324
286 290 290 290 289 289 290 287 285 283 281 276 280 280 279 282 285 285 289 291 292 294 295 294 295 295 296 297 297 301 306 309 312 315 316 318 318 311 309 308 314 316 317 314
286 286 290 290 287 288 285 283 277 275 274 276 278 278 281 286 286 286 290 292 293 293 294 294 295 294 294 296 297 298 303 305 310 312 313 313 314 310 310 308 308 307 310 308
281 280 288 290 288 286 283 283 278 271 273 275 281 278 284 287 290 291 293 292 293 293 294 294 295 295 295 295 296 297 298 299 302 306 308 308 309 308 308 307 305 305 308 313
281 281 287 288 289 290 285 281 284 279 268 273 278 281 287 289 291 290 292 292 293 293 294 295 295 295 295 296 296 297 298 299 299 300 302 304 304 304 305 304 303 302 302 301
286 280 286 287 289 289 287 288 281 279 270 269 276 277 281 286 288 289 291 291 293 293 294 294 294 294 295 294 296 297 298 298 299 299 299 300 301 301 302 301 301 299 299 299
286 284 283 286 285 285 285 283 283 283 279 273 271 277 284 288 290 290 291 292 293 293 293 293 293 293 294 295 296 296 297 297 297 298 298 298 298 299 299 299 299 298 297 297
289 286 280 283 286 287 286 285 285 280 277 279 279 281 289 290 291 292 291 293 293 292 292 292 292 292 293 293 294 295 295 296 297 297 297 297 297 297 297 297 297 296 296 295
290 283 273 279 283 285 284 285 287 285 282 280 276 279 288 289 291 291 292 292 292 292 292 293 293 293 293 293 293 293 294 294 295 296 296 296 295 296 296 296 296 295 295 294
295 285 283 280 281 285 283 284 285 286 280 281 281 283 286 289 288 290 291 291 291 291 292 292 292 292 293 293 292 293 293 293 293 294 294 294 294 294 295 295 294 293 293 293
292 285 284 285 286 285 285 283 285 284 286 283 285 284 288 289 290 290 291 290 290 291 291 291 291 291 291 292 291 292 292 291 291 291 292 292 292 293 292 292 291 290 290 289
292 284 286 284 287 285 281 284 284 285 285 286 285 285 291 292 291 288 290 290 289 290 291 291 291 291 290 290 290 290 290 289 288 288 288 289 288 287 287 288 288 288 288 287
286 285 284 281 285 284 280 283 283 284 287 287 284 288 290 289 290 288 288 289 289 289 290 290 290 290 290 289 289 288 287 286 285 285 285 285 285 285 286 286 286 286 287 286
285 285 285 280 281 275 281 284 288 287 289 291 289 287 290 290 289 289 288 286 287 287 288 289 290 290 289 289 288 287 285 285 284 284 283 284 284 284 285 284 285 285 284 284
291 286 281 279 277 278 280 282 285 285 286 289 288 285 286 287 288 287 288 287 287 287 288 289 289 289 288 287 285 284 284 283 283 283 283 283 282 281 282 282 283 283 281 281
285 288 283 275 273 271 278 280 285 289 277 278 287 284 284 283 281 284 286 286 286 286 287 287 288 287 286 285 284 283 283 282 282 282 283 282 281 279 279 280 281 279 275 280
280 282 281 277 273 274 281 283 286 279 278 280 283 283 282 279 281 284 286 286 285 285 285 286 286 285 284 284 283 282 282 281 282 280 280 280 279 278 278 278 275 275 279 281
278 278 277 278 276 270 279 283 282 283 284 284 283 282 282 282 281 282 283 284 285 284 284 285 282 283 283 281 279 280 280 281 279 278 277 276 275 275 278 274 275 272 276 282
273 278 276 279 278 281 280 282 284 286 283 283 281 282 283 282 281 281 282 283 284 283 284 282 280 280 280 279 277 278 279 278 278 274 274 274 273 276 273 271 274 276 273 279
276 279 276 277 280 280 282 282 282 282 282 283 282 282 282 281 281 282 282 283 283 282 282 280 279 279 279 276 277 277 278 279 279 277 276 277 276 277 276 277 275 275 275 278
276 278 275 275 279 280 280 281 282 281 281 281 281 280 280 280 280 280 279 279 279 278 277 276 276 276 277 277 276 275 275 272 274 277 279 278 277 275 276 275 275 275 274 276
277 276 275 273 281 280 280 281 281 281 280 278 278 277 279 278 277 275 275 276 274 273 273 273 272 271 271 271 271 271 267 269 271 273 276 278 279 278 276 279 279 281 284 285

GFSCGP_sfc_thetae_096.txt.gz
Theta_e
292 288 285 288 287 284 285 283 282 284 288 288 287 287 290 292 290 290 290 291 291 292 295 294 294 295 297 305 310 316 321 326 328 329 329 329 327 329 329 330 328 323 322 316
289 285 289 289 288 287 285 283 283 284 288 288 285 287 289 290 291 291 291 291 290 290 292 294 294 292 293 296 305 310 317 322 326 329 329 330 330 330 330 330 329 326 324 320
286 287 290 289 285 285 282 282 282 282 284 284 282 283 284 286 288 289 290 290 290 292 293 292 292 292 292 292 293 303 312 318 324 327 327 319 325 323 327 328 328 327 325 323
287 289 288 287 285 285 281 287 286 285 283 279 282 276 281 284 287 288 289 288 289 289 289 291 294 294 293 293 292 294 303 311 319 323 324 325 326 325 327 328 329 327 326 324
286 288 287 285 287 288 285 287 286 283 281 280 279 278 281 282 285 287 287 290 290 292 293 294 294 295 296 296 295 296 299 307 314 319 323 324 323 324 317 325 324 322 324 325
286 289 289 288 287 287 289 285 284 281 279 276 279 279 279 281 283 287 286 290 291 292 292 292 292 294 294 296 296 301 305 307 312 315 316 320 321 313 311 311 322 321 320 320
285 286 289 289 286 288 284 283 277 275 274 275 277 277 280 284 285 285 289 292 292 291 292 293 293 294 294 294 295 297 302 305 308 312 313 314 314 312 312 310 316 312 313 311
281 280 288 290 288 286 284 283 278 271 272 275 280 277 282 286 289 290 291 291 292 292 292 293 293 293 293 294 295 296 297 298 303 307 308 309 310 310 309 308 307 307 311 314
281 281 286 287 288 290 284 281 283 278 267 273 277 281 286 287 289 290 290 290 291 291 292 292 293 293 293 294 295 295 296 296 297 298 301 303 303 304 304 304 303 303 302 303
286 280 285 286 288 288 285 287 280 278 269 268 275 277 280 284 287 289 289 290 291 291 291 291 292 292 293 294 295 296 296 296 296 297 298 299 299 300 300 300 300 299 299 299
285 283 282 286 284 283 283 282 282 282 278 273 270 276 282 284 288 289 289 290 291 291 290 290 291 291 292 292 293 294 295 296 296 297 297 297 297 298 298 298 298 297 297 297
287 284 279 282 285 286 284 284 284 279 276 277 277 280 287 289 290 290 291 292 291 290 291 291 292 292 292 292 292 293 293 293 294 295 295 296 296 296 296 296 296 295 295 295
288 282 273 279 282 284 283 284 285 283 281 278 275 281 287 288 289 289 290 290 291 291 291 291 291 291 291 291 291 291 292 291 292 293 293 293 293 294 294 294 294 294 294 294
294 284 283 280 280 285 283 283 285 285 278 282 279 281 285 288 289 289 289 290 290 290 290 290 290 290 290 290 289 290 290 290 289 290 290 290 290 290 291 291 292 292 292 291
291 282 282 282 283 282 282 283 284 284 286 281 285 282 287 290 290 290 290 289 289 289 289 289 289 289 289 289 289 289 288 288 287 287 287 287 287 287 287 287 287 286 287 287
292 281 285 282 286 283 280 283 283 285 286 283 283 283 289 290 290 289 289 289 288 288 289 289 290 290 289 289 289 289 288 287 286 287 286 285 285 285 285 285 285 285 286 286
287 285 283 281 285 284 281 284 284 284 285 286 283 288 290 287 289 288 288 288 287 288 288 289 289 289 289 288 288 287 286 285 284 284 284 283 283 283 283 284 283 284 284 284
285 285 284 280 282 277 284 283 287 287 287 288 287 288 291 291 289 288 287 286 286 287 287 288 288 288 288 287 286 285 284 284 284 283 283 282 282 282 283 282 282 281 282 282
289 286 281 279 277 279 281 281 284 284 285 290 289 286 286 287 287 285 286 285 285 285 286 287 287 288 287 286 285 284 284 284 283 283 282 281 280 279 280 280 281 281 279 282
286 289 283 278 276 273 279 280 285 288 279 279 286 285 284 285 280 283 286 285 285 284 285 285 286 285 284 284 283 283 283 282 282 282 282 281 280 277 277 279 279 277 277 281
281 284 281 279 278 278 281 283 286 279 279 279 282 283 282 280 283 283 285 284 284 284 283 284 283 283 283 282 281 281 280 281 281 279 279 279 278 276 276 275 279 276 277 279
280 280 280 280 278 275 280 282 281 282 282 281 281 281 280 281 282 282 282 282 283 283 283 283 280 281 281 280 279 279 279 280 278 277 276 275 275 275 277 271 277 273 273 276
275 280 279 280 279 281 280 281 284 285 283 281 281 281 282 281 280 281 281 282 282 281 282 279 278 278 279 278 277 277 279 278 278 279 278 273 274 275 276 271 273 276 278 279
276 279 276 278 281 281 280 281 282 282 282 282 282 282 282 281 281 281 281 282 280 279 277 275 274 275 276 275 276 274 276 277 273 274 277 279 279 279 278 277 276 275 277 277
277 278 275 274 278 279 280 280 281 281 281 281 281 281 280 281 280 280 278 277 277 275 274 273 273 273 271 272 270 270 271 269 269 270 271 273 277 280 279 278 279 278 279 277
277 277 276 274 281 280 280 281 281 280 280 279 279 278 278 278 277 275 274 274 272 270 270 270 269 268 267 267 267 267 265 265 266 268 271 272 273 274 277 279 280 283 283 284

GFSCGP_sfc_thetae_099.txt.gz
Theta_e
292 289 287 288 288 285 286 284 282 285 289 289 289 288 291 293 291 292 293 294 294 294 296 296 297 297 297 305 313 319 325 330 332 330 329 329 328 329 330 330 328 324 322 318
289 285 290 290 288 287 285 285 284 286 288 288 286 288 290 291 292 293 293 292 292 292 294 296 296 296 296 297 306 313 319 325 330 331 330 331 330 330 330 330 329 326 323 320
286 287 290 289 285 286 284 284 283 284 285 285 284 285 285 288 288 290 291 291 291 291 291 292 294 295 296 295 296 306 314 320 327 330 331 327 329 327 328 328 328 327 324 322
287 288 287 286 284 285 282 287 286 285 284 280 283 278 283 285 287 288 290 291 291 292 293 295 296 298 298 298 297 296 304 314 322 327 328 326 325 325 328 329 330 328 326 323
285 287 286 285 286 287 285 287 286 284 282 281 281 279 282 283 286 287 289 291 293 293 294 295 295 296 297 298 299 302 298 304 314 323 326 326 326 327 326 329 328 327 325 325
286 289 289 288 287 288 288 285 284 282 280 277 279 280 279 282 284 285 288 292 293 293 294 294 295 296 296 297 299 305 307 307 311 318 322 324 325 320 319 319 325 324 323 324
284 286 288 289 286 288 285 283 278 277 275 276 278 278 281 284 285 286 289 294 293 292 293 294 294 295 295 296 297 299 304 307 311 315 317 320 321 318 319 318 321 320 318 314
281 279 287 290 287 286 284 284 279 273 273 275 279 277 282 287 290 291 292 293 292 292 293 293 293 294 295 296 297 298 298 299 304 310 312 314 315 315 314 315 314 314 314 314
280 281 287 287 288 290 284 282 283 277 267 273 278 281 285 287 289 290 291 291 291 291 292 292 293 293 295 295 296 297 298 298 299 300 304 306 308 310 310 310 310 310 309 308
286 280 286 287 288 287 285 286 281 278 270 269 276 277 280 285 288 290 290 291 291 291 291 291 291 292 293 294 295 297 297 297 298 299 299 300 301 302 304 304 305 304 304 303
286 284 283 286 285 283 283 282 281 282 279 273 270 277 282 284 288 290 290 291 290 290 291 291 292 292 292 293 293 294 295 295 296 297 298 298 298 299 300 300 300 301 301 301
287 284 280 283 285 286 284 283 283 279 276 277 277 279 287 286 289 291 291 290 290 291 291 291 292 291 291 292 292 292 292 293 293 295 295 295 295 296 296 296 296 297 297 297
288 282 274 279 282 284 282 283 284 282 281 277 276 281 287 288 289 290 290 290 291 290 290 290 290 290 290 290 290 290 290 290 291 292 292 291 291 292 292 292 293 293 294 294
293 283 282 279 280 284 282 283 284 284 278 282 279 282 285 288 289 290 290 290 289 289 290 289 289 289 290 289 289 289 289 289 289 290 289 289 289 289 289 290 289 290 290 290
290 280 281 282 284 283 282 283 283 284 286 281 285 282 285 290 290 290 290 289 289 289 289 289 289 289 289 289 289 289 289 288 288 288 288 287 287 287 287 287 287 287 287 287
291 280 283 278 284 284 279 284 284 286 287 286 283 283 286 293 290 289 289 289 288 288 289 289 289 289 289 289 288 288 287 287 287 287 286 286 286 285 285 285 285 286 286 286
288 283 280 277 282 283 280 284 283 284 285 286 283 288 289 287 290 289 288 288 288 288 288 289 289 289 289 288 288 287 286 286 285 285 284 284 284 283 284 284 284 284 284 284
285 285 285 281 283 276 284 283 286 287 287 287 287 287 289 290 290 289 288 287 287 287 287 288 288 289 288 287 286 285 285 285 285 284 283 283 283 282 282 282 282 282 282 282
290 285 281 279 278 281 281 282 284 284 286 289 289 287 286 286 286 284 286 286 286 286 286 287 288 287 286 285 284 284 284 284 283 283 282 282 281 279 280 279 280 281 280 281
287 287 282 278 276 271 279 280 285 288 280 282 290 287 285 285 285 283 285 285 285 285 285 285 286 285 283 283 283 283 282 281 281 281 281 281 280 276 277 278 278 279 277 280
281 283 280 279 278 277 283 282 285 276 279 279 283 285 286 284 285 285 285 284 285 284 285 284 282 282 281 282 281 280 280 280 280 279 279 278 278 276 277 276 276 277 276 277
281 281 281 280 278 275 279 282 282 282 280 280 281 282 282 281 282 282 282 282 283 283 281 280 279 280 280 280 279 278 278 278 278 278 279 278 274 276 277 272 274 274 273 275
279 282 281 283 281 282 279 280 283 284 281 280 281 281 282 280 280 281 281 281 281 281 279 277 276 277 277 276 276 274 275 276 276 275 273 276 276 275 276 276 276 276 276 278
276 279 278 280 281 280 280 280 282 282 282 282 282 282 282 280 281 281 281 281 279 277 276 274 273 273 273 272 272 270 272 271 267 267 269 272 272 274 276 280 280 278 278 277
277 278 275 275 278 279 280 280 282 281 281 281 281 281 281 281 280 280 278 276 275 274 272 272 271 271 270 270 268 267 268 265 264 266 269 270 272 272 273 275 278 279 281 280
277 277 277 275 281 281 281 281 281 280 280 280 279 278 279 280 278 276 274 273 271 270 269 269 268 267 266 265 265 265 263 261 260 263 267 268 269 270 271 272 274 281 284 284

GFSCGP_sfc_thetae_102.txt.gz
Theta_e
297 295 292 295 296 293 294 292 291 291 294 295 295 295 298 301 300 301 303 304 305 305 307 304 305 306 307 311 321 327 331 335 333 332 331 331 330 331 332 333 331 328 325 324
295 292 295 292 293 293 292 291 290 292 294 294 293 294 298 300 301 302 303 303 304 303 304 303 303 304 304 305 307 314 322 329 334 333 332 333 332 332 333 333 332 329 326 323
293 292 294 293 291 291 291 291 290 290 291 292 291 293 294 297 295 297 298 300 299 299 301 301 304 305 304 304 305 306 313 321 329 334 333 331 331 331 330 330 330 330 327 324
292 292 292 292 290 292 288 292 291 290 291 287 290 286 293 295 295 295 297 298 300 301 301 303 304 306 306 306 306 303 310 317 323 330 331 328 327 326 329 330 332 330 330 327
291 290 290 290 292 292 290 292 292 290 291 290 289 287 292 290 293 296 298 300 301 301 301 301 302 303 304 307 310 312 304 309 319 325 329 329 327 328 330 329 330 330 328 328
292 294 293 292 291 292 292 292 291 290 289 284 289 288 290 291 293 294 296 300 300 300 301 302 302 304 305 307 309 315 312 307 311 319 325 327 326 325 327 330 330 330 328 327
290 291 293 293 291 292 291 291 284 283 283 282 284 284 291 293 292 295 295 300 299 300 301 301 302 303 304 305 306 308 315 315 317 317 321 324 325 326 326 328 329 329 324 321
285 283 290 293 292 290 290 291 285 280 279 283 283 283 290 293 296 296 297 299 299 300 300 300 301 302 303 304 305 306 308 312 316 317 318 320 321 323 322 322 322 320 320 319
285 285 291 291 292 294 289 287 290 282 276 283 286 289 293 293 293 296 297 298 298 298 299 299 300 302 303 303 303 305 306 306 309 313 313 312 314 315 315 314 315 315 316 314
289 283 289 290 293 292 291 292 286 286 281 280 283 284 288 290 292 296 296 297 297 297 298 298 298 299 300 301 303 304 304 304 305 306 307 308 308 310 311 313 312 312 312 311
290 289 286 289 288 288 287 287 287 288 287 284 281 286 293 294 295 296 297 298 297 298 298 298 298 298 299 300 300 301 301 302 303 304 305 305 304 305 305 305 305 305 306 305
291 289 284 287 289 290 289 289 289 285 282 283 283 286 292 292 297 299 297 296 297 298 298 298 297 297 297 297 297 297 298 299 299 300 299 299 299 300 300 299 300 301 301 302
291 289 283 284 287 290 288 288 290 289 288 284 284 286 292 293 295 297 296 296 296 296 296 296 296 296 296 296 296 296 296 295 296 297 296 296 296 297 296 296 296 296 297 297
295 288 287 283 285 289 286 287 288 288 286 286 286 289 291 292 294 295 296 296 296 295 294 295 295 295 295 295 295 295 294 295 295 295 295 294 294 294 294 294 294 294 294 294
292 286 287 288 288 289 289 288 287 287 289 286 289 288 292 295 295 297 297 296 294 293 293 294 294 295 295 294 294 294 294 294 294 294 293 292 292 292 292 292 292 291 291 291
293 286 286 283 287 287 286 287 288 289 289 289 290 289 293 297 299 296 296 294 293 293 294 294 293 293 292 292 293 293 293 292 293 292 291 291 291 290 290 290 289 290 290 290
290 286 285 284 285 286 283 286 288 289 291 290 287 291 294 292 295 295 295 295 294 293 293 293 293 293 292 292 292 291 291 292 291 290 289 288 288 288 288 287 287 287 288 288
286 286 286 283 284 278 288 289 292 289 291 292 292 293 294 295 296 298 298 295 294 293 293 293 293 293 292 291 290 290 290 290 289 288 287 286 286 286 286 286 286 286 287 286
290 287 285 283 282 286 289 286 288 287 288 293 291 293 292 291 292 290 293 296 294 293 293 293 293 291 289 289 288 288 287 288 287 286 286 285 285 283 284 284 285 285 285 285
289 289 285 283 281 279 284 286 290 293 285 291 293 293 290 291 289 292 289 290 289 290 290 290 289 288 287 286 286 286 285 285 284 283 283 284 283 282 282 283 283 284 284 284
283 284 281 282 281 284 288 286 290 283 287 285 288 293 290 291 292 289 288 287 288 288 287 287 286 284 284 283 284 283 283 280 280 281 281 281 281 281 282 282 282 282 282 282
282 282 282 282 280 277 286 287 287 288 285 286 287 289 287 287 287 287 287 286 286 284 283 284 283 281 281 280 280 279 279 278 278 277 277 277 278 280 281 280 280 281 281 281
282 287 285 285 285 287 286 287 288 287 287 285 286 287 286 285 284 285 285 285 284 282 280 279 280 279 277 276 276 275 275 275 273 271 272 274 275 277 279 279 281 282 281 280
282 283 284 286 286 285 285 286 287 286 285 285 286 286 286 284 285 284 284 282 281 280 278 277 277 276 275 273 272 271 272 271 267 268 270 273 274 275 277 279 279 280 281 281
283 283 282 283 282 282 284 284 286 284 284 284 284 284 285 285 284 284 282 280 279 276 275 275 274 273 272 271 270 269 268 266 266 267 269 271 273 274 274 276 277 278 280 282
282 281 282 284 285 287 286 285 285 284 283 283 283 282 282 284 282 281 279 277 275 274 272 272 270 269 268 267 266 266 264 263 263 266 269 270 270 272 273 274 275 278 279 281

GFSCGP_sfc_thetae_105.txt.gz
Theta_e
302 296 292 295 298 297 297 294 293 296 296 296 296 297 299 302 302 302 304 305 306 306 309 310 310 310 311 314 323 328 331 335 333 333 332 332 331 333 334 335 333 330 328 327
296 292 298 298 296 295 296 294 293 294 296 296 296 296 299 301 301 303 303 305 306 307 308 307 307 308 309 309 311 319 325 330 335 332 333 333 333 333 334 335 334 330 327 326
293 295 297 296 293 293 294 293 293 293 294 295 294 293 296 300 302 303 303 305 306 305 305 306 305 307 309 308 309 309 312 321 328 334 332 332 332 332 331 331 332 331 328 326
294 294 294 294 293 293 289 294 294 292 292 288 293 287 296 298 298 298 300 301 302 303 304 304 306 308 309 310 310 309 309 312 319 329 333 330 328 326 329 331 332 331 330 326
291 291 292 292 293 295 292 295 293 293 292 291 290 288 293 294 294 297 299 302 303 304 305 305 305 306 307 310 313 315 307 311 316 323 330 332 325 330 330 329 330 330 329 328
293 295 295 295 294 296 295 293 293 293 291 284 289 289 290 293 294 296 299 302 303 303 304 305 305 307 308 311 314 318 310 307 314 320 325 328 328 327 327 328 328 328 328 327
292 291 294 295 291 294 294 291 285 283 284 283 287 286 291 296 295 298 298 302 303 303 304 305 305 306 307 308 310 314 317 315 312 314 320 324 326 326 322 324 324 326 325 323
286 284 292 295 293 291 292 292 287 281 281 285 285 283 290 296 298 297 297 302 303 303 303 304 304 306 306 307 308 310 314 317 317 318 319 322 324 324 321 321 321 323 321 321
287 286 292 293 294 295 290 287 292 285 281 285 288 291 295 295 295 297 298 300 302 302 303 303 303 305 306 306 307 308 309 313 316 315 316 316 317 317 317 316 316 317 316 313
291 284 290 291 294 293 292 294 286 287 283 281 285 287 289 292 293 296 297 299 300 301 301 301 302 303 304 305 306 307 307 307 309 311 311 311 313 314 315 316 314 314 313 312
293 291 286 290 289 289 289 288 289 290 289 286 283 286 294 295 297 296 299 300 300 300 300 300 301 302 302 303 303 304 305 305 305 306 307 306 306 307 307 306 306 306 307 306
293 291 285 287 290 292 292 291 290 286 284 286 285 287 294 295 298 300 300 300 300 300 300 300 300 301 300 300 300 300 301 300 301 301 301 301 301 301 301 300 300 301 301 302
292 290 284 284 288 291 288 290 292 292 290 286 285 287 295 295 296 300 299 298 298 299 299 299 299 299 298 298 298 298 298 297 298 299 298 298 298 298 297 297 297 297 298 298
295 292 288 284 286 290 286 289 290 290 287 286 287 289 292 294 294 298 299 298 299 298 298 298 297 298 298 298 297 297 296 297 297 297 296 295 295 295 295 295 295 295 295 295
294 287 289 290 289 291 290 289 289 287 289 286 289 289 293 296 296 298 300 299 298 297 297 297 297 297 297 296 295 296 295 295 296 295 294 293 294 293 293 293 293 293 292 292
294 285 288 284 289 289 287 290 290 289 290 290 290 290 297 298 300 299 299 298 297 297 297 297 297 296 295 295 294 294 294 294 295 293 292 292 292 291 291 291 290 290 290 290
291 287 285 285 287 287 283 286 289 290 291 291 287 292 296 294 296 298 299 299 298 297 297 296 295 294 293 293 294 293 293 294 292 290 289 289 289 288 289 289 288 288 289 289
286 286 287 284 285 278 289 294 293 291 292 293 293 294 296 297 297 300 301 300 299 298 297 296 295 293 292 292 292 292 292 291 289 288 287 287 287 286 287 287 287 287 287 287
292 289 285 283 282 286 289 288 290 289 289 294 293 294 296 296 296 296 298 301 299 298 297 296 295 293 291 290 290 289 288 288 287 286 286 285 285 284 284 283 284 285 285 285
289 290 287 285 281 280 287 290 294 294 285 294 295 294 294 293 289 294 296 297 296 295 294 292 291 289 287 286 287 286 285 284 282 282 282 283 283 282 282 283 283 284 284 284
283 284 283 284 283 286 290 288 293 284 288 288 290 293 293 291 293 293 292 291 291 290 289 289 288 285 283 283 285 283 282 280 280 280 280 281 281 280 281 282 282 282 282 282
283 282 282 284 282 280 288 289 288 290 288 289 290 292 291 289 289 289 288 287 286 286 286 285 283 281 280 280 282 281 278 278 277 275 276 276 276 278 280 279 280 282 282 282
283 289 286 286 286 289 290 290 291 290 289 289 289 290 290 288 287 287 286 285 284 283 282 283 282 278 277 277 277 277 275 274 273 271 272 274 275 277 278 278 279 280 281 282
286 287 286 288 290 289 289 289 289 289 289 288 289 290 289 287 287 286 285 282 281 280 279 280 280 278 275 274 273 272 272 271 269 270 271 273 274 275 277 277 279 279 279 280
287 286 286 286 286 286 288 288 289 286 287 287 286 287 288 287 285 284 283 282 280 278 277 278 278 276 273 272 271 270 268 267 268 269 271 273 274 273 274 276 276 277 278 279
284 285 285 285 289 290 289 290 288 285 285 285 285 284 286 286 285 283 281 280 278 276 275 274 273 272 270 269 268 267 265 265 264 268 270 271 270 272 272 273 274 278 279 280

GFSCGP_sfc_thetae_108.txt.gz
Theta_e
299 293 290 292 294 294 292 290 288 291 294 292 291 292 295 297 296 296 296 297 297 298 301 302 304 304 304 310 320 324 328 331 331 329 329 331 330 332 333 333 331 329 328 327
294 290 295 296 296 293 291 290 288 291 294 292 291 291 294 296 296 296 297 297 298 300 301 301 302 300 302 302 304 311 322 328 331 329 330 330 331 332 333 333 332 329 327 327
291 293 296 294 291 291 290 289 288 289 291 290 287 287 291 295 296 297 298 298 298 298 299 299 299 299 301 300 301 303 307 315 327 330 330 330 330 330 329 330 331 329 327 326
292 293 293 292 290 291 286 290 292 290 287 283 286 279 287 291 293 294 296 296 295 295 297 299 301 301 302 303 304 304 303 304 309 328 327 326 326 325 328 329 330 330 327 326
290 290 291 291 292 293 289 292 290 291 287 285 284 280 284 288 289 292 292 295 295 298 299 299 301 303 302 305 306 308 303 302 305 310 326 326 324 325 325 325 328 328 327 325
291 293 293 292 292 293 294 291 290 287 286 278 283 282 283 286 289 289 293 296 299 297 298 300 301 302 303 305 308 310 303 301 306 311 316 323 323 322 322 320 324 326 326 325
289 289 292 293 289 292 291 287 279 278 277 277 282 281 286 289 289 291 294 297 297 298 298 299 300 300 301 302 305 308 311 307 304 308 312 317 319 323 322 321 322 323 323 321
284 282 289 292 290 288 288 287 281 275 276 278 281 278 284 292 292 292 297 297 298 298 299 299 300 300 301 302 303 307 310 310 311 311 312 314 316 317 318 320 319 319 320 320
284 284 291 291 291 291 288 284 289 281 275 278 281 284 290 292 292 291 293 296 296 297 298 298 300 300 300 300 301 303 306 309 313 312 311 311 312 315 315 314 315 314 314 313
288 282 289 289 291 290 288 290 283 284 274 273 278 280 283 288 289 292 292 294 296 296 297 297 298 299 299 300 301 302 302 302 305 307 308 309 310 311 310 309 307 307 307 308
289 288 284 288 287 286 286 285 287 286 284 277 275 280 285 288 291 290 292 295 295 296 296 296 297 298 298 298 298 299 299 299 299 300 301 301 302 302 301 300 299 300 299 299
290 288 282 284 288 289 288 287 287 282 280 281 281 280 289 290 292 293 294 296 296 297 296 296 297 296 295 295 295 295 295 295 296 296 296 296 296 295 294 294 294 295 295 296
291 286 279 282 286 288 286 287 288 287 284 279 277 279 291 290 292 295 295 295 296 296 295 296 295 294 294 294 294 293 293 294 295 294 294 293 293 292 292 292 293 293 293 293
294 288 285 281 284 287 283 286 287 287 281 282 282 284 288 290 292 295 295 295 295 295 295 294 294 294 294 294 293 292 293 293 293 293 292 291 290 291 291 291 291 290 291 290
291 281 284 286 286 286 284 285 287 285 287 282 286 285 288 291 291 295 295 294 295 295 294 294 293 293 292 292 292 292 292 292 292 291 290 290 290 290 289 288 288 287 287 287
291 279 283 280 287 286 283 286 287 287 287 287 287 285 291 292 292 294 295 295 295 295 294 294 294 293 292 292 291 291 291 290 290 289 288 288 288 286 286 285 285 286 285 286
287 283 279 276 283 282 278 284 286 287 289 288 284 289 291 290 293 293 295 296 295 295 294 294 293 292 291 290 291 290 290 289 287 285 285 284 284 284 284 284 285 284 284 285
285 283 283 277 278 272 283 288 290 289 290 291 290 291 291 292 293 295 296 296 295 295 295 293 292 290 289 289 289 289 288 286 284 284 283 283 283 282 283 283 283 283 283 283
291 286 283 280 280 282 285 286 287 286 286 291 291 292 291 292 291 292 294 297 296 295 294 293 291 289 288 287 287 285 284 283 283 282 282 282 281 280 281 280 281 281 280 280
289 289 285 283 279 275 282 285 290 291 283 286 291 291 290 290 285 289 292 294 293 293 293 290 288 286 285 284 284 284 282 281 280 280 281 281 281 279 277 279 278 279 278 281
283 284 283 283 279 281 285 286 290 281 282 283 287 289 289 287 289 289 290 289 289 288 286 286 285 282 282 283 283 281 279 278 278 278 278 278 277 276 277 277 277 275 275 277
282 281 281 283 280 277 285 286 285 286 284 284 286 287 286 286 287 286 286 285 285 284 283 282 280 279 279 280 281 279 277 277 276 275 275 273 272 274 276 271 271 271 271 270
279 283 281 284 283 285 284 284 287 288 287 284 284 285 287 285 284 284 283 282 282 281 282 280 278 276 276 276 278 277 274 274 272 269 269 268 269 271 271 268 268 270 269 269
282 284 281 281 283 283 285 285 286 286 285 284 284 285 286 284 284 283 281 280 280 280 279 278 276 275 274 274 274 274 273 271 267 266 267 268 268 268 268 271 271 268 268 268
281 283 280 279 282 282 284 285 285 284 283 283 284 285 285 283 282 282 280 279 278 278 278 278 278 276 273 273 270 270 269 267 268 266 268 268 268 266 268 271 268 271 271 271
280 281 281 279 285 285 284 284 285 283 282 283 282 282 283 283 282 281 279 278 276 275 276 275 274 272 270 269 268 266 265 265 263 266 267 266 266 266 268 269 270 275 277 279

GFSCGP_sfc_thetae_111.txt.gz
Theta_e
296 290 288 290 291 291 289 288 286 287 293 292 291 290 292 294 293 292 293 295 294 295 299 301 306 311 316 318 322 326 329 329 329 326 328 330 330 331 332 332 331 329 329 328
291 287 293 294 294 292 290 287 285 288 292 290 289 289 292 293 293 294 295 295 295 294 297 298 300 300 302 303 311 318 327 329 329 328 328 329 330 331 332 333 331 330 328 328
288 291 295 294 291 291 288 287 285 286 288 288 285 285 288 293 294 294 295 295 296 296 296 297 297 298 299 298 298 301 307 324 329 328 326 325 330 330 329 330 330 329 328 326
290 293 293 291 290 290 286 290 290 288 285 280 283 278 283 287 290 292 294 294 295 295 295 296 297 298 299 301 302 302 302 302 313 326 326 325 324 324 327 328 329 329 327 326
288 289 290 289 291 292 288 291 289 288 286 282 281 279 284 285 286 291 292 293 293 295 296 298 299 300 302 303 304 306 305 301 301 320 325 324 320 322 322 326 327 327 326 325
290 292 291 291 291 292 293 290 289 286 283 278 280 280 279 284 289 287 290 292 295 295 296 297 299 301 302 303 305 307 304 299 301 305 318 322 320 322 321 322 323 325 325 324
287 288 290 292 289 291 290 286 279 277 276 276 279 279 283 287 288 292 292 294 294 294 295 297 298 299 300 301 304 309 307 306 302 307 311 317 320 322 321 320 322 322 322 321
282 281 287 291 289 286 287 286 280 274 274 276 280 278 284 289 289 291 294 295 295 296 297 297 298 298 299 300 302 307 307 307 308 309 310 311 313 317 319 319 319 319 320 320
283 283 290 290 291 290 286 284 289 281 273 276 279 282 288 290 289 291 293 294 293 295 296 297 297 298 298 298 300 303 306 307 308 307 307 308 310 312 314 314 314 313 313 312
287 282 288 288 290 289 288 290 283 283 273 272 277 278 281 287 288 289 291 292 293 294 296 296 296 297 297 298 299 300 301 302 303 303 303 303 304 305 306 306 305 304 305 305
288 286 284 287 286 285 285 284 285 285 282 275 274 278 285 287 289 289 290 292 293 294 294 295 295 296 296 296 297 297 297 297 297 299 300 300 300 300 299 299 299 299 298 298
289 286 281 283 287 288 287 286 286 281 279 280 279 280 288 288 291 291 291 293 293 294 294 294 294 294 294 294 294 293 294 294 294 294 294 293 294 294 293 292 293 293 293 293
290 284 278 281 285 287 285 286 286 285 282 278 276 279 289 289 290 291 292 293 294 294 294 294 293 293 292 292 292 292 292 292 292 292 291 291 290 290 290 290 291 291 291 290
295 286 283 279 282 285 283 285 286 286 279 279 280 282 287 289 291 292 293 294 294 294 294 293 293 292 292 292 291 290 291 291 291 291 290 289 289 289 289 289 289 288 288 288
290 281 283 285 286 286 284 285 286 285 287 282 286 284 287 289 290 293 293 294 294 293 294 293 292 292 291 290 290 290 290 290 290 290 289 288 288 288 287 287 287 286 285 285
289 275 281 279 285 284 282 285 286 287 287 286 284 284 289 291 291 293 294 294 294 294 294 294 293 291 290 290 289 290 289 289 289 288 287 287 286 285 285 285 285 285 284 284
286 281 276 272 282 282 279 283 284 285 286 287 283 289 289 288 290 291 293 294 294 294 293 293 293 292 291 290 290 289 288 287 286 284 284 284 284 283 283 284 283 283 283 283
280 280 277 274 275 272 283 286 289 287 288 289 288 288 289 290 292 293 294 295 294 294 294 294 293 291 290 289 289 288 286 284 283 283 282 283 282 282 282 282 282 282 282 281
288 284 280 276 268 279 283 286 284 285 285 290 290 291 289 291 291 290 293 294 295 295 295 294 292 290 288 288 287 285 283 283 283 282 282 281 280 279 280 279 280 281 279 279
288 288 283 276 272 272 281 286 287 289 282 284 290 291 289 289 284 289 291 293 293 292 292 289 289 287 286 284 284 283 281 281 280 280 281 280 280 278 277 279 279 279 277 279
284 284 282 281 275 277 285 285 289 280 282 283 287 289 288 286 288 288 288 286 287 288 286 286 287 285 284 283 283 281 280 279 278 278 278 277 277 277 278 277 277 275 274 275
282 281 282 282 275 275 284 285 284 286 284 284 286 287 286 286 286 285 284 283 284 283 283 283 282 282 281 281 281 279 277 277 276 275 275 275 275 277 276 274 273 271 269 270
281 283 281 284 282 285 283 285 286 287 286 285 285 285 287 285 284 283 282 281 281 281 281 280 280 278 277 278 278 276 275 275 273 272 271 273 274 274 273 269 270 273 269 267
282 285 283 283 283 284 285 285 286 286 285 285 285 285 286 285 284 282 281 281 280 279 278 277 277 276 274 274 276 276 274 273 272 272 272 272 270 268 269 271 271 266 266 266
282 284 281 280 282 283 284 285 286 284 283 283 284 285 285 284 282 282 280 279 279 279 277 277 277 276 274 274 273 272 271 271 270 270 271 270 269 266 268 270 269 271 270 270
279 281 281 280 285 285 285 285 286 284 283 283 283 282 282 283 282 280 278 279 278 277 276 275 274 273 272 271 269 266 266 266 267 268 267 267 267 266 267 267 266 273 275 277

GFSCGP_sfc_thetae_114.txt.gz
Theta_e
298 294 290 293 290 290 288 288 287 288 291 291 289 290 292 293 291 292 292 292 293 294 297 301 305 312 317 320 325 328 328 329 328 325 327 326 329 331 332 332 331 329 328 328
291 290 295 295 293 291 289 286 286 288 291 289 287 289 291 291 293 293 293 292 294 294 295 297 299 306 314 316 320 324 328 328 328 328 328 325 326 329 331 332 331 330 329 328
287 291 297 293 291 290 287 286 285 286 288 287 285 284 287 291 293 293 294 294 294 294 295 296 297 299 300 302 306 315 323 327 329 328 326 322 324 325 328 329 329 329 328 327
287 292 292 290 290 291 286 289 289 288 285 281 283 278 282 285 289 291 294 293 294 294 295 295 294 295 295 298 300 300 301 316 325 325 325 324 323 322 323 324 328 329 328 327
287 288 289 289 290 291 289 291 289 287 285 282 280 279 281 283 286 287 291 292 293 292 294 295 297 299 300 302 302 303 302 300 303 324 325 324 320 321 322 325 326 327 326 326
288 290 291 291 291 292 292 289 288 285 282 278 281 280 280 283 287 287 288 291 292 293 295 297 298 301 301 302 305 305 305 301 299 303 321 324 320 324 322 321 322 323 324 324
285 286 289 291 288 290 290 284 279 278 277 276 278 277 282 285 287 288 289 290 292 294 295 296 298 299 300 300 304 304 301 302 300 305 311 319 320 320 319 320 320 321 321 321
280 279 287 289 288 286 286 285 279 273 273 275 279 278 283 288 288 290 291 293 293 293 294 296 297 298 299 300 303 306 306 304 305 307 308 312 316 317 317 319 320 319 319 319
280 281 288 289 289 290 286 284 287 280 274 276 278 281 287 288 288 289 292 292 292 293 294 296 296 297 297 298 302 304 305 304 305 305 306 307 309 312 313 313 313 313 313 312
285 281 287 287 289 289 288 289 283 282 274 272 276 277 280 285 287 291 291 291 292 293 295 295 295 296 296 297 298 301 302 302 301 302 302 302 303 304 306 307 305 305 304 305
287 285 283 287 286 285 285 284 284 285 281 275 273 278 285 286 289 289 292 292 292 293 293 294 295 295 296 296 296 296 298 298 297 298 298 297 297 297 299 300 299 298 298 298
288 285 280 283 286 288 287 286 286 282 279 279 279 279 286 287 290 290 290 292 293 294 293 293 294 294 294 294 294 294 294 294 294 294 294 293 294 294 295 294 294 294 293 292
289 282 277 281 284 286 285 286 286 285 282 280 276 279 287 288 289 289 290 292 293 293 293 293 292 292 292 292 292 292 292 292 291 291 291 290 291 291 290 290 289 289 289 289
294 285 282 278 281 285 283 285 285 285 280 280 279 281 285 288 290 291 291 292 293 293 294 293 292 291 291 291 291 290 290 290 290 289 289 288 288 288 288 288 288 287 287 287
291 280 281 283 284 285 284 285 286 284 286 282 285 284 286 289 289 292 293 293 293 293 293 293 292 292 291 290 290 290 289 289 289 289 288 287 286 287 287 286 285 285 285 284
288 277 282 279 284 285 283 285 286 287 286 286 283 283 288 290 291 292 293 293 293 294 294 294 293 291 290 290 289 289 288 288 288 287 286 286 285 284 284 284 284 284 283 283
286 280 276 274 280 281 281 284 285 285 287 286 283 289 288 287 289 292 293 294 294 295 294 293 293 292 291 290 290 288 287 286 285 285 284 284 283 283 283 283 283 282 282 282
281 280 276 271 273 272 283 286 289 287 287 289 286 287 289 290 291 292 293 293 293 293 293 293 293 291 290 289 288 287 285 284 283 283 283 283 283 282 282 282 281 281 281 281
287 283 277 276 267 278 281 284 284 284 286 289 289 289 289 289 288 290 290 293 295 294 294 294 293 291 289 289 287 285 284 283 283 282 282 281 281 280 280 279 280 280 279 279
287 286 282 274 270 271 278 284 286 289 281 285 289 289 288 289 284 289 290 291 292 293 292 291 290 289 288 286 285 284 283 282 282 281 281 280 279 277 277 278 277 278 278 280
282 282 280 271 270 276 283 285 287 281 281 284 287 288 287 286 288 287 287 286 286 287 287 287 288 287 286 285 284 283 281 281 280 279 278 277 277 276 276 275 276 276 278 277
282 281 278 274 271 276 285 285 284 286 284 284 287 287 287 286 286 285 284 284 284 284 284 284 284 283 283 284 283 281 280 278 276 276 275 273 272 276 275 273 275 274 273 270
282 283 282 283 281 285 283 285 286 287 286 285 286 286 287 285 285 284 283 282 282 281 281 280 281 280 278 279 281 279 276 275 274 272 270 270 274 274 275 274 272 271 269 268
283 285 283 284 284 284 285 285 286 286 286 285 286 286 286 286 284 284 282 282 280 279 279 277 279 279 277 276 276 276 275 274 271 273 273 274 273 272 272 274 274 270 267 267
282 284 281 280 283 284 285 286 287 285 284 284 284 284 285 284 283 283 281 279 280 279 277 277 279 279 275 274 272 272 272 273 273 272 272 272 271 271 271 272 271 271 271 270
280 281 282 280 286 286 286 287 286 285 284 284 284 282 283 284 283 281 279 279 278 277 275 275 274 274 272 271 270 269 270 271 272 271 270 270 269 269 269 268 267 272 274 276

GFSCGP_sfc_thetae_117.txt.gz
Theta_e
297 290 288 292 292 291 290 288 286 288 291 289 288 291 294 293 290 291 293 293 293 299 307 307 311 316 316 320 324 328 329 329 328 325 326 323 324 329 331 332 331 329 329 328
291 289 292 295 294 292 290 287 286 288 290 289 287 289 291 290 291 292 293 292 292 292 294 296 299 305 312 317 323 326 328 328 328 329 328 325 324 324 327 331 331 330 328 328
287 289 295 296 292 290 289 287 284 286 288 288 285 287 287 290 291 291 293 292 292 294 294 294 295 299 307 312 318 324 326 327 328 329 325 321 322 323 325 325 329 329 329 328
289 295 293 293 292 291 287 289 289 287 285 282 284 282 284 286 289 290 293 292 294 293 294 294 294 296 298 301 303 313 319 322 326 326 325 325 323 322 321 322 324 326 328 328
286 287 291 290 290 292 288 291 290 287 284 282 281 278 283 281 284 287 291 292 295 293 293 293 293 295 296 299 300 299 300 306 319 324 325 324 319 320 320 323 325 326 325 326
288 288 292 292 292 292 292 290 288 285 283 278 281 280 280 281 286 287 288 290 292 291 292 292 295 299 299 301 303 303 303 301 299 314 321 323 322 320 321 323 323 323 324 323
284 284 287 289 287 290 289 287 278 277 277 277 278 278 286 286 286 287 289 290 289 290 293 294 296 298 299 300 303 302 301 300 298 298 312 321 320 321 321 323 321 320 321 321
281 279 285 287 286 285 285 285 279 273 273 276 279 277 283 288 287 288 289 289 291 291 293 295 296 297 298 299 302 303 303 301 301 304 302 314 316 320 318 317 316 320 319 319
281 280 286 287 287 288 284 284 286 280 275 278 279 280 286 287 288 290 290 291 291 292 293 295 296 296 297 299 301 302 303 302 303 304 305 307 312 313 313 313 314 314 313 311
284 280 285 285 286 286 286 289 282 281 273 272 277 277 280 283 288 289 290 290 291 292 293 294 295 295 296 297 299 301 302 302 302 302 303 303 305 307 308 310 306 307 306 306
285 284 281 285 283 282 282 282 282 284 281 276 273 278 284 288 287 288 291 292 292 293 293 294 294 295 295 296 297 297 298 298 298 299 298 299 299 299 300 301 301 300 300 299
285 284 278 281 284 286 284 285 286 281 278 279 279 281 285 286 288 289 291 292 292 292 293 294 294 293 294 295 295 295 295 295 295 294 294 294 294 294 294 294 294 295 294 294
288 281 274 280 282 284 282 283 284 283 282 279 279 281 286 288 289 290 289 291 292 293 292 292 291 292 293 293 293 293 293 292 292 291 291 291 291 291 291 290 291 291 291 289
293 284 281 279 280 284 282 283 283 284 280 279 280 281 285 287 288 290 289 290 292 293 292 291 291 292 292 292 291 291 291 290 290 289 289 288 288 288 289 289 288 287 286 286
290 279 281 282 282 283 282 285 285 284 286 282 285 283 287 287 289 291 291 291 292 292 292 293 292 292 292 291 290 290 290 289 288 288 287 286 286 287 286 285 285 284 284 284
287 277 281 278 283 283 282 285 287 286 286 286 282 282 287 288 290 292 292 292 292 293 294 294 293 292 291 291 290 289 287 287 287 287 286 285 285 284 284 284 283 284 283 283
287 280 279 275 281 282 278 282 283 285 287 286 282 288 288 287 289 291 292 293 293 294 294 294 293 292 291 290 290 288 288 286 285 284 284 284 284 283 283 283 283 282 282 282
284 283 280 277 280 275 283 286 286 286 286 288 285 286 289 290 291 292 294 294 294 294 294 294 294 293 291 289 288 287 285 284 284 283 283 283 283 282 282 282 281 281 281 281
286 282 276 276 270 278 281 283 283 283 286 288 288 288 288 288 289 290 290 293 295 294 294 294 293 291 288 288 287 285 284 284 283 283 283 282 282 281 280 279 279 280 279 278
285 285 281 267 271 272 279 284 286 288 281 284 288 288 289 289 285 289 290 291 291 292 293 292 291 288 288 287 286 285 283 283 283 282 282 281 280 279 278 279 278 277 277 278
276 278 280 273 269 275 282 285 286 280 281 283 285 287 287 288 289 288 288 287 286 287 287 288 288 288 288 286 286 284 283 283 282 280 279 278 278 277 277 276 275 274 275 277
281 279 275 272 269 275 283 284 283 286 284 284 287 286 285 286 286 285 285 285 285 284 285 285 284 283 284 285 285 283 282 280 279 277 276 275 274 276 274 273 271 274 273 273
280 282 279 281 280 285 284 285 285 286 287 286 287 286 287 286 285 284 284 283 283 282 283 280 281 280 280 281 284 282 277 277 276 274 272 271 272 273 273 274 274 273 273 274
283 284 284 285 284 285 285 285 285 285 285 285 286 286 287 286 285 284 283 283 282 279 280 277 279 279 277 276 279 279 277 276 274 272 271 272 272 273 274 274 273 272 271 271
283 284 280 279 282 284 284 286 287 285 285 284 284 285 286 286 284 284 281 279 281 279 277 277 277 277 275 275 274 275 274 274 273 272 272 272 273 271 271 273 272 272 272 272
280 281 282 280 286 287 287 287 287 285 285 284 284 283 284 284 284 281 279 279 277 276 275 275 275 275 273 272 271 270 272 273 273 271 272 271 270 271 271 271 269 274 275 277